GFSMA_prec_cthk_000.txt.gz
RH
46 45 44 44 44 45 46 48 47 46 42 42 41 41 40 38 37 38 37 32 31 30 30 28 30 36 45 53 62 65 74 92 95 92 88 80 74 65 53 42 41 35 34
45 44 44 44 44 48 46 47 48 46 46 44 44 42 42 44 44 41 42 41 37 36 35 34 32 31 34 43 55 64 71 82 93 97 96 92 89 78 73 63 54 48 45
46 44 47 46 47 46 46 47 45 44 44 47 46 46 46 46 47 45 45 45 44 42 41 40 39 37 33 33 39 52 65 72 80 91 95 94 92 93 86 82 72 62 59
48 47 50 48 47 46 47 47 47 46 45 44 43 44 46 47 47 47 48 48 49 49 47 46 45 43 41 38 34 32 42 61 67 70 75 86 91 89 89 92 90 82 75
51 50 49 48 48 46 44 45 45 45 45 44 44 44 43 42 44 47 48 48 49 49 51 50 49 49 48 46 43 39 34 35 56 66 64 64 73 86 91 90 92 94 91
53 52 51 50 50 51 49 50 47 46 47 46 45 44 44 46 46 45 46 47 49 49 50 50 51 53 49 49 49 46 43 40 35 41 65 64 63 74 94 93 93 94 94
56 55 55 55 52 50 49 46 45 46 45 49 49 46 46 48 48 47 50 49 48 50 52 52 50 50 51 49 48 49 48 46 45 42 39 52 61 64 78 91 95 98 93
64 57 54 50 47 44 42 41 40 40 43 47 49 51 50 51 52 48 49 48 52 54 54 55 49 48 48 49 49 48 49 48 46 47 48 45 46 52 58 75 81 89 90
59 54 48 42 39 38 37 37 39 40 40 42 49 52 50 53 59 58 54 52 53 52 54 54 51 49 48 47 46 47 46 47 48 47 48 49 49 46 48 49 59 79 88
55 48 41 39 36 37 39 38 40 40 42 40 46 46 53 48 55 61 61 59 56 57 58 55 56 54 53 52 47 44 41 41 44 47 49 49 49 50 50 47 45 44 65
46 44 44 41 38 36 36 33 32 35 35 37 43 43 40 55 53 60 61 69 66 60 56 54 57 62 60 57 56 54 45 38 37 39 43 48 50 49 49 52 51 48 43
52 50 44 40 38 35 34 32 31 30 31 35 40 44 45 46 54 53 59 66 73 72 60 59 61 66 68 64 61 55 50 45 41 38 37 38 42 46 48 49 50 52 51
49 45 37 37 36 35 37 39 42 46 44 42 44 51 57 61 64 65 65 68 70 78 75 68 64 69 71 73 69 62 54 49 48 46 42 37 36 37 42 46 48 49 50
47 39 39 41 45 46 50 55 58 59 63 63 66 65 66 73 77 79 78 81 87 81 84 81 79 75 76 70 72 64 61 53 52 53 50 48 45 41 38 39 41 45 46
46 43 46 51 53 57 61 60 66 71 77 82 86 94 88 86 80 82 88 90 90 87 89 93 87 87 78 75 78 70 71 67 60 55 54 51 46 46 44 41 38 39 40
53 55 55 63 66 66 67 71 77 83 89 91 92 93 94 92 92 90 92 92 94 93 90 86 83 83 80 75 78 73 69 64 59 54 46 49 49 48 47 45 43 39 38
61 65 68 66 69 72 83 88 94 97 96 95 92 90 86 85 85 83 80 79 79 78 75 71 75 73 71 70 67 66 68 67 67 61 52 42 43 45 48 48 47 43 40
67 62 65 70 78 84 91 95 97 96 94 91 88 85 81 76 70 67 68 71 75 73 70 68 70 66 61 62 62 63 61 60 60 58 53 44 38 38 43 44 48 48 47
64 66 72 80 88 94 98 97 95 94 94 92 89 86 80 74 70 69 69 68 69 69 66 63 61 60 57 56 55 55 55 54 52 49 49 48 43 36 32 34 38 40 45
74 77 83 88 89 85 87 90 92 92 89 85 81 76 72 69 69 68 66 63 59 55 54 55 53 51 50 50 50 50 50 50 49 49 48 46 45 43 39 35 32 34 38
63 67 66 65 65 64 64 61 65 70 75 74 71 69 67 66 58 54 52 49 47 46 46 51 52 49 47 49 51 50 50 50 48 52 50 46 45 43 40 34 31 30 30
62 58 53 47 41 40 38 35 35 40 48 53 59 59 55 54 52 46 43 39 38 38 41 46 46 44 44 48 53 54 54 53 50 51 50 46 46 46 44 44 43 38 34
51 39 35 36 38 40 38 37 36 37 39 44 47 50 49 47 45 46 45 43 39 39 41 45 50 54 59 67 71 69 68 65 62 61 61 56 57 51 47 45 43 36 33
36 36 37 40 45 51 47 46 44 45 49 50 50 51 50 48 46 45 46 45 46 51 55 62 66 72 75 79 80 80 79 77 75 73 74 69 66 60 57 51 44 40 34
35 41 49 53 56 57 55 51 48 50 55 57 56 54 52 49 49 50 51 54 57 63 72 77 80 82 87 91 94 94 90 89 82 81 82 80 76 72 63 54 51 45 39
46 52 59 62 62 64 69 64 61 61 59 58 57 58 56 56 54 57 60 65 71 79 84 89 88 90 95 96 95 95 97 96 96 93 93 88 85 85 78 62 55 48 42

GFSMA_prec_cthk_003.txt.gz
RH
51 51 52 51 49 50 53 51 49 48 44 43 43 45 45 43 40 41 44 40 37 35 32 31 30 29 31 34 41 48 61 66 77 87 91 89 86 78 77 69 63 52 39
53 51 50 52 51 49 48 46 45 42 40 39 39 40 43 43 44 46 45 44 42 40 39 38 36 35 34 32 34 41 52 62 64 75 98 89 86 88 83 81 69 53 50
53 51 54 55 56 52 50 51 49 48 45 42 39 38 37 37 38 40 42 44 44 44 42 41 41 40 39 38 36 36 41 50 64 63 78 91 93 87 86 88 82 67 56
57 57 57 56 55 53 52 53 52 52 50 48 46 43 39 37 37 36 35 36 40 42 43 44 44 44 44 42 41 40 36 37 44 63 70 75 98 93 87 88 89 86 74
64 64 63 62 60 61 58 55 54 52 53 51 49 46 43 40 41 40 38 38 36 38 40 40 42 43 44 45 45 44 44 40 35 38 50 67 75 91 84 85 93 92 91
68 65 65 64 63 60 60 59 54 51 49 48 48 45 44 44 40 41 43 40 40 40 40 42 39 39 41 44 44 45 47 48 45 39 36 44 57 68 74 83 87 94 92
69 67 66 67 62 59 55 49 46 43 43 42 44 50 47 43 49 48 43 43 43 44 43 43 47 46 42 41 42 43 43 45 48 49 44 38 35 48 67 69 73 82 90
71 71 72 61 59 52 48 48 46 46 44 43 46 47 53 50 52 59 59 56 46 45 45 46 51 50 48 45 41 42 41 42 43 46 48 47 43 38 38 56 66 67 79
76 71 66 61 54 54 53 51 50 48 47 44 46 45 53 52 49 46 60 71 71 65 53 49 49 50 46 46 46 42 42 40 40 40 44 48 49 47 46 42 44 62 68
71 65 62 57 56 53 50 46 45 40 37 35 37 39 40 46 57 59 54 69 76 71 66 67 65 55 48 46 47 50 45 45 42 40 41 42 48 50 50 49 48 49 56
63 61 57 56 50 44 44 42 42 43 42 42 44 44 42 38 43 55 49 52 82 79 77 71 83 61 57 56 54 47 50 48 47 46 42 39 40 46 51 52 50 50 50
55 53 51 51 49 50 50 46 51 50 46 44 44 44 45 45 46 48 48 46 58 81 87 85 86 79 71 69 62 58 47 52 51 49 48 43 38 36 42 49 52 51 50
51 52 54 54 51 52 55 58 59 60 60 57 52 53 55 61 62 64 62 61 66 75 94 99 89 88 75 81 69 65 53 51 55 55 50 46 43 38 35 38 44 50 52
53 51 51 50 54 57 57 60 64 60 59 63 66 68 70 73 80 87 90 81 73 78 91 89 83 82 88 83 81 69 64 60 58 57 56 53 48 45 40 35 35 38 44
54 57 61 59 55 58 62 65 68 68 67 75 78 86 87 87 89 93 95 93 92 90 86 82 96 97 94 91 84 75 72 76 68 58 56 58 55 52 48 44 40 36 35
64 52 54 62 67 64 63 69 70 74 80 86 89 95 95 91 90 89 93 95 96 95 92 92 84 87 88 88 89 84 87 79 73 69 66 64 59 55 52 50 45 40 38
53 52 47 50 57 62 68 75 80 87 92 94 96 94 91 90 86 83 81 83 85 90 82 79 85 85 84 85 86 88 83 84 83 71 64 62 53 49 50 50 47 43 40
45 46 50 58 67 78 84 92 92 90 93 95 96 96 94 94 91 88 85 81 79 79 81 75 81 84 85 84 81 82 79 79 77 75 69 60 63 53 43 44 44 44 41
51 54 58 67 73 83 88 85 85 87 89 90 90 91 91 91 88 86 86 86 87 85 84 81 79 77 77 76 76 75 74 72 68 70 68 61 55 57 51 39 33 36 34
54 58 62 65 67 65 59 60 55 50 49 60 68 72 74 77 77 76 75 77 81 80 78 74 69 67 65 63 64 64 63 63 62 63 62 58 51 46 49 48 36 28 27
58 59 59 60 54 51 51 44 39 35 35 40 42 48 51 56 57 57 63 63 64 65 64 65 62 61 65 64 65 66 64 63 63 63 64 61 60 60 50 45 41 32 24
59 60 54 52 51 49 50 42 42 42 42 41 45 47 50 53 56 54 51 50 50 52 56 55 51 53 53 56 57 55 58 57 56 56 56 55 59 59 55 58 61 53 42
64 54 53 51 53 56 57 50 48 49 50 49 53 57 57 55 54 52 51 51 54 49 47 44 43 40 42 42 47 52 53 57 57 60 61 57 62 63 55 52 51 51 49
57 54 53 55 54 59 65 61 62 63 64 68 68 67 63 59 58 58 55 52 48 46 47 48 47 45 49 54 60 64 67 68 67 68 71 65 63 60 62 60 55 50 50
60 53 54 57 59 66 73 74 72 71 74 74 74 73 72 63 54 50 51 50 49 49 54 56 57 59 65 73 79 83 82 83 79 77 78 75 71 67 69 60 60 56 49
58 52 53 59 64 71 78 78 78 76 77 75 78 80 74 67 64 59 56 56 55 58 67 71 75 80 87 86 88 90 93 93 93 91 92 89 82 78 74 70 68 62 60

GFSMA_prec_cthk_006.txt.gz
RH
48 46 46 46 47 48 46 45 43 43 42 39 35 32 32 33 34 34 34 37 39 39 38 38 37 35 32 30 29 31 36 41 52 64 75 79 87 86 83 83 82 75 74
49 48 48 47 48 50 50 47 45 44 43 42 39 36 33 31 30 31 32 34 34 35 36 37 37 39 39 38 35 32 31 35 45 57 62 76 86 87 89 83 85 76 67
53 53 52 53 54 53 50 47 47 46 45 44 44 43 40 37 34 32 31 31 30 29 31 32 33 35 37 39 41 39 37 36 39 47 58 63 75 80 85 89 87 85 75
60 58 57 58 57 55 52 50 47 46 46 44 43 42 41 42 39 36 35 33 33 31 31 30 30 30 33 35 38 40 41 41 40 42 46 58 64 71 77 88 93 92 85
66 64 63 60 57 58 58 54 52 50 50 48 43 40 39 43 44 41 39 36 35 37 36 32 32 31 30 32 34 36 38 41 43 42 42 46 58 64 77 95 94 92 92
71 68 66 63 67 67 61 56 55 52 42 38 38 38 36 33 35 38 43 43 45 43 42 42 38 35 33 32 32 33 34 37 40 43 45 43 44 50 65 76 78 91 96
71 73 71 71 67 65 61 56 50 45 42 41 39 37 34 34 38 41 50 57 55 48 49 45 40 41 38 35 34 33 34 34 36 39 44 47 46 42 47 60 74 82 97
81 87 86 75 68 68 62 54 54 49 44 40 41 38 37 34 34 34 34 42 57 68 59 63 66 61 52 46 42 37 34 34 35 36 39 43 48 48 47 43 54 70 86
81 76 72 67 60 53 52 47 44 43 42 40 43 47 45 42 39 34 32 34 40 56 78 78 86 73 69 59 53 43 40 37 36 36 35 38 43 48 50 50 45 42 54
60 61 59 56 54 51 48 45 46 46 45 42 41 42 44 47 47 40 34 32 34 40 65 72 91 88 87 80 62 54 48 44 46 40 40 39 38 40 47 51 53 51 45
59 59 55 56 55 50 48 50 50 49 47 51 50 47 46 48 54 58 44 39 37 41 39 59 85 86 96 78 82 73 63 56 52 49 44 44 44 41 39 44 51 53 54
63 61 61 59 56 56 57 59 59 58 56 53 52 55 54 49 45 51 51 38 39 32 41 40 63 80 95 94 95 86 74 67 61 55 50 47 46 47 43 40 41 48 51
68 65 65 64 63 61 62 61 57 55 51 47 48 54 58 58 57 59 64 59 52 46 43 47 48 69 94 98 96 98 89 83 67 67 60 54 49 47 48 44 42 42 43
68 69 61 54 54 51 50 46 46 49 51 52 56 63 62 61 68 66 71 79 72 65 62 64 66 68 81 98 99 98 98 95 83 76 69 59 54 49 50 51 46 42 42
70 63 54 46 47 40 40 44 51 57 57 63 68 71 72 74 73 76 79 84 90 86 82 86 84 81 78 94 95 98 97 96 86 78 67 59 60 54 53 54 53 47 43
46 38 39 36 38 41 46 54 57 65 71 77 85 92 95 93 91 92 92 90 87 82 72 80 85 82 93 95 97 97 96 97 88 84 78 70 68 64 63 56 56 56 51
27 27 32 36 42 49 55 62 74 79 82 84 90 96 97 98 98 98 98 95 89 86 78 71 74 83 86 90 92 93 94 94 91 82 77 69 65 67 67 65 60 57 57
33 40 46 45 48 54 58 66 69 71 71 75 82 84 83 85 89 93 95 96 94 91 87 78 71 69 75 83 86 89 91 91 93 85 78 76 69 65 62 58 54 58 56
45 47 47 48 48 49 49 49 50 48 46 45 42 39 39 56 59 64 64 74 83 89 89 86 82 76 70 71 74 80 85 88 87 87 79 73 69 65 66 61 53 47 49
47 46 51 55 54 54 52 51 47 44 41 38 33 29 34 44 55 65 63 59 59 69 76 74 72 70 67 64 62 62 65 72 75 78 74 72 68 65 61 60 55 47 40
50 55 57 54 54 54 54 50 44 45 49 49 45 43 42 43 47 54 56 61 57 48 51 58 62 65 64 65 69 77 79 78 74 75 73 65 67 69 65 59 56 54 45
60 64 60 56 53 53 55 53 51 59 63 66 64 60 56 53 54 63 64 59 55 51 44 47 49 54 59 61 64 68 71 71 71 67 64 59 63 57 56 61 61 62 55
69 73 59 58 57 58 60 56 57 67 73 73 69 68 68 71 76 75 71 63 60 54 53 53 55 50 48 46 49 52 54 58 61 63 59 56 57 57 60 62 67 62 57
82 61 57 60 61 59 60 62 64 74 79 78 77 75 74 72 76 80 72 62 59 58 55 52 52 45 50 48 49 46 46 46 46 49 58 64 62 60 61 59 60 60 60
62 56 58 62 58 56 53 64 79 85 88 87 90 94 93 83 76 78 70 61 54 50 49 50 51 52 54 54 53 54 54 62 64 69 73 73 70 66 64 59 56 54 55
54 57 55 52 55 52 63 84 91 92 90 91 95 94 91 90 90 86 77 70 63 59 57 53 55 57 61 66 72 78 84 84 83 82 86 87 82 81 74 66 63 61 58

GFSMA_prec_cthk_009.txt.gz
RH
49 48 47 46 46 48 48 47 46 43 40 38 37 35 34 32 31 30 30 29 28 30 31 32 31 33 37 38 37 36 35 34 38 40 55 61 68 80 76 83 80 80 88
51 52 52 52 52 53 53 50 48 44 42 42 39 37 34 33 32 32 32 31 29 28 27 28 30 31 32 34 37 40 41 40 35 38 48 64 64 73 72 79 80 82 84
61 59 61 57 54 54 53 51 50 50 47 45 46 45 42 36 34 34 39 38 33 31 29 28 26 27 29 29 30 33 38 41 42 40 43 55 64 62 69 83 76 84 82
61 61 63 62 59 59 60 59 57 56 49 49 48 49 46 38 38 34 33 35 38 36 35 33 33 31 27 26 27 28 30 34 40 43 43 45 57 64 69 77 84 83 80
66 67 65 63 64 66 66 65 62 58 56 51 48 42 35 34 33 34 31 35 32 33 35 36 38 38 36 34 30 27 29 30 33 38 43 45 49 57 64 70 78 85 84
64 69 72 67 65 66 68 64 58 54 51 47 40 39 39 33 32 29 27 30 37 50 45 41 41 38 42 43 42 37 31 29 30 32 37 43 45 48 59 67 72 77 90
69 66 62 59 56 50 52 52 50 47 42 43 39 34 31 30 28 26 25 26 31 33 40 49 55 60 64 50 50 47 44 37 31 30 32 36 43 47 45 52 65 70 84
68 62 60 56 50 48 48 45 43 41 39 39 39 38 36 33 31 32 32 32 32 32 32 40 45 53 56 70 72 69 59 52 41 34 32 33 35 41 48 49 48 55 68
58 56 55 53 53 52 49 49 50 48 44 46 48 47 44 41 40 37 34 33 32 32 33 33 42 54 57 60 80 72 70 65 57 45 34 32 32 35 40 47 50 49 53
58 58 59 60 59 54 55 52 49 48 51 50 51 54 60 61 59 51 42 39 39 38 38 41 43 46 55 66 70 80 82 79 73 60 44 36 33 34 36 40 46 50 52
63 64 64 63 61 58 55 53 48 47 46 47 52 55 55 53 53 54 45 37 32 27 27 30 36 43 52 60 67 81 98 92 79 74 63 49 43 39 38 37 41 44 51
65 66 67 66 63 58 57 54 51 47 51 52 50 57 58 51 50 56 55 37 36 26 26 28 32 36 39 57 65 66 91 87 87 89 77 67 56 48 44 43 39 41 43
65 63 58 54 51 47 42 39 42 47 47 46 46 45 49 49 58 60 65 58 53 40 35 40 42 47 47 45 55 64 89 98 94 97 93 80 74 63 51 47 45 46 48
63 56 48 45 42 36 34 36 40 46 48 52 60 55 64 62 72 75 76 75 63 62 54 53 58 64 66 60 59 56 70 91 97 98 97 95 88 81 66 56 49 49 45
58 50 44 30 29 29 31 34 40 43 50 56 64 71 75 81 87 90 95 98 96 79 69 73 66 67 79 85 77 68 74 75 98 98 93 93 94 91 79 71 56 49 50
45 37 29 29 30 34 40 46 50 51 55 65 74 80 87 92 96 97 99 99 98 96 78 82 76 74 77 88 91 89 91 94 97 98 98 95 88 84 83 77 62 50 49
32 31 32 34 39 44 43 42 42 42 43 45 50 57 61 72 75 79 88 93 93 93 91 76 79 75 74 76 83 92 95 97 98 96 97 95 86 80 78 76 67 63 55
40 43 37 40 40 46 47 46 46 49 47 46 48 46 44 41 36 37 46 55 77 81 79 76 78 79 77 80 78 82 90 96 97 97 96 91 86 79 72 73 69 65 62
72 66 50 44 47 50 48 49 50 48 47 48 50 51 50 47 39 34 42 44 47 54 56 61 69 77 79 83 82 80 82 89 93 95 94 91 85 76 73 71 70 65 61
80 61 60 47 56 52 51 47 45 45 51 54 52 53 55 58 59 54 50 49 47 51 51 53 50 56 67 77 81 77 65 77 84 88 91 88 79 76 71 66 65 61 61
70 71 71 55 67 48 48 49 53 54 54 51 52 58 63 65 69 71 70 65 58 57 51 46 47 44 46 55 64 68 61 63 70 78 80 81 72 68 64 59 57 59 58
71 81 65 65 48 51 54 60 60 56 54 59 67 69 70 72 73 76 79 77 75 71 63 58 50 44 42 49 55 58 64 67 64 69 71 64 63 63 63 63 61 60 61
81 79 66 47 53 59 63 62 55 52 68 78 81 80 78 84 82 76 76 80 81 79 72 63 60 53 47 51 53 55 56 62 68 68 67 65 65 62 62 61 62 65 61
79 68 48 47 57 59 56 49 50 72 83 88 88 83 86 89 95 93 86 77 75 75 72 64 58 50 49 45 50 54 58 60 57 55 56 57 54 56 55 52 53 56 59
71 55 43 52 51 52 50 46 66 79 83 86 87 92 92 93 90 90 91 87 79 75 66 57 53 51 51 50 55 56 55 54 47 42 44 47 43 45 49 52 56 57 58
61 44 48 50 53 51 48 53 73 79 82 87 92 95 97 99 99 89 88 88 82 76 68 65 60 54 51 50 57 59 58 58 58 54 57 61 59 62 61 60 60 60 59

GFSMA_prec_cthk_012.txt.gz
RH
45 48 53 52 52 53 50 48 47 45 42 40 41 39 39 40 38 37 37 34 35 33 29 27 26 27 29 31 34 36 37 35 34 33 38 41 46 61 76 85 81 80 77
52 54 55 55 54 55 54 52 50 49 48 48 46 44 40 43 45 44 44 40 40 37 34 30 28 25 26 28 29 32 35 37 38 38 35 39 47 74 75 80 77 80 83
62 61 60 57 57 55 56 55 54 54 54 52 49 48 46 47 45 43 38 37 36 35 35 35 33 32 31 29 26 27 28 31 36 38 39 38 41 61 81 76 83 78 81
65 62 58 60 61 60 58 57 50 49 52 55 53 51 50 49 43 39 34 34 34 35 36 35 37 39 39 38 36 30 27 27 28 32 38 40 40 51 67 71 65 77 87
69 66 65 65 61 61 53 51 48 43 43 40 38 37 36 36 35 38 37 35 33 32 35 34 35 42 41 39 42 43 39 31 27 28 31 36 40 41 53 67 71 74 89
72 74 72 68 64 56 53 51 44 40 37 33 30 29 29 29 30 30 31 30 29 30 30 30 31 30 33 40 43 44 46 44 39 29 29 31 36 40 42 54 63 74 85
72 71 71 61 55 53 50 48 46 44 41 40 36 33 30 31 33 34 33 33 34 37 37 35 33 33 31 35 43 49 54 51 48 45 35 31 32 36 40 43 51 63 77
70 65 59 59 55 54 55 55 53 48 48 45 40 37 34 31 34 36 36 36 36 36 37 39 42 40 36 35 32 38 53 53 54 57 52 41 32 33 35 40 43 46 59
61 57 55 54 55 56 55 54 53 51 46 45 45 48 47 44 41 37 35 36 36 37 39 39 38 38 40 38 37 42 41 49 62 65 61 53 40 33 33 35 39 44 45
51 51 53 54 55 58 57 52 46 46 45 45 45 48 50 47 42 39 41 38 36 33 30 30 32 36 39 42 47 43 43 43 46 70 69 67 54 42 33 34 36 39 45
62 58 60 63 63 52 44 42 45 45 46 46 48 47 46 42 44 41 39 35 34 32 30 30 29 26 29 34 36 43 47 48 56 65 69 74 72 58 43 35 35 37 38
66 62 78 75 61 50 46 45 39 42 42 40 46 48 44 48 49 50 47 36 39 33 32 35 35 33 32 35 36 41 43 47 51 70 74 83 80 74 58 48 41 42 41
78 53 56 58 52 43 30 28 28 29 34 40 43 55 52 58 70 67 59 59 54 42 39 41 47 45 42 44 44 43 43 44 49 66 67 83 93 89 81 65 52 44 45
55 46 53 43 30 26 26 25 26 30 35 42 48 54 59 64 71 71 77 80 79 66 58 58 63 61 56 56 57 56 52 51 49 52 65 83 97 94 87 75 65 56 47
47 55 48 31 28 28 31 37 39 37 33 40 47 54 63 70 79 81 85 90 95 92 75 70 75 82 76 67 65 61 68 59 63 54 59 82 97 98 92 83 78 69 58
54 58 49 44 46 50 54 52 51 41 36 39 40 40 46 48 53 60 65 73 84 93 93 84 76 82 85 82 79 72 69 74 80 72 62 80 89 95 98 98 91 82 69
59 64 71 70 66 68 61 50 48 39 41 44 46 49 52 53 52 48 43 46 54 62 78 78 83 80 79 85 84 76 71 76 90 91 82 82 93 97 98 98 98 96 85
82 78 87 80 72 66 64 56 43 47 43 43 44 46 49 50 45 42 42 38 33 32 42 48 65 74 74 78 82 81 75 73 82 94 98 98 98 97 96 92 91 91 91
81 88 74 81 75 72 74 57 45 42 45 49 52 51 50 47 42 42 43 44 44 42 42 43 42 47 62 65 68 79 80 74 77 85 94 98 96 98 98 94 89 86 83
73 72 84 82 79 80 63 51 49 48 49 51 51 50 49 52 55 56 59 59 58 57 55 54 48 47 51 44 46 60 71 77 76 78 86 91 97 92 94 93 85 81 78
65 79 90 90 80 61 55 55 51 48 49 44 45 59 67 68 67 70 76 76 75 74 71 69 62 57 52 44 40 41 60 65 69 70 77 85 84 90 90 88 81 79 75
82 94 92 80 62 56 57 53 48 45 42 45 63 68 71 71 72 79 83 83 87 85 82 82 76 69 60 52 48 41 46 60 60 59 58 73 82 84 84 82 79 75 72
90 86 79 76 56 54 53 49 46 44 43 61 67 73 74 81 86 86 89 91 90 89 84 82 80 75 67 57 53 46 43 52 57 59 57 57 65 70 75 78 71 66 59
82 81 78 62 54 52 47 44 44 40 55 67 76 81 85 92 95 96 97 94 92 97 91 80 75 73 65 54 51 47 43 48 54 57 61 55 55 59 65 62 61 59 55
77 83 67 54 48 45 45 44 39 40 61 74 82 89 96 96 98 100 98 94 90 93 92 83 80 74 63 56 54 52 48 52 54 52 58 60 56 51 50 49 48 49 50
88 78 56 44 46 46 45 42 38 48 67 77 89 93 96 98 99 99 99 98 88 91 89 80 73 67 60 55 54 49 48 54 55 52 54 63 55 58 55 50 51 51 50

GFSMA_prec_cthk_018.txt.gz
RH
58 55 55 58 58 57 54 50 48 50 50 48 43 42 42 40 40 42 43 48 48 44 41 38 30 28 28 29 28 27 32 37 38 35 32 30 28 38 48 60 73 80 88
63 63 61 63 64 64 60 57 54 52 52 48 41 40 39 38 37 36 35 35 36 37 37 37 35 30 28 27 27 28 28 29 33 37 36 33 32 29 31 41 57 72 80
69 70 70 72 70 70 66 61 58 52 47 41 35 33 32 31 30 30 29 30 30 30 29 28 28 27 27 27 26 25 28 29 28 29 33 36 36 35 33 30 38 49 68
76 76 74 74 75 70 62 55 49 47 43 38 35 34 33 31 30 30 28 26 27 27 26 28 28 26 25 28 28 27 27 29 32 31 28 29 34 37 36 36 34 41 50
77 75 75 78 73 66 52 49 47 44 41 39 38 37 38 38 37 35 32 32 32 31 32 32 30 28 27 25 24 24 26 26 31 33 34 34 29 31 34 37 36 35 43
82 80 72 64 58 52 49 47 46 44 42 38 37 37 38 38 37 36 35 34 32 32 32 33 33 33 33 32 30 29 28 27 27 30 34 38 38 31 31 33 37 37 35
70 62 59 55 51 50 48 44 46 47 47 45 43 41 36 32 32 31 30 33 30 30 32 32 32 32 32 34 35 33 32 32 30 28 28 35 45 43 37 33 34 37 37
56 51 47 46 46 47 46 51 53 51 47 42 37 34 35 32 30 31 27 26 28 25 26 27 27 28 28 29 30 30 30 30 32 33 32 32 38 46 49 41 34 34 37
53 51 51 52 52 51 49 48 45 43 40 35 30 34 37 35 30 25 25 22 25 27 27 27 27 27 26 27 28 29 29 28 30 33 35 35 36 43 46 51 44 36 35
58 58 55 49 46 41 38 38 31 31 30 27 27 30 34 39 41 38 34 33 31 31 28 28 28 28 31 28 26 24 23 24 26 29 33 36 39 42 40 50 55 50 38
53 47 41 37 34 37 39 39 35 30 29 29 32 33 31 35 42 48 44 41 37 38 37 37 35 35 36 35 31 27 26 24 21 24 29 34 39 40 48 44 47 56 55
38 32 30 35 37 41 44 37 38 37 36 35 37 40 42 45 41 45 49 54 60 48 41 42 45 51 49 43 40 34 31 33 30 28 26 30 34 42 49 54 50 53 61
31 30 30 29 41 46 47 46 48 53 52 54 49 47 53 54 49 40 45 45 47 42 39 46 57 62 66 65 55 46 43 39 36 34 31 29 30 37 48 58 59 53 53
33 35 36 39 46 48 53 60 60 59 53 58 63 59 60 53 43 46 46 43 43 40 32 38 46 56 67 81 83 66 57 51 44 39 36 33 32 34 43 55 61 58 56
31 34 39 53 50 55 58 60 64 64 64 65 61 56 46 46 48 49 49 52 56 48 37 32 33 34 47 57 73 82 79 69 61 51 40 37 35 36 39 45 55 60 63
29 35 46 43 48 55 56 56 56 59 64 66 58 47 50 50 52 50 50 53 57 57 47 36 32 32 34 34 47 70 74 79 76 71 60 46 37 39 41 46 50 53 66
24 31 36 45 49 51 57 54 62 72 69 62 47 43 44 46 48 49 47 45 43 47 46 37 38 33 33 36 36 41 64 70 73 77 78 66 55 42 48 52 55 55 60
24 31 37 43 49 54 62 66 72 69 65 45 47 47 47 50 46 40 38 44 55 60 62 58 50 47 47 45 50 46 41 58 64 69 74 75 68 55 49 62 62 60 58
27 32 41 46 52 56 64 74 73 72 55 47 48 48 47 42 38 40 53 60 65 67 72 80 70 66 60 58 57 58 46 40 41 56 62 66 70 65 55 67 75 69 66
29 33 45 51 57 63 73 76 75 69 48 46 48 46 41 40 41 57 66 73 78 83 90 93 88 88 83 77 73 70 67 51 42 37 49 50 63 67 60 76 88 77 76
32 38 44 55 63 72 74 75 77 56 42 43 43 38 38 39 62 73 80 84 89 92 96 95 97 96 93 90 85 86 83 72 54 42 32 34 48 67 67 86 98 92 82
37 41 49 60 68 72 77 83 60 42 41 41 37 36 36 51 70 84 88 94 98 98 98 98 97 96 93 93 95 94 90 85 69 56 40 31 35 61 72 87 97 98 91
43 48 55 61 71 79 83 63 46 40 40 39 37 38 41 66 80 85 90 96 98 98 99 98 98 98 97 93 89 96 97 90 79 66 49 34 33 47 73 88 97 96 95
49 54 62 70 76 76 57 47 41 39 40 38 38 40 54 76 86 91 96 97 97 98 99 98 97 92 91 93 97 92 92 86 76 65 51 38 35 36 62 76 94 95 96
54 63 69 72 64 53 49 43 42 42 40 39 40 44 63 83 91 96 97 97 98 98 96 91 90 95 95 92 99 92 84 81 74 65 55 43 39 38 55 59 69 88 94
59 63 61 56 54 50 45 44 44 43 40 39 42 46 68 87 94 96 98 98 98 98 91 87 85 92 95 89 88 87 79 82 75 66 56 49 46 45 53 56 53 60 70

GFSMA_prec_cthk_021.txt.gz
RH
63 59 60 61 62 63 62 64 62 56 53 49 44 41 38 33 29 28 28 29 28 30 31 34 37 37 34 32 31 28 24 24 26 31 36 35 32 31 33 53 69 72 83
76 72 71 71 69 67 66 68 67 59 53 50 43 36 32 30 27 26 24 23 23 23 24 25 25 27 29 29 28 27 29 26 25 26 27 33 37 35 32 29 40 58 68
83 81 82 76 73 71 73 63 60 57 51 43 38 35 33 31 29 29 28 28 26 24 22 21 22 23 24 25 26 27 26 26 27 27 28 28 29 35 37 34 32 36 47
88 86 82 74 74 67 65 62 60 53 45 41 40 38 36 34 32 32 32 31 31 29 27 26 25 24 22 22 22 23 25 28 26 26 30 30 29 31 32 36 38 37 36
80 78 73 81 74 62 56 51 48 46 43 41 41 41 40 38 38 36 35 33 31 31 29 27 27 27 27 26 25 25 24 24 24 25 26 27 31 32 33 32 36 41 39
70 65 61 59 56 52 48 46 46 45 42 38 36 36 34 31 30 30 29 27 26 25 26 25 24 25 25 25 25 27 28 28 28 27 27 27 29 31 34 38 35 34 41
60 61 59 55 50 48 47 46 45 44 40 35 30 28 25 21 27 26 20 20 23 21 21 20 19 20 20 20 20 22 24 27 28 30 30 29 30 31 35 39 45 38 34
59 56 54 54 54 54 52 47 40 31 27 24 21 23 24 25 27 26 29 25 26 21 23 22 21 21 20 19 17 18 19 22 25 27 27 30 31 33 31 35 42 50 42
57 55 53 52 48 43 38 34 30 28 26 25 24 30 33 32 37 30 31 31 32 32 31 30 29 27 25 23 21 19 18 20 23 25 28 27 27 31 34 34 38 44 50
56 50 45 40 34 29 27 27 29 30 29 30 31 36 36 38 44 42 44 45 39 35 35 34 31 29 29 28 28 26 24 23 23 23 27 29 29 27 31 35 36 41 45
42 35 31 27 25 24 27 33 33 32 35 37 41 43 43 50 54 61 51 48 46 45 43 39 36 38 35 38 38 35 31 30 28 28 28 29 32 32 28 31 35 37 41
34 32 32 31 29 30 37 43 43 46 48 44 45 48 49 53 53 57 61 61 53 44 39 39 36 40 41 43 48 52 43 38 37 36 32 30 29 31 36 32 31 36 42
35 30 27 29 33 41 50 49 48 49 41 41 44 49 52 53 47 50 56 52 49 37 37 37 36 33 34 46 50 48 57 54 50 46 40 35 30 28 28 36 35 38 43
29 24 24 29 36 45 43 48 44 40 42 42 43 49 52 53 43 43 44 49 47 46 42 44 40 39 34 34 35 41 50 68 66 58 52 44 36 30 28 31 35 41 46
25 22 24 31 36 34 38 42 43 47 48 50 54 55 50 39 38 41 45 49 54 48 41 35 34 38 39 37 33 33 38 48 67 74 66 54 47 38 32 31 33 39 49
23 22 22 30 35 39 46 50 51 50 51 58 58 55 41 39 42 45 47 50 52 48 40 36 35 38 39 39 39 36 33 34 42 63 74 68 61 52 41 34 35 37 42
26 24 25 30 37 41 48 50 53 54 60 66 65 60 42 41 44 50 49 46 43 47 51 42 53 53 50 52 50 47 40 40 41 47 66 69 69 65 55 42 38 41 45
27 25 26 31 37 42 50 51 53 65 73 70 69 51 42 44 48 46 44 44 53 65 70 65 67 69 71 69 64 60 54 59 52 44 44 61 67 70 65 56 45 44 53
27 28 30 34 41 52 55 55 60 73 71 76 69 44 41 45 43 40 42 54 69 78 83 81 74 81 82 80 82 81 74 65 64 49 38 45 57 64 69 62 54 49 58
28 30 33 37 42 50 62 65 71 75 79 72 43 40 41 39 39 41 51 71 80 85 89 92 88 87 90 92 93 91 89 84 75 64 49 40 43 50 60 68 59 58 58
31 33 36 38 45 57 66 72 75 79 68 44 39 39 38 36 37 45 67 80 86 90 94 96 93 92 93 95 97 97 98 96 88 76 62 53 42 38 55 63 69 66 69
32 36 40 45 53 59 67 73 76 57 44 40 39 39 36 37 45 59 76 86 90 95 97 98 97 98 96 98 99 99 99 99 95 89 74 69 50 45 42 55 66 71 75
33 38 44 49 59 66 69 63 48 43 41 39 41 38 39 43 49 68 82 90 95 98 99 99 97 92 90 97 97 97 98 99 95 92 82 75 61 48 41 45 63 68 85
35 42 48 55 61 61 55 48 42 41 40 43 40 39 42 45 55 75 86 91 95 98 99 99 91 90 90 92 95 94 92 92 94 96 88 81 68 52 43 34 58 73 96
41 47 53 55 54 50 49 43 42 40 46 43 40 43 43 48 59 79 86 78 71 94 98 98 88 83 86 94 96 95 99 99 95 94 89 79 67 57 46 36 45 80 98
45 51 56 58 53 52 47 44 43 47 47 42 41 39 40 50 62 71 73 72 73 91 96 97 87 81 84 94 95 95 96 94 94 95 89 79 69 59 50 40 43 70 91

GFSMA_prec_cthk_024.txt.gz
RH
72 75 73 73 72 73 68 65 63 60 54 51 50 44 42 40 35 31 29 25 23 22 21 21 22 24 26 28 28 30 34 37 34 30 27 25 29 33 33 33 39 56 71
87 86 83 79 81 77 74 72 65 59 54 54 53 46 43 39 34 31 29 29 26 24 24 23 22 20 21 22 23 25 27 28 30 31 31 29 27 26 32 35 34 34 56
93 93 90 84 80 73 72 68 64 60 54 51 48 45 42 38 35 32 31 31 32 30 28 27 25 24 22 22 21 21 23 25 27 30 31 30 31 30 28 29 36 35 31
91 90 84 74 70 63 60 62 58 52 50 46 43 40 36 34 31 31 32 31 32 32 32 27 24 26 25 24 22 22 23 23 23 24 28 31 31 31 33 31 27 33 36
84 72 67 62 58 56 53 53 52 48 42 42 37 33 30 29 25 22 26 30 27 25 24 25 20 19 20 21 22 22 22 22 23 25 26 26 27 31 30 31 31 29 30
62 58 57 55 53 52 51 50 47 45 45 43 37 28 27 24 24 27 32 29 26 29 27 25 23 20 18 16 15 16 18 19 20 22 25 27 27 28 32 32 33 34 32
56 55 56 57 55 55 52 51 50 44 40 35 30 27 25 26 36 37 36 32 31 31 32 30 30 30 28 24 20 20 14 15 16 19 21 22 26 28 29 33 35 35 40
63 64 64 62 56 52 48 42 34 29 31 33 32 27 27 26 30 46 37 36 35 36 33 33 33 33 33 32 32 23 22 17 16 16 18 22 21 24 29 31 34 35 35
65 62 57 52 43 37 32 30 31 30 32 28 30 30 34 32 34 35 40 41 44 40 39 38 40 35 35 34 37 39 33 23 19 18 18 23 26 23 23 31 34 36 37
58 51 43 36 35 32 31 34 32 34 36 34 33 37 37 39 43 42 46 51 53 45 48 46 49 44 46 44 46 42 37 29 25 23 24 26 26 27 28 28 33 37 39
50 46 41 37 35 35 37 34 35 41 43 42 40 39 42 45 49 54 52 48 46 47 50 48 44 44 46 45 46 48 38 36 36 32 30 34 31 29 28 30 32 34 38
54 52 49 43 34 31 33 36 43 47 48 43 41 43 49 51 52 54 56 54 50 42 50 51 51 51 47 43 39 36 33 35 37 38 42 47 39 31 28 26 31 32 33
48 44 35 33 37 36 37 46 47 46 46 45 46 52 57 58 60 62 58 51 48 41 43 47 50 53 54 52 44 41 40 32 33 41 47 51 51 42 34 29 29 34 33
38 33 31 31 36 40 43 47 47 47 53 53 55 56 59 62 62 60 54 54 50 45 42 46 47 48 49 50 48 36 37 36 34 39 49 58 57 51 43 35 30 31 32
37 38 33 35 40 47 48 47 47 47 60 57 58 61 64 68 67 64 56 56 60 54 43 43 45 47 46 46 45 43 39 37 37 36 37 48 63 61 54 44 34 30 32
37 34 32 32 35 40 46 47 46 53 61 56 60 68 73 73 71 61 56 58 60 58 48 46 47 56 59 56 54 53 52 46 40 32 31 31 46 65 63 55 44 33 31
39 35 32 29 35 42 44 43 47 57 56 58 68 72 74 78 73 53 54 58 57 56 53 42 59 65 67 66 66 67 64 61 57 50 45 40 36 46 67 62 56 43 32
42 35 33 37 37 39 41 52 55 53 60 67 72 76 82 70 51 52 54 51 49 51 58 62 71 73 75 76 76 74 71 70 72 68 67 57 45 38 52 67 62 53 40
39 34 39 40 38 40 36 43 60 63 69 74 78 81 66 46 46 48 46 46 50 57 73 78 77 83 84 85 82 83 83 82 78 79 77 65 52 38 39 57 66 63 51
37 40 41 38 37 39 45 50 59 68 74 76 72 50 41 42 43 42 40 47 54 71 82 84 85 87 89 89 88 87 84 87 90 92 89 76 61 46 37 40 56 64 60
39 41 40 41 42 43 46 53 65 69 69 57 42 42 41 43 39 39 44 52 67 80 86 88 90 92 93 93 88 86 85 88 92 96 97 92 76 63 57 51 47 59 61
41 39 40 43 43 45 48 56 61 58 48 40 41 40 45 43 43 41 46 59 76 85 88 91 93 94 95 88 84 85 88 95 95 97 98 98 92 71 65 63 59 53 62
37 38 42 43 47 50 50 53 49 44 40 42 42 46 44 43 45 48 54 68 82 80 75 83 94 97 94 84 84 88 89 93 98 98 98 98 94 82 68 62 49 35 55
40 40 47 46 49 49 49 46 44 40 42 44 49 46 43 43 47 49 57 69 78 84 78 90 97 97 90 80 84 91 94 95 92 94 97 96 95 84 71 63 48 35 50
41 42 49 52 54 54 48 47 44 42 47 51 49 45 42 41 45 48 51 71 82 81 81 94 95 93 82 75 85 92 94 94 96 94 90 91 90 78 68 61 48 37 48
41 44 51 55 58 57 49 49 45 45 49 53 47 43 41 40 39 50 51 65 82 81 77 95 95 96 87 78 87 92 95 97 98 98 98 97 94 86 78 64 51 43 47

GFSMA_prec_cthk_027.txt.gz
RH
79 79 83 84 87 82 80 78 73 68 66 60 52 50 48 46 44 42 40 35 30 27 25 25 24 23 22 21 23 24 23 23 25 25 27 30 33 30 27 28 31 37 44
83 82 86 90 95 89 84 74 63 57 57 59 56 49 47 44 41 40 41 36 30 30 29 27 26 25 24 23 22 21 22 24 23 24 24 25 26 28 30 29 26 29 34
83 86 86 89 89 83 69 57 52 53 51 51 48 45 43 41 35 36 35 34 38 37 36 31 26 25 24 23 22 22 22 23 22 22 23 26 26 26 26 28 32 29 29
81 85 84 79 70 62 55 54 53 50 49 46 44 42 38 31 28 29 26 27 35 37 37 33 30 24 21 19 20 20 20 20 20 21 23 23 24 25 27 27 28 30 30
74 69 62 57 55 54 52 51 51 48 48 45 39 39 35 28 30 30 30 32 40 40 39 34 34 28 23 22 19 20 22 25 25 24 23 24 24 25 23 25 27 29 31
58 58 53 51 54 56 56 54 50 46 43 39 34 34 32 30 26 33 38 40 42 40 40 40 38 37 37 33 28 23 27 22 22 25 26 25 25 26 24 25 25 27 28
53 54 58 61 62 63 58 53 46 39 37 34 33 33 30 26 29 29 36 45 40 38 39 40 42 43 38 40 40 40 29 25 25 23 23 23 23 23 23 23 27 28 28
63 66 67 69 66 59 49 41 42 38 37 33 31 34 33 28 30 35 38 39 40 41 45 46 41 41 45 41 42 40 43 36 25 22 17 17 23 23 23 24 23 28 29
66 68 66 61 54 47 45 42 41 40 35 35 37 38 36 35 35 34 34 36 39 44 46 48 50 46 48 47 47 48 45 40 33 26 23 24 26 29 26 23 24 28 31
65 58 55 52 48 46 46 45 42 40 38 43 41 40 41 41 39 35 39 40 41 44 46 45 52 52 45 41 49 46 44 42 37 28 27 29 34 33 33 29 25 25 28
57 54 53 52 51 48 47 44 42 41 44 44 44 42 41 42 41 46 44 44 44 46 49 51 51 51 46 46 50 49 52 39 33 27 27 34 35 37 36 33 29 26 25
56 53 50 43 41 44 46 46 49 48 48 46 43 47 47 46 46 51 51 47 46 40 45 43 46 48 49 49 49 52 49 44 38 33 27 27 33 37 42 40 32 29 28
54 50 42 40 39 41 40 49 44 54 46 54 58 59 56 53 55 58 61 56 53 46 44 47 50 53 55 53 49 49 45 45 41 36 30 29 29 34 42 40 32 29 26
49 44 43 43 43 43 43 48 50 53 53 57 58 68 72 70 67 68 70 69 58 50 49 52 53 52 52 56 48 43 42 39 36 34 32 35 35 32 40 49 38 33 31
46 43 45 45 43 41 44 51 55 51 53 49 66 75 70 60 68 74 74 72 75 59 50 54 54 54 56 52 52 52 52 47 45 41 36 33 33 31 32 43 54 42 36
47 48 50 48 46 44 47 45 46 40 56 60 73 73 60 66 75 77 77 76 64 63 55 54 49 49 52 59 63 61 58 56 52 52 50 44 34 28 26 25 43 55 43
51 53 52 50 51 50 47 42 37 38 48 69 64 57 67 73 75 77 79 59 57 59 57 42 45 49 62 66 69 70 67 64 62 62 59 57 51 40 36 28 28 51 57
57 57 54 50 51 48 49 45 40 35 56 68 69 64 70 75 74 64 49 51 51 50 49 46 42 59 70 74 74 75 75 77 73 69 69 72 64 62 52 40 28 28 59
60 57 51 55 53 54 52 43 38 46 52 59 66 69 70 66 47 46 46 47 46 47 49 51 55 70 75 78 78 81 81 80 80 77 76 78 75 71 66 50 37 26 45
60 54 52 55 55 53 47 46 46 48 59 65 66 63 49 43 44 42 43 42 45 45 49 58 72 78 80 84 86 85 86 81 74 70 75 82 87 83 74 58 41 28 31
58 51 55 54 52 52 43 41 48 50 53 58 55 45 43 42 41 41 42 40 47 50 57 70 78 73 75 87 87 86 83 74 71 75 81 83 93 95 86 79 57 40 33
52 55 55 52 50 52 40 41 45 46 48 47 44 43 44 48 50 47 45 43 48 56 64 76 79 75 82 91 91 90 77 75 75 81 89 92 95 99 96 91 82 74 58
54 57 55 54 53 54 41 43 44 40 42 47 45 44 47 51 51 46 44 45 52 59 74 82 82 81 90 91 92 79 76 82 83 86 92 89 96 98 97 92 78 59 52
59 55 57 55 55 52 48 46 46 42 45 49 48 50 53 52 46 39 38 45 51 62 80 83 77 85 92 88 87 73 79 83 84 87 88 92 87 90 93 89 71 57 46
55 57 54 54 53 54 53 55 48 46 48 49 52 52 52 42 41 33 33 45 49 64 73 75 74 89 87 84 80 74 82 87 89 93 94 91 90 92 88 82 69 55 47
58 57 52 52 54 61 54 57 48 46 47 48 52 54 51 40 37 31 32 39 48 63 68 68 81 91 90 92 85 76 86 91 96 91 96 99 95 93 87 87 79 62 51

GFSMA_prec_cthk_030.txt.gz
RH
73 70 71 73 71 78 82 83 79 68 59 52 48 48 46 46 45 43 41 39 38 34 33 32 31 29 27 26 25 25 25 25 26 27 26 27 26 24 25 27 29 27 26
68 70 75 77 74 74 71 70 63 61 52 46 45 45 43 41 40 39 36 33 33 30 32 34 33 30 27 25 25 24 23 24 24 23 25 26 27 26 25 24 25 26 28
59 66 68 70 72 68 64 66 57 48 46 43 42 40 37 38 36 30 26 28 26 28 38 41 34 32 28 25 23 24 24 22 21 22 24 25 25 25 26 27 26 25 26
61 65 65 72 59 54 49 46 48 47 44 43 38 35 33 31 30 27 27 26 28 32 38 41 40 35 32 27 27 25 24 27 26 25 25 23 24 28 25 24 28 27 26
63 60 52 48 45 45 46 49 50 51 48 37 33 31 31 30 29 26 28 35 41 44 45 43 42 42 40 38 34 30 29 34 32 33 33 27 25 22 27 27 22 27 30
48 46 46 45 47 52 55 56 55 51 43 35 33 31 31 30 25 26 32 36 35 40 43 42 42 40 39 37 38 40 43 41 37 33 33 32 24 24 20 22 25 24 24
45 47 50 53 57 60 57 50 42 38 36 36 33 31 27 26 26 26 27 30 35 40 42 42 42 41 38 32 34 41 40 36 40 36 33 29 27 24 27 20 19 23 25
53 57 59 61 59 49 45 42 37 35 36 36 33 30 31 30 29 30 29 30 33 37 40 44 44 42 42 41 37 33 42 40 40 39 37 32 29 32 32 32 22 19 24
63 61 63 59 49 48 45 38 35 38 38 36 33 37 36 37 34 31 30 27 25 26 32 34 39 41 45 41 40 33 32 39 36 29 27 29 32 34 40 35 35 24 22
64 65 58 52 53 47 38 35 37 41 40 38 38 36 34 36 35 32 35 33 32 31 29 31 37 40 41 40 38 35 35 36 34 31 30 29 28 33 38 46 40 34 25
67 61 55 54 47 42 35 36 44 46 44 42 38 37 36 40 40 41 38 34 29 30 31 38 41 42 41 40 38 40 43 41 37 36 33 30 27 25 34 40 45 43 36
65 58 52 44 40 35 35 37 43 48 47 44 45 46 51 52 53 55 48 43 43 38 38 39 43 45 43 42 44 46 46 43 42 40 36 33 31 32 30 39 40 45 43
63 57 44 41 39 37 39 39 47 48 47 46 54 52 58 58 65 65 65 55 53 45 45 46 49 49 46 45 46 48 44 40 39 38 35 33 31 30 34 37 34 40 42
66 52 42 47 41 41 41 45 50 50 49 52 53 54 60 66 75 76 75 63 58 54 51 53 47 46 48 48 51 45 40 38 39 39 37 36 33 32 31 33 32 34 42
50 45 47 43 47 47 47 46 47 50 47 47 53 60 66 68 75 76 66 70 78 72 56 53 43 48 53 49 43 39 39 43 44 44 43 41 39 37 38 34 30 26 38
44 46 46 52 53 51 54 56 50 43 43 40 49 59 66 72 75 62 62 70 78 77 55 43 45 49 44 40 33 37 46 50 48 49 47 46 48 47 44 42 34 27 27
48 48 55 58 55 56 56 53 50 40 38 40 38 45 61 65 67 68 69 70 63 49 46 41 41 39 37 37 38 49 53 52 51 55 59 57 57 58 55 52 47 39 28
57 57 64 63 57 56 57 55 46 49 46 48 46 53 61 64 61 64 60 42 37 39 42 42 40 37 40 43 54 58 60 62 63 64 62 64 63 62 59 58 61 53 41
56 69 67 61 58 61 61 54 54 52 51 47 49 49 50 52 52 42 36 37 37 39 41 40 37 38 46 57 61 61 64 69 73 71 70 67 67 67 69 70 69 66 56
67 70 67 60 62 65 64 56 56 51 44 47 48 47 47 41 37 37 38 38 40 40 38 39 42 46 54 63 68 67 72 76 74 70 65 55 53 58 68 73 73 70 61
66 70 65 65 69 64 62 54 58 49 43 44 42 44 42 39 38 38 40 43 41 39 40 43 47 53 65 68 70 79 84 78 73 69 60 57 67 71 70 76 82 78 76
80 72 70 66 64 64 58 56 55 46 40 37 37 42 40 40 44 46 46 42 41 40 43 51 56 67 74 78 83 87 83 80 66 57 66 58 71 71 82 93 93 92 92
72 64 67 69 69 64 58 56 53 47 40 38 42 42 40 44 45 47 43 39 33 39 48 53 62 72 75 77 83 79 76 73 62 62 66 58 70 74 88 93 90 84 93
68 72 72 66 64 67 56 53 51 51 47 42 46 42 42 46 46 42 37 31 30 35 45 55 63 67 70 83 83 79 78 63 71 73 77 73 81 77 83 82 81 82 81
67 65 68 69 63 63 54 48 52 55 51 43 44 43 43 50 44 42 36 30 30 34 43 49 52 63 79 87 87 86 82 72 77 81 85 84 90 86 83 79 81 75 78
70 71 70 69 66 56 52 53 56 56 48 46 46 46 45 50 45 40 33 30 29 34 37 45 54 71 84 90 88 88 85 74 85 83 89 93 93 93 86 88 95 93 82

GFSMA_prec_cthk_033.txt.gz
RH
62 67 66 68 68 69 71 73 63 60 57 49 46 40 37 36 36 34 34 32 28 28 30 30 34 35 34 31 29 27 27 25 24 24 24 24 25 28 30 30 30 33 32
56 57 61 62 64 64 66 59 56 49 45 45 44 36 32 30 31 31 30 25 25 26 26 31 35 34 33 32 29 26 23 22 22 23 24 24 23 24 27 29 29 30 32
54 55 57 59 61 63 60 51 45 42 41 39 38 35 33 31 30 28 25 26 26 27 29 34 37 36 36 33 33 33 32 31 27 24 27 28 29 26 24 26 28 29 31
53 55 60 57 50 45 41 40 41 41 43 40 34 31 31 30 30 27 26 27 33 38 39 39 40 39 40 41 40 36 35 38 38 37 33 26 26 27 29 27 27 25 28
54 57 53 47 44 41 41 45 46 44 36 33 31 29 30 30 30 27 29 31 34 37 40 40 39 39 39 40 39 41 42 38 40 38 36 32 32 23 19 23 27 28 26
50 49 45 44 46 50 52 51 44 41 36 31 29 30 30 27 26 28 28 29 31 35 35 36 37 37 37 38 38 40 43 45 39 34 33 32 34 30 23 21 23 27 28
44 45 47 51 55 56 54 47 41 39 33 30 28 29 27 28 28 28 26 26 27 29 32 35 38 38 37 39 41 40 39 40 38 34 32 40 33 29 26 30 24 23 25
48 52 56 56 58 54 48 43 40 36 32 32 32 33 31 31 31 31 30 29 30 29 31 35 40 41 41 40 40 39 36 31 29 27 30 35 35 28 28 31 35 29 23
51 54 54 57 58 56 48 42 37 35 35 36 35 36 38 36 33 32 31 29 25 25 27 26 27 31 31 31 32 34 34 32 28 28 28 28 33 36 32 32 35 39 33
56 54 58 64 57 53 51 44 37 36 36 36 36 39 40 40 40 34 35 33 34 35 31 27 24 25 27 32 35 37 36 34 31 30 31 32 32 37 39 33 31 40 44
50 56 62 64 57 52 52 39 34 37 40 42 45 49 48 46 41 42 36 40 45 43 39 35 30 31 34 35 37 42 43 39 34 33 35 38 37 36 39 39 38 37 42
59 62 65 62 56 53 39 33 35 38 42 46 50 50 48 49 50 53 51 51 48 43 46 44 38 38 39 42 42 43 40 37 38 38 37 39 37 36 36 38 39 40 42
64 64 66 63 55 36 33 37 41 44 44 47 49 51 54 55 60 62 63 61 59 49 46 49 45 45 47 49 35 39 38 37 33 34 35 35 36 38 38 38 39 39 43
66 63 67 60 45 42 43 42 44 48 51 53 52 53 55 59 61 61 64 67 69 60 49 45 46 52 54 39 39 42 41 39 36 33 33 36 40 40 39 40 39 43 40
65 61 56 64 63 54 47 48 53 54 52 54 52 53 55 52 59 61 69 68 73 66 46 46 52 46 38 40 42 40 36 32 30 31 36 40 41 42 42 44 46 47 47
76 67 53 57 56 52 48 57 59 57 55 54 49 45 46 46 48 54 67 68 67 70 57 51 37 34 36 38 37 34 32 31 35 40 42 43 46 47 47 47 50 50 49
86 64 56 59 63 58 55 60 58 56 54 50 52 51 51 51 53 61 66 64 68 57 41 32 32 33 34 33 30 31 36 41 45 47 49 49 50 52 54 52 52 49 49
81 70 64 62 63 65 61 62 59 62 61 58 56 57 54 53 49 52 51 45 36 32 33 31 32 33 31 32 36 38 42 46 48 52 55 58 59 66 65 62 59 59 54
75 72 63 62 73 72 68 68 65 68 66 61 57 53 49 44 41 36 31 31 34 33 33 37 34 31 34 37 41 45 51 53 56 59 63 64 64 63 60 54 59 63 66
84 72 61 70 80 71 68 73 67 71 68 62 54 52 42 39 37 36 35 34 35 36 37 34 32 34 39 45 52 56 57 60 62 66 64 62 64 60 54 52 52 53 62
79 65 77 78 64 74 78 71 69 76 71 59 49 43 39 36 37 35 33 35 39 39 36 32 35 39 43 50 58 61 62 64 65 61 59 57 51 47 46 51 54 62 65
76 83 74 78 80 78 75 75 74 74 65 53 43 37 38 39 38 36 36 40 43 39 32 31 38 43 48 58 61 63 71 68 61 59 58 46 53 48 50 55 66 81 83
84 79 85 83 77 79 82 72 73 66 56 52 50 42 41 42 39 39 42 43 38 33 30 34 41 48 50 58 62 72 74 72 69 61 61 57 59 56 58 61 76 85 89
84 84 80 78 78 76 73 69 59 57 55 54 56 45 44 45 43 42 44 40 34 31 30 34 43 45 47 54 72 82 81 75 70 61 70 64 67 67 70 73 82 85 87
82 78 76 75 74 71 63 57 54 55 59 60 59 46 47 47 45 45 43 38 32 31 31 34 39 45 51 63 80 87 84 78 70 61 72 79 74 74 76 76 86 90 85
76 71 71 69 58 55 53 51 50 55 60 64 55 49 51 50 47 48 40 36 33 32 32 34 37 43 52 65 82 88 84 79 74 62 71 80 83 84 79 80 82 88 89

GFSMA_prec_cthk_036.txt.gz
RH
63 57 53 52 56 56 58 59 61 54 49 43 37 35 34 33 31 29 28 27 26 23 25 27 30 32 34 32 31 30 28 26 23 22 24 25 25 25 25 27 29 29 29
54 55 52 53 54 57 58 58 54 44 39 36 36 35 31 30 29 29 27 25 24 24 25 28 30 33 33 35 34 33 32 30 27 26 25 23 24 25 26 25 26 27 28
48 51 52 53 54 56 53 46 38 36 38 37 37 33 29 27 27 26 24 24 24 29 33 37 36 37 36 36 33 31 33 32 34 32 30 27 23 20 19 23 24 24 25
48 50 51 53 53 49 40 37 37 40 40 40 35 32 29 27 27 27 27 29 31 33 38 37 35 35 36 38 41 41 40 41 41 39 36 31 24 23 19 18 23 26 25
50 50 51 49 43 40 38 41 44 45 41 36 39 35 32 30 28 28 30 31 33 35 38 38 36 36 36 36 37 37 39 40 42 41 35 35 33 29 23 19 23 25 26
46 47 45 41 41 40 45 47 48 46 43 42 40 36 34 31 32 33 31 31 32 33 33 34 34 33 33 32 33 34 35 37 41 42 41 38 32 28 26 28 24 25 32
43 43 42 42 46 49 51 51 54 50 47 44 39 37 34 36 35 34 36 35 33 31 30 30 31 31 32 34 35 36 36 40 42 39 34 31 35 30 25 29 28 24 32
43 42 45 48 52 55 57 58 52 49 46 46 41 39 37 36 37 36 36 34 32 30 28 27 27 26 28 29 28 29 31 30 31 32 32 30 29 35 29 29 29 30 30
45 47 51 55 60 64 68 59 54 51 49 45 41 40 41 43 41 40 41 41 41 39 37 39 33 28 25 25 24 24 24 27 30 32 31 31 30 33 36 36 35 31 30
51 54 55 56 61 64 63 62 60 55 45 40 41 42 44 47 46 43 45 48 47 47 43 39 36 32 32 30 25 24 25 28 33 35 35 36 33 37 39 41 36 36 33
55 57 57 58 62 63 64 64 64 51 47 46 47 52 53 51 48 51 50 47 49 49 47 51 45 42 42 40 38 31 32 31 32 37 40 38 37 36 41 47 46 36 36
59 64 69 73 72 61 63 52 50 50 47 48 49 50 51 51 53 53 50 50 51 50 55 57 57 49 42 42 36 37 40 36 33 34 37 38 34 34 40 42 44 42 38
69 67 71 72 76 71 57 44 45 46 46 49 51 52 54 54 55 57 57 56 56 52 56 51 55 51 45 40 42 41 39 33 33 35 36 37 37 35 33 36 43 43 41
69 78 83 86 73 66 65 56 44 50 54 54 54 57 57 57 58 56 61 59 57 55 52 52 49 46 44 43 38 34 33 35 36 37 37 33 28 30 35 40 42 43 42
78 85 77 74 70 74 70 60 56 56 56 58 58 58 56 52 52 58 60 59 62 62 53 53 50 46 40 30 27 28 28 29 29 27 27 27 34 39 44 46 47 47 47
74 84 76 81 73 64 61 60 63 63 60 61 58 57 52 53 57 62 67 66 65 63 60 57 47 33 26 24 24 27 28 26 26 28 31 34 38 45 45 47 48 47 47
75 84 78 82 73 63 62 67 74 65 63 66 72 66 62 64 64 61 58 54 59 63 56 35 28 25 25 27 28 27 28 29 32 35 38 41 43 46 45 49 51 50 51
81 76 79 76 72 67 66 73 76 69 75 77 76 76 67 64 64 58 49 44 40 36 34 31 26 28 31 30 29 30 32 35 39 43 46 47 47 49 50 54 55 52 48
72 76 76 78 74 71 75 75 73 79 77 81 84 73 68 65 56 45 40 38 35 36 35 32 30 33 28 29 31 34 38 42 45 46 47 50 53 54 55 57 55 53 50
78 82 81 75 74 79 82 76 81 78 86 86 80 75 69 54 44 39 38 37 36 35 35 35 34 29 27 31 37 41 38 45 46 53 53 57 58 57 55 54 52 50 50
84 90 82 80 83 83 84 85 86 87 85 79 81 69 52 45 40 39 37 36 38 36 39 34 31 27 30 36 41 44 46 49 59 57 60 61 58 53 48 44 42 42 45
96 93 89 88 84 84 83 84 83 84 84 73 65 55 52 49 45 40 39 40 40 42 38 33 28 28 34 39 43 46 49 62 66 64 65 56 59 50 46 45 44 43 50
95 92 91 86 81 80 77 72 75 68 62 59 54 53 55 56 47 44 44 44 44 43 38 31 28 31 33 39 42 48 61 70 72 67 63 54 57 53 54 57 58 53 58
92 89 83 78 71 63 63 62 56 56 55 53 55 57 60 59 47 47 47 46 45 40 35 33 33 33 35 40 48 57 70 75 73 68 67 55 57 59 62 62 66 70 72
83 71 64 60 58 52 52 50 48 50 52 54 56 60 64 57 50 50 49 47 44 38 37 37 37 37 36 42 51 60 73 76 73 67 68 69 65 64 67 65 66 74 73
60 53 49 49 41 36 38 42 47 52 56 58 58 64 61 52 53 53 52 50 41 39 41 39 39 38 37 40 45 58 73 80 80 72 76 70 68 73 70 72 72 75 74

GFSMA_prec_cthk_039.txt.gz
RH
55 59 54 55 54 52 55 56 54 54 48 43 37 33 32 29 26 23 22 22 21 20 23 29 29 31 31 31 30 30 29 25 25 26 25 22 21 22 22 22 22 22 23
51 51 51 53 52 52 56 55 51 51 42 36 35 35 31 26 24 23 21 20 19 21 24 31 32 35 35 35 35 36 36 34 33 29 24 23 23 21 19 18 19 20 21
49 50 51 50 51 53 58 54 49 41 38 38 39 33 29 27 26 24 22 22 24 26 30 32 35 38 38 41 42 42 42 42 38 37 34 32 27 24 21 19 17 16 17
47 48 50 52 52 54 56 46 39 41 39 40 36 34 31 30 30 28 26 28 29 30 33 33 33 33 35 36 38 38 39 41 41 41 42 39 35 30 26 17 19 21 23
47 49 52 54 53 49 44 40 43 43 39 37 38 37 37 36 35 30 31 31 33 35 36 38 37 36 35 35 36 37 36 38 38 38 38 38 35 32 33 21 19 20 22
46 50 53 52 46 40 40 41 45 44 41 40 41 42 41 41 41 36 34 35 34 35 35 35 34 33 33 34 33 33 37 39 38 37 39 36 33 34 30 24 26 27 27
50 51 49 43 41 39 42 47 48 46 46 47 50 49 47 46 40 39 40 39 39 38 37 36 33 32 30 30 31 31 31 29 28 29 29 31 30 29 30 27 26 26 27
47 46 42 39 38 41 49 51 50 51 51 55 53 55 53 50 51 49 47 48 46 44 42 42 42 41 37 33 32 28 26 26 27 27 29 31 31 31 32 35 31 31 30
45 40 40 41 44 51 54 53 54 55 61 61 56 57 58 57 55 53 53 52 52 52 53 52 51 46 42 39 36 33 34 32 30 32 32 35 34 32 36 37 35 35 34
44 44 47 51 58 62 66 69 76 66 58 53 49 49 55 57 59 58 59 58 60 58 57 56 55 55 52 47 42 39 38 34 32 32 32 36 34 35 41 40 38 37 37
49 52 56 60 64 74 77 77 77 69 57 54 57 58 55 55 61 64 59 58 58 58 58 60 60 61 60 53 47 46 43 39 32 29 29 34 35 35 40 42 40 40 38
59 64 68 67 71 77 87 81 75 63 52 55 61 62 65 63 65 65 61 59 55 55 56 63 67 68 67 63 56 48 43 36 31 29 28 29 33 33 35 37 40 39 39
75 76 76 75 87 78 93 79 62 66 58 62 55 60 63 66 68 63 61 61 57 56 63 61 66 72 68 62 52 47 40 31 29 29 29 31 31 35 34 31 29 32 33
79 77 80 83 89 85 80 78 74 74 65 51 58 64 70 69 65 58 60 64 69 75 69 68 72 71 65 61 59 47 29 21 22 23 23 23 23 27 28 28 31 35 36
85 82 88 86 85 86 83 79 73 66 64 66 68 71 75 71 66 65 66 70 75 73 72 71 67 60 52 44 42 30 20 20 20 22 25 26 32 33 35 39 40 40 41
84 88 90 79 86 81 82 77 68 66 73 75 74 74 69 69 66 69 70 67 69 73 65 56 42 37 34 29 23 22 23 25 27 28 28 28 32 36 40 43 43 43 43
86 81 77 78 83 81 81 80 75 77 82 75 73 76 72 74 73 66 66 68 64 58 48 32 29 29 25 24 24 25 27 28 28 30 31 33 37 38 39 40 41 44 44
86 84 90 92 90 87 84 80 84 86 80 76 76 79 81 78 73 69 66 60 54 45 39 32 28 27 26 27 26 27 28 30 31 32 33 34 34 37 41 45 46 47 47
81 84 93 92 91 90 84 88 90 82 78 80 82 83 82 79 70 63 55 47 42 41 40 35 32 31 29 29 26 27 30 31 30 29 33 38 44 48 48 48 49 49 48
96 94 92 94 90 86 88 87 83 80 81 80 78 79 71 65 54 48 44 43 42 41 41 39 37 33 31 27 28 31 28 33 31 37 44 50 53 53 54 52 49 46 46
88 89 93 94 93 93 93 85 82 77 64 63 67 62 53 45 45 47 49 47 44 44 42 42 39 34 31 29 31 32 33 32 37 47 52 56 57 56 55 50 47 43 40
92 94 96 95 97 94 85 66 57 54 49 50 50 47 50 48 49 53 54 49 45 46 45 43 40 35 32 33 32 32 37 41 46 59 58 58 57 54 56 55 48 48 46
96 98 97 93 84 64 56 46 38 32 35 40 47 49 51 49 52 57 60 51 50 49 46 44 39 36 35 35 33 32 38 48 59 62 61 59 59 55 59 52 50 50 56
92 92 85 63 54 41 29 23 24 31 38 41 46 49 53 53 54 59 61 53 55 52 48 44 38 40 39 36 35 35 38 47 60 66 67 63 66 64 63 56 54 52 57
82 63 52 40 29 21 20 22 28 34 39 41 46 51 53 53 57 57 52 57 58 55 49 42 42 44 43 41 39 37 36 41 55 66 68 73 72 68 63 61 58 61 64
55 42 31 24 21 21 24 27 32 36 38 41 47 49 52 55 57 57 56 60 59 57 50 47 46 46 47 45 43 43 40 39 48 66 75 77 76 80 67 61 70 74 73

GFSMA_prec_cthk_042.txt.gz
RH
51 54 57 56 53 52 53 52 53 49 47 42 35 32 32 30 27 24 23 21 21 20 24 28 28 29 30 29 29 31 31 33 33 34 29 25 23 23 22 20 19 20 20
61 53 55 54 53 50 53 55 53 51 44 36 36 35 32 30 30 26 25 23 22 24 27 28 30 32 33 33 34 35 36 37 36 37 34 32 30 26 25 24 19 17 16
57 55 56 54 54 52 56 58 53 46 37 37 38 34 31 31 31 27 26 27 31 29 29 32 35 36 37 40 37 35 34 34 33 33 34 35 35 32 26 23 18 22 20
53 52 52 54 56 57 58 56 44 39 40 41 38 35 33 32 33 31 32 34 34 34 35 38 40 40 39 38 35 33 33 33 34 35 35 31 31 29 28 25 17 20 20
48 53 52 54 56 59 57 45 40 44 45 43 41 37 35 35 36 36 38 39 39 35 35 36 38 37 36 34 32 32 32 34 37 36 36 38 34 31 30 28 26 19 18
50 52 53 54 57 57 47 42 44 45 45 42 38 37 37 38 41 43 44 45 46 45 43 39 38 38 35 32 31 32 33 35 38 37 36 34 32 33 32 31 29 28 27
51 53 53 57 54 47 44 45 46 46 45 40 37 36 39 43 47 48 46 52 53 46 44 43 43 42 39 38 37 36 35 36 34 31 32 39 39 37 35 33 32 31 31
54 56 54 53 46 44 45 47 48 50 50 51 50 50 48 50 52 53 52 51 48 47 50 51 50 49 47 46 45 43 40 37 36 39 39 38 35 38 35 34 32 31 33
57 54 50 47 45 46 47 51 56 59 61 63 68 72 59 54 56 61 63 63 62 60 61 59 58 59 59 58 57 50 43 42 42 39 39 36 37 39 37 36 40 40 38
55 51 49 48 49 51 56 60 66 69 75 81 68 60 59 62 57 55 55 59 61 62 61 61 62 62 62 64 62 62 58 55 52 44 45 41 40 40 39 40 43 43 41
60 53 56 62 64 64 64 74 84 85 83 68 64 67 56 63 65 61 59 61 64 63 61 60 60 63 67 69 66 64 62 61 56 52 44 39 34 35 36 35 35 39 37
68 71 73 74 73 73 78 86 91 96 85 64 62 67 60 56 56 65 69 62 57 52 55 56 57 63 65 68 70 68 68 67 62 47 38 31 24 25 31 32 32 33 33
77 77 78 82 82 81 87 96 91 76 74 68 63 59 57 62 68 70 63 56 53 52 60 68 74 71 71 74 77 75 69 63 55 45 31 23 19 22 24 24 25 24 28
85 87 86 86 83 90 93 92 85 80 76 74 69 67 67 73 71 64 58 55 52 55 63 66 67 76 81 81 77 69 58 43 34 27 20 17 17 19 23 26 28 35 35
87 87 92 86 93 88 84 84 86 84 80 76 75 72 74 70 65 62 58 52 57 57 60 67 68 67 62 54 44 33 27 22 20 20 21 22 24 29 31 36 37 37 38
84 74 83 83 84 85 84 89 88 84 83 82 79 75 73 72 63 59 55 57 60 60 58 55 50 46 41 34 30 25 23 22 23 25 26 27 26 30 33 35 37 37 41
87 88 92 90 89 86 89 91 87 85 88 86 77 73 72 64 56 54 53 42 40 39 35 33 34 37 34 31 28 26 25 26 26 28 28 28 29 29 31 31 32 36 37
89 93 93 89 91 91 92 91 91 87 88 82 81 76 61 53 45 40 34 33 35 38 37 34 35 35 35 32 29 28 28 28 28 29 30 29 29 32 36 38 37 37 37
91 91 87 92 87 91 90 91 92 91 89 81 71 53 39 40 43 37 37 36 38 41 40 39 36 36 35 32 30 29 27 27 29 31 33 36 38 41 44 46 44 41 39
88 95 81 90 95 96 92 94 94 93 82 61 43 36 36 41 41 41 42 44 45 46 45 42 40 39 35 32 30 28 29 30 31 35 40 44 47 48 49 48 47 46 44
85 83 90 86 91 93 96 95 90 77 51 35 32 33 39 43 43 47 47 47 50 50 48 45 44 41 36 33 32 33 33 31 31 39 43 49 51 49 49 49 50 48 43
75 93 96 94 97 97 94 84 58 37 31 28 29 36 41 44 49 50 51 51 53 54 52 49 49 42 39 34 36 37 36 36 37 39 44 50 54 50 50 51 52 46 42
88 98 97 98 97 86 66 44 32 23 22 25 31 38 43 47 51 52 55 54 54 56 51 53 51 46 41 38 39 38 39 41 40 39 44 50 54 56 59 60 57 48 45
98 98 97 93 83 59 38 25 22 19 22 27 33 42 48 50 51 58 57 54 51 51 55 57 53 47 43 41 42 43 44 43 38 39 42 47 57 58 60 63 60 54 49
93 96 91 77 49 34 27 23 21 22 24 30 38 45 51 52 56 59 58 55 52 54 59 60 54 48 46 45 46 49 48 46 39 35 42 47 60 59 61 63 68 68 64
87 81 62 42 33 26 24 23 25 27 30 35 41 49 53 55 58 61 61 60 63 59 63 63 54 50 50 48 49 51 50 49 46 37 42 44 62 69 65 62 63 72 67

GFSMA_prec_cthk_045.txt.gz
RH
52 55 57 60 63 54 52 51 50 50 48 40 34 33 34 32 29 27 25 23 21 21 30 30 30 31 30 30 30 31 32 35 30 30 29 26 24 25 22 20 16 15 14
58 60 55 52 54 54 53 52 53 52 44 37 36 36 34 31 29 28 27 26 24 26 33 36 36 35 33 34 36 36 37 36 35 35 34 36 32 31 28 26 23 17 16
70 66 55 54 55 54 53 54 55 50 40 40 39 36 34 32 31 30 29 30 31 34 35 38 37 39 38 40 39 37 36 37 37 38 37 37 34 33 29 23 22 19 21
61 53 52 51 51 56 54 56 54 42 39 40 37 36 33 32 32 33 34 35 36 40 41 44 45 46 46 43 39 38 38 37 39 41 39 38 39 36 34 29 26 23 18
53 52 52 51 55 57 56 56 46 39 41 41 39 38 37 34 35 35 37 35 37 37 38 39 41 41 39 36 35 36 37 37 40 41 40 38 37 37 35 35 33 32 29
51 50 53 52 52 56 56 50 41 41 43 44 46 46 44 41 44 46 46 41 40 45 44 42 39 38 39 39 39 40 42 42 41 40 40 38 38 38 37 36 35 34 33
51 50 52 53 54 55 51 44 43 44 47 54 55 51 50 48 48 48 47 45 48 47 47 49 51 52 51 50 49 48 46 45 46 44 44 42 40 38 38 38 41 40 37
56 51 55 52 53 52 49 45 47 51 57 57 56 56 55 54 52 53 53 52 52 53 54 54 55 53 52 52 53 54 53 52 50 51 50 48 47 45 44 46 44 44 46
53 53 56 56 57 53 53 55 57 62 64 63 64 63 63 65 58 55 54 54 53 53 57 58 55 54 53 53 53 53 54 55 56 55 56 56 56 53 55 51 52 54 49
65 67 67 64 63 63 64 65 66 70 74 73 73 73 71 65 62 60 58 55 54 58 61 56 51 48 46 43 39 40 43 45 48 49 51 54 56 53 50 53 46 49 54
76 76 72 71 71 72 72 73 75 80 84 86 80 81 69 65 65 63 59 62 60 57 50 47 34 31 33 38 45 48 52 54 56 61 64 66 69 65 59 60 55 49 54
81 80 82 79 78 79 79 85 87 93 94 89 88 80 67 64 64 65 61 57 52 48 40 30 32 36 41 44 49 55 60 67 71 70 69 66 60 59 59 50 47 44 43
85 89 89 84 83 85 89 90 90 97 90 82 76 71 66 69 67 64 61 55 50 40 34 37 36 40 42 46 53 54 60 65 61 59 56 52 45 37 32 29 31 30 36
89 93 90 90 91 92 86 86 92 86 83 83 80 76 75 72 69 67 59 54 44 37 39 37 31 25 27 26 27 26 25 23 22 22 24 24 22 21 20 26 27 27 35
92 94 91 93 92 90 93 89 91 87 85 88 83 81 76 71 70 63 56 49 41 30 27 31 32 28 27 26 27 25 23 22 20 20 19 19 20 21 21 27 28 29 32
94 95 91 93 91 94 95 95 92 93 94 88 86 83 78 71 66 58 51 35 33 30 30 33 35 33 32 32 29 27 25 23 22 22 23 23 23 24 24 29 30 30 30
91 95 97 96 95 95 96 91 92 97 94 92 86 82 74 69 55 39 34 32 36 36 36 36 36 37 35 33 32 30 27 25 24 24 24 24 24 24 26 25 26 27 31
94 97 96 93 97 95 96 92 94 98 94 91 86 77 73 61 41 35 35 36 37 39 40 39 44 40 37 35 33 31 29 27 27 26 26 26 27 28 30 32 34 35 37
90 85 86 88 98 95 95 92 96 95 92 90 86 76 59 39 34 36 37 38 40 40 41 44 44 45 39 39 38 35 32 30 31 29 29 30 31 34 37 38 40 42 44
82 88 88 90 92 92 95 96 98 97 94 86 80 55 36 31 32 37 40 42 45 46 48 49 49 48 43 44 41 36 37 36 36 33 35 36 36 38 41 43 44 45 44
74 79 88 81 86 92 95 98 97 94 90 77 53 36 27 27 33 39 42 47 51 54 54 53 54 52 46 49 43 41 39 38 40 40 41 45 41 45 48 47 44 45 47
79 82 84 83 89 95 97 97 95 86 73 50 35 23 23 28 34 42 46 51 58 60 58 58 58 48 49 52 46 45 42 43 43 43 43 41 40 46 51 50 53 54 51
82 80 90 96 98 98 97 92 82 68 51 29 19 21 26 32 39 45 50 58 65 65 61 58 51 51 54 55 49 49 46 46 48 47 44 41 37 42 53 55 58 57 52
86 88 93 96 95 89 80 70 54 38 26 22 21 24 29 35 42 49 56 63 67 63 58 54 52 54 57 54 49 51 50 48 51 54 47 42 38 38 53 54 58 62 60
88 91 89 84 75 64 53 41 33 27 24 23 25 29 34 41 48 54 60 62 58 60 60 59 57 57 60 55 50 53 53 52 52 59 50 47 44 37 44 61 61 63 62
81 76 68 59 48 40 33 28 26 25 25 26 31 37 44 48 51 57 57 58 59 63 64 65 61 61 62 58 54 53 56 55 56 57 55 50 43 46 39 59 70 67 64

GFSMA_prec_cthk_048.txt.gz
RH
44 47 54 58 63 63 61 55 52 50 46 40 35 36 36 33 30 29 31 25 24 25 35 36 35 34 35 33 31 33 34 35 34 31 30 29 30 29 26 24 20 15 14
51 51 58 56 57 58 55 55 53 52 46 38 35 37 35 32 30 27 31 33 28 28 33 37 38 38 38 41 41 40 40 39 38 37 35 35 34 33 32 30 27 21 20
57 61 67 56 53 54 52 52 50 51 45 36 37 36 33 34 32 32 35 37 40 36 36 35 35 36 39 41 43 44 42 42 41 40 39 43 40 39 39 34 29 28 24
73 74 69 56 55 53 51 51 50 50 41 35 37 35 36 36 36 38 41 42 44 48 46 41 40 42 42 41 39 38 38 38 38 41 46 46 45 45 43 37 34 33 30
67 64 53 52 52 51 52 50 52 46 37 36 39 39 42 44 44 46 46 45 45 46 46 45 38 38 38 37 36 35 38 38 44 47 47 46 45 43 43 43 42 41 39
58 57 52 52 50 49 50 50 50 43 38 41 43 48 51 49 49 50 49 48 47 41 40 39 40 41 40 40 39 39 40 40 41 47 48 48 47 45 42 40 43 42 42
58 53 50 48 50 48 49 50 51 44 44 49 55 57 58 56 55 54 55 55 49 46 45 43 43 46 47 45 44 41 37 38 41 44 46 47 45 44 42 45 47 48 50
56 57 52 47 49 53 53 55 55 51 55 57 62 65 66 61 59 66 62 54 55 54 52 51 51 51 50 47 44 37 29 25 27 29 31 32 33 35 42 51 52 56 56
66 56 53 56 60 63 64 64 62 60 62 65 70 77 74 75 68 64 66 65 61 60 59 57 56 53 50 44 36 35 31 24 27 33 36 41 44 46 46 46 45 48 52
75 74 70 70 71 71 70 68 68 68 69 71 75 83 83 82 79 73 66 65 65 65 64 61 54 49 44 34 34 29 27 30 33 37 39 40 47 53 55 60 67 68 64
75 73 73 76 77 77 74 75 76 76 77 84 86 88 84 82 78 73 72 68 67 65 61 54 45 43 41 37 28 33 23 23 23 26 31 36 46 58 74 74 74 79 82
73 79 86 89 86 86 82 81 78 79 84 89 91 84 80 79 78 74 70 68 66 64 54 48 41 35 30 25 20 19 22 24 27 29 32 32 29 27 33 45 51 61 61
71 79 86 91 91 93 89 85 83 86 87 87 91 81 82 81 78 78 73 70 68 59 52 42 36 28 27 28 29 21 21 20 20 21 20 19 19 19 18 20 24 28 38
79 83 88 91 94 96 95 90 90 91 95 93 88 86 88 84 83 80 76 70 63 56 48 36 33 33 35 29 30 23 25 25 22 19 18 19 19 19 19 19 19 26 29
86 92 94 95 97 97 93 95 91 95 96 93 90 91 97 92 89 84 77 69 62 47 38 31 30 35 37 40 38 34 29 28 22 19 19 20 19 20 20 21 27 29 31
86 91 94 96 93 94 92 88 94 95 97 95 97 95 95 94 92 87 75 64 52 45 39 35 34 38 42 40 39 36 32 29 24 22 21 20 20 22 23 23 26 29 31
87 91 96 95 96 95 91 91 89 98 97 98 95 92 94 95 90 82 72 62 50 45 38 36 42 47 45 42 43 43 40 32 26 25 24 22 23 24 25 25 25 26 31
93 95 97 94 95 90 86 89 95 98 98 92 92 97 97 94 89 78 68 54 50 43 44 39 44 47 53 50 49 47 43 34 29 30 26 23 26 26 27 28 30 32 34
94 91 91 93 89 78 86 89 88 91 92 94 96 96 95 93 85 71 60 52 44 50 46 47 47 54 56 57 55 51 43 38 37 35 30 30 33 30 32 32 35 39 40
78 78 71 72 72 84 90 92 87 89 94 97 98 97 93 85 66 55 49 43 46 47 49 57 58 59 64 64 56 52 47 41 41 40 36 37 39 39 37 38 40 41 41
60 62 65 72 84 92 88 89 92 97 98 97 96 91 75 55 42 37 37 44 53 51 54 63 62 66 66 63 61 55 47 44 46 45 43 47 47 47 43 46 47 50 51
57 61 67 72 74 81 86 91 95 96 96 89 73 60 47 39 27 26 30 39 44 58 61 62 64 66 61 63 58 57 51 49 49 51 47 49 51 49 45 47 49 47 51
60 67 70 75 83 88 92 95 94 80 69 57 48 42 36 34 30 30 35 42 48 54 57 61 65 66 63 64 61 60 54 55 53 51 50 51 55 52 49 51 48 48 53
65 71 74 79 84 84 78 68 58 49 44 40 36 34 31 29 37 43 43 50 52 55 54 53 61 60 65 66 63 58 61 61 58 55 57 53 57 56 53 46 44 48 52
69 70 73 74 70 63 52 46 42 37 35 32 32 32 32 35 39 42 47 51 52 57 57 57 59 64 62 62 60 62 66 65 62 60 60 57 60 57 51 45 54 60 62
66 65 60 53 46 39 36 32 31 31 31 31 32 33 35 37 41 45 48 50 52 58 66 68 62 65 66 67 67 65 70 69 66 63 67 61 61 58 51 44 54 63 61

GFSMA_prec_cthk_051.txt.gz
RH
65 58 61 62 62 68 66 65 56 51 50 40 33 33 32 31 30 28 29 28 24 24 33 35 34 32 32 33 33 36 38 40 42 42 41 39 39 37 34 31 28 22 17
57 55 58 65 67 64 62 58 54 49 48 42 34 33 31 31 30 31 34 34 29 29 35 38 38 38 39 38 39 39 42 42 42 42 42 44 44 43 40 39 36 32 28
53 58 64 71 66 60 59 53 51 49 49 42 33 33 32 33 36 37 38 41 39 38 35 36 34 33 35 36 37 39 40 40 40 40 39 40 44 47 47 46 42 39 40
55 62 72 77 68 57 56 52 52 49 49 41 34 35 37 40 42 42 43 43 45 45 45 43 35 33 34 36 37 37 37 35 36 35 37 40 42 42 39 40 44 45 45
64 79 79 76 58 55 53 50 50 50 47 43 38 40 45 48 47 46 47 47 46 45 46 41 39 36 37 37 35 34 32 33 34 33 33 34 33 32 31 32 35 37 42
76 72 68 63 55 53 50 49 50 48 49 47 43 45 49 51 54 55 53 52 50 49 51 49 44 42 42 42 41 37 34 35 34 32 34 33 29 27 26 26 27 30 36
61 58 62 55 50 51 50 48 49 52 56 55 51 55 54 53 57 60 61 61 58 57 57 50 48 50 49 46 42 40 36 32 31 29 30 29 31 33 33 33 34 36 37
56 56 59 55 53 54 53 58 62 64 65 59 57 59 62 65 61 62 67 64 61 64 61 57 52 52 55 50 44 38 34 29 22 19 20 24 27 33 34 36 38 40 45
61 65 68 68 69 64 67 68 69 69 68 64 64 68 72 76 77 75 68 68 67 68 68 64 60 58 54 49 45 39 34 26 21 18 16 18 22 26 30 31 34 38 44
68 76 78 77 73 70 71 75 72 73 74 72 68 70 75 80 84 77 71 66 66 68 68 66 63 60 54 50 44 38 25 20 18 16 18 19 21 25 28 31 35 38 41
67 71 75 77 79 76 80 84 82 82 82 79 76 77 83 84 83 84 81 78 72 69 68 64 64 59 53 46 40 34 26 22 19 17 17 19 21 23 23 23 28 30 33
68 65 71 74 80 86 89 90 88 86 85 82 86 89 92 91 91 86 82 85 84 82 78 71 67 59 50 44 39 34 26 23 18 15 14 14 14 15 15 17 23 24 26
69 67 68 75 83 86 89 93 92 92 91 86 88 93 91 93 88 90 92 89 87 83 79 75 65 59 53 45 42 37 30 20 18 17 15 15 15 16 15 15 18 26 27
74 75 74 83 90 90 92 94 97 95 96 90 89 88 95 92 94 95 94 92 87 84 82 74 66 57 55 51 46 37 29 26 24 23 20 19 19 18 16 17 17 20 26
82 80 87 93 91 91 93 96 97 95 93 92 87 91 94 96 97 97 93 90 86 85 81 74 66 57 47 46 43 39 35 34 32 29 26 24 21 17 17 18 19 21 29
78 84 86 85 88 94 96 94 92 94 90 91 90 92 95 96 96 95 91 89 91 89 80 72 59 50 45 40 42 40 39 38 39 38 32 28 24 20 20 20 22 25 29
77 77 74 87 90 94 91 93 97 93 96 85 88 88 93 90 88 90 91 93 93 85 70 53 48 44 46 46 48 51 49 48 49 44 37 31 25 23 23 24 27 28 28
62 62 71 87 98 98 90 98 93 95 83 77 98 96 96 93 95 96 96 92 84 71 57 46 40 40 46 50 52 54 54 51 50 49 40 33 29 27 27 29 32 32 32
59 60 66 70 73 81 76 75 72 71 85 89 96 97 90 94 96 96 88 81 67 58 51 48 47 50 51 56 57 58 59 56 51 46 41 36 35 35 33 36 37 37 39
57 60 61 63 65 66 67 70 72 77 84 90 93 92 94 96 91 81 74 63 50 50 52 55 60 54 55 60 65 64 59 59 58 51 47 45 42 42 43 45 45 42 43
56 59 62 63 61 64 66 69 72 76 77 84 89 91 86 76 69 63 47 37 36 47 52 62 64 61 67 69 68 67 67 61 57 54 52 54 53 49 45 50 55 52 50
48 51 53 56 60 62 66 70 73 77 83 84 77 69 62 55 44 37 32 31 31 35 39 50 58 67 71 67 67 73 70 64 59 60 61 57 57 49 53 56 58 50 46
48 49 52 57 64 66 69 71 72 72 66 60 50 43 39 39 38 38 39 40 37 36 42 48 52 52 61 68 70 76 70 69 65 60 66 55 60 57 58 60 61 51 46
48 53 58 61 63 64 62 57 52 47 41 38 34 33 38 41 41 42 41 40 45 45 47 51 51 48 54 57 70 73 73 69 63 63 72 66 67 63 61 57 56 52 48
55 57 58 57 56 57 49 44 39 36 33 33 34 36 41 41 39 40 41 40 39 42 46 56 58 58 57 57 66 79 77 75 66 70 76 74 71 64 65 57 62 57 49
56 55 52 50 46 43 44 41 36 33 33 36 37 36 36 36 35 34 39 40 42 42 49 58 67 61 62 66 70 83 79 76 78 74 80 81 76 69 61 61 62 53 50

GFSMA_prec_cthk_057.txt.gz
RH
82 77 72 74 70 68 66 62 60 61 48 43 31 31 28 25 27 29 31 32 31 30 32 34 32 29 28 29 29 29 30 32 32 32 35 34 35 34 31 30 29 29 29
84 76 75 71 69 65 62 62 65 58 45 42 39 29 29 29 30 32 34 36 37 36 35 38 38 36 34 32 32 33 33 33 33 32 31 32 34 33 31 30 28 26 25
85 80 76 71 67 64 63 62 61 50 46 44 41 34 28 30 34 36 38 42 43 41 44 40 40 39 38 37 36 37 37 36 33 32 32 35 33 31 28 25 23 22 22
82 80 75 68 66 63 61 54 52 49 47 43 39 37 33 33 37 41 43 46 43 44 46 48 46 45 42 39 36 38 38 37 33 32 34 34 32 31 29 26 26 26 26
70 67 65 66 71 76 64 52 50 51 49 43 38 38 42 43 43 46 45 45 45 46 51 53 53 48 46 44 43 43 40 40 37 35 34 33 33 31 30 29 29 30 33
64 59 58 68 79 82 60 52 51 51 49 46 47 50 52 52 50 51 51 56 53 53 54 53 53 50 52 49 47 47 50 48 41 38 35 32 34 32 31 30 33 36 36
60 63 68 76 72 64 53 52 51 55 58 58 61 60 59 60 57 57 60 63 62 62 58 52 50 49 49 47 49 52 55 53 48 47 41 35 29 30 31 30 38 37 36
71 73 67 68 70 58 57 61 61 66 67 67 68 67 66 67 69 67 70 67 65 64 67 67 62 55 53 53 55 58 60 58 52 48 44 39 35 29 32 31 37 36 34
73 64 53 57 56 59 65 66 66 67 71 72 73 75 75 73 73 74 75 74 70 72 73 69 61 57 60 64 62 60 62 55 55 54 49 41 34 28 31 30 28 27 26
58 56 61 62 61 64 66 69 69 74 78 83 83 84 83 85 81 79 79 78 75 78 79 77 67 68 68 67 66 63 61 61 64 59 47 37 32 25 21 21 23 23 23
67 70 68 65 65 68 72 76 79 83 87 93 92 92 88 85 90 85 84 88 89 89 84 79 74 71 71 73 73 68 66 66 61 51 38 31 27 20 18 16 17 20 23
71 73 79 78 76 76 81 84 88 89 94 95 93 92 88 88 90 96 93 93 94 93 85 86 79 73 74 76 74 73 71 63 55 42 30 27 26 24 21 20 19 20 24
79 76 78 81 81 83 89 90 92 90 88 98 90 92 89 88 92 95 91 89 90 92 91 87 84 87 87 80 75 70 61 51 43 32 28 28 28 27 26 25 23 19 17
77 78 87 85 91 90 88 91 94 89 73 85 89 91 93 96 99 97 94 88 86 86 86 89 92 92 86 79 70 58 51 46 40 35 31 30 31 32 30 27 26 22 20
84 81 91 84 89 87 82 76 70 73 67 72 87 94 97 98 97 97 93 82 79 80 80 83 84 88 83 72 58 52 48 43 37 36 35 35 37 36 31 30 30 25 23
87 79 79 87 75 67 66 65 62 66 66 71 76 73 76 74 80 81 74 74 80 78 73 75 77 72 66 58 54 50 44 41 39 40 42 41 40 38 36 35 30 31 30
86 83 81 64 65 62 59 58 59 62 64 65 62 71 81 69 76 72 76 76 79 81 78 71 67 63 59 56 58 53 50 49 49 50 52 46 44 45 45 42 39 40 36
71 62 62 63 59 58 54 55 58 58 64 61 69 67 69 67 73 74 80 80 80 81 72 60 58 56 57 57 57 57 55 54 53 56 58 53 52 51 50 46 42 43 42
61 63 65 63 62 55 54 56 52 64 68 65 66 68 69 71 74 79 76 75 68 63 61 58 56 55 54 58 58 59 56 58 63 61 61 59 58 55 55 51 52 49 47
64 70 71 64 58 52 54 55 58 58 62 65 65 71 73 74 70 68 59 54 52 51 49 54 55 53 54 49 53 54 59 65 64 63 70 66 62 60 65 59 62 54 50
75 73 63 55 49 50 51 54 56 59 62 64 69 68 68 64 51 43 46 46 47 48 51 49 48 47 43 40 42 43 54 59 64 67 78 79 73 72 70 68 64 58 54
69 58 50 45 46 48 49 50 54 59 61 63 64 57 48 43 43 44 46 48 50 51 49 49 45 45 38 40 38 43 46 58 77 72 82 81 74 65 70 67 65 60 59
52 45 41 40 42 45 47 50 54 57 58 52 46 41 41 41 41 41 42 42 44 46 47 46 43 42 42 40 42 47 56 71 73 78 82 71 70 67 70 68 64 62 68
43 37 37 41 44 46 49 50 49 44 40 39 39 41 42 42 42 39 36 35 35 34 34 34 37 36 36 36 38 49 60 74 76 76 78 74 72 72 74 68 65 74 69
37 38 40 42 44 46 46 43 40 40 39 41 42 42 40 37 33 30 28 25 23 21 19 17 15 13 16 30 37 43 57 75 63 64 77 88 78 81 80 71 71 76 73
39 42 43 44 44 45 44 44 46 47 47 45 42 37 34 31 30 29 27 25 23 21 21 18 16 12 9 7 10 33 45 71 83 76 86 94 89 91 73 69 75 74 70

GFSMA_prec_cthk_060.txt.gz
RH
76 78 74 76 74 72 67 62 61 62 60 48 32 29 27 27 27 28 30 32 31 29 32 36 32 28 28 29 30 30 29 29 29 29 29 28 29 31 31 30 30 30 30
80 79 75 74 75 72 72 69 64 64 59 44 38 31 29 28 30 32 33 35 37 37 35 36 36 36 35 36 34 32 32 32 31 30 29 29 31 30 28 26 27 27 27
80 76 74 74 71 70 68 63 68 65 52 43 41 36 30 28 30 34 37 38 40 38 39 40 43 44 44 44 40 38 36 36 34 32 31 33 34 34 32 29 24 22 23
79 75 76 72 67 70 64 67 63 57 45 43 41 38 35 32 35 41 41 42 45 46 47 47 48 46 43 40 38 38 36 33 34 35 36 36 35 37 37 36 31 28 27
78 78 74 75 68 64 67 62 53 47 44 42 40 39 39 44 47 47 48 47 49 54 55 55 49 48 49 45 44 41 39 40 39 39 38 37 38 40 36 35 33 33 33
80 79 74 69 68 73 73 56 50 49 52 52 50 48 47 51 54 54 55 54 56 61 62 57 57 57 54 47 47 45 45 46 45 44 40 39 36 33 32 32 35 35 37
76 69 63 67 75 75 76 57 56 58 58 60 59 59 59 61 64 64 63 63 64 64 63 64 64 63 59 55 56 56 56 55 53 51 47 43 40 36 32 30 32 34 34
64 62 64 68 68 75 66 59 63 62 64 64 67 66 67 67 70 71 72 70 68 69 69 65 67 68 66 62 58 60 61 65 60 61 57 50 50 42 32 27 30 30 29
67 70 69 64 60 66 59 65 63 63 67 68 74 78 77 78 78 81 77 79 79 76 72 71 75 74 70 70 67 64 62 62 63 62 62 58 54 40 31 24 19 18 22
58 60 53 58 60 59 59 61 64 69 72 75 84 85 86 85 86 80 80 78 79 76 76 73 69 70 72 71 68 69 63 64 65 65 63 57 46 36 28 23 20 18 16
46 57 54 55 58 62 60 65 74 82 82 85 85 94 96 90 85 88 79 81 78 81 79 76 72 68 66 68 66 65 67 67 66 63 57 48 40 32 29 26 22 20 25
47 54 63 67 70 75 74 74 86 88 91 91 91 94 92 91 86 86 83 86 85 83 80 79 81 73 69 69 67 69 69 66 62 57 50 44 40 33 31 28 24 22 25
59 61 67 71 73 78 83 92 93 88 90 90 89 73 83 86 83 86 91 90 86 81 77 79 72 68 75 71 71 75 70 64 56 51 47 44 39 34 33 31 28 26 25
74 77 79 78 84 95 95 94 86 88 83 74 74 78 78 67 82 83 80 76 76 73 71 69 68 77 78 79 79 74 65 57 51 50 50 47 42 40 40 37 35 34 29
81 81 80 81 86 87 96 86 83 76 69 64 77 69 64 67 79 80 74 74 69 66 69 67 71 77 78 76 72 63 58 53 53 54 51 49 47 47 49 48 46 45 40
87 78 82 91 92 86 86 77 74 66 61 58 64 63 68 63 68 65 72 75 66 74 68 68 73 75 76 72 65 60 55 55 55 56 54 50 50 51 52 54 50 54 52
91 79 85 91 85 72 69 70 64 58 61 58 66 55 71 59 68 64 71 69 67 74 67 68 66 66 61 57 55 56 58 57 58 60 61 55 56 55 55 55 54 53 57
91 85 78 77 67 66 69 66 62 57 57 59 57 57 70 62 66 67 69 71 68 72 69 63 58 52 50 55 59 60 59 61 59 59 69 70 63 65 76 64 65 58 58
75 78 73 70 68 70 67 62 57 57 59 52 59 62 63 61 67 70 72 71 70 66 58 50 46 51 47 49 49 50 50 53 49 54 54 62 76 77 72 75 73 76 72
66 68 72 76 75 71 63 61 51 52 52 57 61 56 65 68 69 71 70 64 50 43 44 45 44 43 46 46 49 48 43 43 41 43 44 46 63 73 77 84 93 86 83
72 72 76 77 70 65 61 51 49 50 55 59 61 62 64 64 66 63 51 43 43 42 44 47 48 47 45 45 45 44 47 46 40 38 43 45 58 69 87 87 87 90 83
74 72 74 72 68 58 50 50 51 54 56 58 60 63 63 60 50 43 43 44 45 45 46 48 48 47 45 46 42 43 45 46 45 32 46 52 71 73 86 84 86 86 75
74 75 70 60 54 47 46 49 53 55 57 58 60 58 49 44 42 43 44 45 46 47 48 48 48 46 42 39 37 38 40 38 30 28 40 51 73 77 82 83 84 82 75
65 60 56 54 47 44 46 50 53 54 54 50 47 44 45 46 46 45 44 42 39 37 35 33 29 26 25 23 23 19 14 12 22 40 36 57 70 79 84 85 86 87 83
52 52 53 46 42 44 48 51 49 43 41 44 45 47 49 49 45 39 38 37 37 36 35 33 31 29 27 27 28 27 21 23 18 17 37 48 72 84 88 92 90 94 82
50 52 48 43 43 46 48 46 43 44 48 51 53 53 49 45 42 41 41 41 40 38 35 33 31 27 25 22 23 30 32 30 32 29 21 51 74 97 97 95 92 84 79

GFSMA_prec_cthk_063.txt.gz
RH
68 68 69 69 70 65 66 66 66 58 60 56 39 31 26 24 23 26 27 29 31 32 31 32 32 31 28 29 30 30 29 28 28 27 27 26 26 27 25 23 23 25 25
69 74 75 75 74 69 70 68 62 62 60 57 43 32 28 26 26 28 29 32 33 34 35 36 36 37 38 36 38 37 35 31 29 29 27 27 27 28 27 25 25 27 29
74 78 79 76 75 74 73 67 66 66 61 57 43 38 32 28 27 29 33 36 36 37 38 41 44 45 42 41 43 40 37 34 32 30 30 30 30 30 29 27 27 28 29
81 80 82 77 75 75 71 71 69 66 62 56 47 42 39 33 29 33 38 41 42 42 44 48 50 51 49 49 49 44 41 40 38 37 36 37 35 35 34 32 30 29 31
84 83 80 74 75 69 68 67 67 64 62 54 45 42 39 38 41 43 44 46 48 49 49 51 55 58 57 59 53 47 46 43 42 41 40 39 37 35 34 33 29 26 34
85 81 76 75 72 69 70 68 65 62 59 55 55 53 50 49 48 50 53 54 58 58 59 59 62 64 64 61 59 58 55 52 52 50 48 46 43 41 38 33 28 26 25
83 82 77 75 69 68 68 63 58 55 57 60 61 62 62 59 61 61 59 62 65 67 66 69 72 70 66 65 68 63 59 56 56 51 51 49 47 45 42 36 32 28 24
83 82 79 72 68 69 75 63 56 59 65 68 66 65 65 66 68 69 69 72 74 73 76 77 78 71 71 70 69 67 64 59 60 58 56 55 52 48 45 39 34 28 22
81 78 74 71 71 71 71 68 61 66 68 67 67 70 69 74 73 75 73 77 78 74 73 74 74 72 74 73 67 71 65 61 58 59 62 60 54 51 46 38 31 25 22
71 70 68 69 69 66 65 61 64 64 65 71 78 79 79 78 82 82 80 78 78 72 71 76 76 71 70 64 63 65 64 60 62 63 63 60 56 50 41 34 28 25 22
72 75 67 62 59 56 61 66 64 65 71 80 87 89 87 88 86 89 89 77 80 76 74 76 78 76 68 65 66 63 62 63 62 64 64 58 53 46 41 37 34 29 25
60 62 56 52 52 56 60 62 65 73 82 89 94 97 92 89 84 90 85 74 78 74 76 79 75 74 71 68 66 61 65 66 64 63 61 56 52 46 45 42 38 34 31
46 48 52 55 62 66 71 78 80 85 93 95 92 87 83 85 92 85 76 63 69 77 72 72 69 69 64 68 64 63 66 66 65 66 59 56 54 51 50 46 41 40 38
54 55 55 58 65 73 77 81 92 97 90 92 89 77 70 77 88 67 62 57 64 70 67 64 72 68 70 69 68 67 66 67 65 60 57 56 54 54 55 52 46 45 46
77 79 77 75 78 83 87 94 95 92 85 84 79 66 73 67 63 63 59 62 58 59 58 63 69 68 74 72 67 66 65 63 62 59 59 58 57 57 57 56 55 53 52
89 93 90 86 86 84 88 94 89 88 81 75 66 62 56 63 64 57 56 64 60 66 60 62 66 67 72 69 67 64 61 58 59 59 59 59 59 59 61 62 63 66 64
90 94 92 87 82 90 90 91 85 83 73 68 64 58 57 57 57 62 59 66 61 64 63 65 69 66 69 66 59 54 52 53 54 56 59 60 62 63 66 71 74 75 68
90 94 85 85 88 91 87 76 77 74 71 66 60 60 55 62 54 57 63 70 62 67 70 68 66 68 61 51 45 45 44 46 47 50 55 58 59 61 65 65 66 70 75
88 84 83 80 87 82 85 77 72 71 69 62 60 59 60 60 56 67 61 61 67 70 69 69 62 49 45 45 46 45 43 44 46 47 47 45 44 43 43 44 43 52 59
81 77 74 77 74 78 82 78 70 68 66 62 52 52 51 52 62 60 62 70 70 68 65 50 44 45 45 45 45 46 44 44 42 44 42 41 44 38 32 32 38 48 64
75 70 74 73 75 82 80 75 71 69 61 57 50 54 50 62 58 62 68 70 66 53 44 45 47 48 46 45 46 48 46 41 37 39 34 30 30 28 34 34 43 62 73
70 72 74 73 75 81 76 71 71 62 52 51 52 54 57 59 63 69 69 60 50 49 51 50 50 49 49 50 49 44 38 32 30 27 32 26 25 25 27 33 48 75 89
68 69 76 80 80 78 73 72 63 53 52 52 55 58 61 64 69 65 56 52 53 53 52 48 47 46 44 42 40 36 35 36 33 29 29 21 22 15 39 39 64 78 72
63 74 81 81 80 76 65 59 53 49 51 55 58 61 63 61 57 54 55 55 53 48 44 41 41 45 43 42 41 40 40 37 33 29 29 31 24 21 17 40 67 81 80
80 81 79 79 67 62 60 60 53 51 55 57 60 59 53 53 56 57 56 51 47 46 44 47 48 46 45 44 42 40 37 37 33 27 27 32 24 29 26 30 54 85 89
81 77 77 67 64 61 61 59 53 54 55 51 48 48 52 58 57 54 51 49 47 49 52 50 49 47 47 45 42 40 38 31 31 29 24 33 34 38 37 36 60 94 97

GFSMA_prec_cthk_069.txt.gz
RH
55 59 63 64 62 60 57 60 56 57 58 55 50 46 43 36 31 32 29 28 29 30 31 32 33 31 29 28 30 30 29 29 30 28 27 27 26 24 23 24 23 22 21
68 63 72 66 63 62 60 60 63 65 62 59 56 52 45 36 36 30 28 31 32 31 33 35 36 36 34 35 36 36 33 33 34 30 33 30 28 27 27 28 27 27 24
73 73 67 66 66 67 68 70 73 73 70 66 60 56 47 39 30 31 28 31 32 34 38 39 40 42 43 43 43 41 40 40 39 38 35 36 33 36 31 32 32 29 26
75 74 71 71 72 74 75 76 75 76 74 69 63 63 54 44 39 30 29 31 34 38 39 41 44 45 48 49 48 48 49 50 49 46 44 41 41 40 35 35 34 31 29
77 81 79 79 78 79 80 79 77 78 75 71 67 66 59 47 43 34 35 40 41 40 45 48 49 50 53 55 58 58 60 60 57 55 51 47 45 42 42 38 37 35 32
82 85 86 85 84 84 83 81 80 79 79 76 69 66 60 57 47 48 47 48 49 50 52 55 61 63 63 63 64 64 64 63 58 57 53 48 45 46 42 42 41 38 36
84 88 89 89 87 84 82 82 81 81 81 79 72 71 61 57 63 61 61 62 62 61 62 65 69 72 73 71 69 64 64 63 59 57 56 51 52 48 45 46 45 42 40
86 89 89 90 87 86 86 83 81 79 79 79 73 79 70 71 68 71 68 67 66 69 75 74 75 76 76 78 77 75 71 70 64 60 56 54 55 49 49 50 49 46 44
90 90 90 90 86 86 88 85 84 81 75 78 77 81 77 71 68 67 67 72 75 79 82 87 85 84 85 80 80 72 73 68 56 60 60 60 54 51 52 53 51 49 47
92 91 91 90 89 90 87 88 90 82 73 73 73 77 75 72 73 71 75 79 82 88 84 85 85 85 85 71 69 72 73 67 60 61 65 59 61 59 58 56 56 53 49
93 93 92 91 95 89 90 91 85 70 71 66 65 70 70 70 71 75 79 82 90 93 89 86 91 89 81 74 68 70 74 71 61 62 55 60 66 62 65 63 60 57 56
93 95 92 93 93 89 91 86 75 75 68 64 64 74 76 76 77 80 84 88 93 96 90 88 86 93 69 61 60 60 63 59 57 62 59 62 69 65 69 68 67 66 67
76 83 85 84 86 86 83 78 76 74 72 68 65 75 84 89 92 95 94 94 96 93 82 96 76 73 58 54 59 58 60 58 62 65 65 68 68 67 65 67 67 69 71
68 71 73 77 80 79 80 78 74 72 70 65 63 65 75 85 92 97 95 98 91 92 88 72 77 59 60 63 61 62 64 64 65 69 67 70 70 65 63 62 62 59 61
59 60 65 66 68 70 71 69 66 63 58 58 63 70 80 92 86 91 96 93 90 87 67 69 66 57 59 55 63 66 62 64 69 67 69 67 61 57 58 62 61 59 59
64 61 62 61 61 62 61 61 60 58 57 65 74 85 85 88 86 84 84 82 79 65 59 62 60 64 57 57 62 65 64 69 70 67 56 53 55 56 57 57 55 52 52
73 72 71 67 66 66 66 66 64 61 67 82 86 88 94 89 91 85 88 80 76 70 63 60 68 66 66 62 64 66 67 66 59 50 50 49 49 48 48 48 48 51 54
68 70 73 76 71 64 66 73 74 81 90 89 99 97 96 94 92 89 84 76 68 66 67 63 57 62 60 64 67 70 63 56 48 47 47 47 47 46 45 43 45 49 50
66 69 74 82 81 82 87 94 91 97 98 98 97 92 90 92 88 86 82 76 73 64 61 60 55 61 66 69 68 58 51 46 47 47 45 45 44 42 43 44 45 43 41
68 67 71 81 85 84 88 90 94 97 97 98 95 95 94 89 84 82 77 74 58 61 59 59 58 65 66 63 56 48 45 46 47 46 46 46 46 50 51 49 48 45 39
67 69 69 78 83 78 82 91 97 97 91 91 93 94 91 87 83 76 74 68 55 58 56 57 63 63 60 57 49 44 43 47 49 50 52 54 55 57 55 51 47 41 33
61 68 72 74 73 78 86 89 89 88 87 89 88 87 88 87 85 78 73 66 62 58 59 62 64 58 56 51 44 42 44 48 56 57 58 58 57 54 51 48 43 35 28
58 63 72 79 83 85 86 88 90 91 87 86 84 85 88 89 80 73 67 67 66 63 63 65 61 55 49 46 46 48 50 54 56 60 58 53 57 51 49 45 40 31 27
56 61 68 74 78 79 84 86 86 85 83 86 88 90 89 81 75 70 71 70 70 70 68 62 54 48 48 48 48 54 58 59 62 63 62 56 56 50 48 45 38 28 29
59 61 65 68 69 73 73 73 77 81 86 86 90 87 98 80 71 70 74 75 77 73 64 55 53 52 54 53 59 63 63 62 64 64 68 64 58 54 46 41 37 32 30
55 57 60 63 65 68 71 73 78 81 83 85 84 94 89 71 71 76 79 78 72 62 56 57 56 56 56 63 65 67 68 70 65 68 73 61 60 61 50 40 34 34 34

GFSMA_prec_cthk_075.txt.gz
RH
83 78 69 63 57 57 57 55 63 64 60 54 56 63 64 62 58 51 42 33 30 33 37 33 32 28 29 28 28 28 27 28 29 29 30 29 27 29 29 27 27 28 27
86 79 72 70 65 67 65 64 67 62 55 56 63 65 63 59 56 52 43 34 34 37 36 40 33 33 32 32 32 32 32 34 35 35 33 32 33 35 37 37 35 33 31
85 82 72 80 69 75 71 71 66 62 60 62 66 65 65 60 56 50 42 36 35 33 39 36 34 34 36 36 37 39 41 43 43 43 43 44 44 44 44 44 40 34 31
78 71 69 83 78 79 78 75 66 64 66 65 72 68 65 62 56 56 52 44 35 35 37 36 38 38 39 42 45 47 48 49 50 52 54 53 53 52 48 44 40 35 34
81 75 74 78 79 78 79 73 66 71 71 70 74 70 66 62 60 58 54 45 43 45 42 37 39 41 42 46 51 53 53 56 59 60 58 58 55 49 47 46 45 41 39
79 74 74 76 79 80 76 73 77 76 77 77 74 72 69 67 65 62 56 50 50 42 47 46 47 47 49 53 52 56 60 63 64 62 64 61 60 57 53 48 43 43 41
79 75 77 76 82 79 75 77 80 79 80 81 78 76 73 71 66 63 61 52 49 51 50 54 55 58 61 60 65 64 65 72 71 71 68 62 62 57 53 50 41 42 41
73 76 78 79 76 80 80 82 84 83 83 83 82 82 80 77 72 73 69 62 57 60 58 63 65 62 66 68 71 75 73 72 72 68 67 60 59 56 56 52 44 45 45
79 79 78 76 76 80 84 85 84 84 86 85 84 86 88 86 81 82 76 70 71 70 66 68 65 70 68 74 71 76 76 74 71 70 65 53 48 46 46 43 41 44 47
82 83 78 78 78 80 84 87 85 81 84 89 87 83 82 88 92 94 90 79 74 71 71 71 69 69 71 72 79 87 80 81 74 68 64 59 51 50 49 47 48 51 51
83 86 84 83 82 85 86 86 86 84 83 89 89 86 87 77 78 82 84 86 81 78 76 69 68 69 73 78 86 85 82 80 74 69 59 57 51 51 49 51 52 52 54
87 90 86 84 88 90 89 90 89 92 84 92 93 90 86 85 82 81 81 78 84 80 75 73 73 75 87 85 91 88 85 78 71 79 59 48 54 54 57 52 50 53 58
90 89 88 86 87 92 93 91 90 88 86 89 92 91 84 83 85 83 82 75 75 73 69 67 77 86 87 90 88 91 86 75 74 63 55 52 50 55 55 54 54 56 57
75 78 85 88 87 92 94 92 92 92 87 90 92 88 84 79 80 82 77 73 65 66 70 73 80 85 84 85 90 84 74 64 59 54 53 56 54 55 54 53 57 55 55
59 63 64 68 72 75 84 87 85 83 84 86 83 89 88 81 83 86 81 74 71 69 69 70 83 86 89 86 80 75 68 67 64 53 49 55 49 52 54 57 54 46 41
52 56 56 59 61 66 76 80 80 79 79 81 82 90 81 79 80 80 81 76 70 68 72 76 89 92 92 88 85 78 69 59 63 58 52 48 54 55 57 52 42 37 38
60 63 64 66 66 66 68 69 72 77 79 81 86 85 80 80 78 78 77 72 69 71 80 86 95 95 94 94 89 81 65 64 56 54 52 51 56 55 49 41 34 34 38
61 65 68 66 67 66 68 71 71 73 75 77 78 76 73 74 78 82 84 78 75 85 90 94 94 96 98 98 89 75 65 58 59 61 54 57 54 42 39 32 32 38 41
57 62 65 64 61 65 68 68 69 70 72 76 77 77 76 76 78 84 87 90 91 97 95 94 93 96 96 95 85 83 75 64 63 59 58 57 45 40 36 36 40 45 47
52 57 61 61 61 62 65 68 72 71 73 81 82 84 83 82 80 87 95 96 93 94 97 97 97 95 92 91 88 83 79 68 63 65 62 56 48 43 41 42 47 50 56
48 48 51 53 57 59 59 64 69 73 76 80 88 86 86 86 85 92 98 95 97 93 93 94 92 91 98 93 92 82 74 70 68 68 63 59 54 49 49 51 55 65 67
54 53 52 51 52 53 54 59 66 72 75 76 77 78 80 86 91 98 91 92 92 95 98 97 99 92 99 96 91 86 81 72 69 68 64 60 55 56 55 62 67 70 71
51 50 52 51 49 53 53 54 67 74 74 80 84 82 85 89 97 96 98 97 95 97 91 91 93 95 93 97 98 94 80 67 66 65 62 58 58 61 67 70 75 74 73
51 50 49 51 47 49 54 62 74 75 73 76 84 91 95 96 99 97 97 98 98 97 97 93 88 94 96 98 98 91 76 70 63 61 58 64 69 71 76 76 78 77 73
58 57 59 59 57 50 54 64 75 81 82 84 85 86 89 91 91 91 93 95 97 95 86 93 89 95 97 85 88 80 66 59 59 69 73 72 80 80 79 77 79 80 76
58 57 58 62 66 63 58 57 68 75 79 81 83 83 86 86 84 85 85 88 86 82 98 89 91 96 90 81 74 66 60 65 77 74 83 88 87 86 78 80 81 80 75

GFSMA_prec_cthk_078.txt.gz
RH
91 93 80 65 60 59 57 45 47 50 48 53 58 56 57 60 55 43 41 35 36 33 30 29 26 26 28 26 25 25 25 24 25 26 26 25 25 26 26 28 30 31 31
89 89 87 75 62 55 56 52 55 56 56 58 58 57 63 68 57 45 40 38 37 36 35 35 33 31 34 30 30 29 30 29 30 32 33 33 33 32 34 35 38 38 37
91 92 84 80 70 62 55 57 60 58 59 60 61 60 61 64 58 48 40 37 36 37 37 36 32 35 31 32 34 35 37 40 42 43 44 44 43 44 45 45 45 42 39
95 87 87 82 74 71 63 63 62 62 63 63 64 62 63 67 64 53 45 38 35 35 37 36 36 37 34 35 39 41 43 48 51 52 52 51 51 49 48 47 44 44 44
93 88 88 85 83 78 71 71 67 65 64 65 65 67 70 68 64 63 52 49 44 37 35 35 38 37 36 38 45 44 48 49 51 55 56 56 55 54 55 53 51 50 44
91 88 90 96 92 86 82 74 70 67 67 68 70 72 73 69 65 62 64 61 54 46 43 43 43 44 43 41 46 49 52 55 57 60 62 61 61 59 56 53 54 49 49
86 92 92 85 87 90 81 77 73 73 72 72 72 71 71 71 70 68 66 65 61 54 48 46 47 46 49 50 50 55 58 62 65 66 65 64 62 60 53 51 52 50 47
86 84 81 77 79 82 80 77 74 82 81 78 74 74 76 76 73 70 68 65 65 63 59 56 56 55 58 61 60 62 62 66 67 68 71 71 67 60 51 49 48 45 42
80 84 83 77 76 78 78 77 79 83 82 80 78 78 85 82 81 79 76 75 75 72 67 63 66 65 63 64 63 65 64 67 72 72 76 74 68 61 56 52 49 46 44
79 77 78 75 72 77 79 77 77 87 86 82 81 82 84 86 88 86 85 86 82 77 72 69 71 69 69 66 62 60 64 69 75 78 76 72 63 66 63 52 47 50 52
79 77 78 78 76 75 75 76 86 89 88 87 85 86 86 88 86 87 90 92 90 83 78 75 73 69 71 69 67 70 71 79 81 81 81 73 74 72 59 51 51 52 53
78 80 81 83 77 76 75 78 88 87 85 88 87 89 87 90 88 84 85 83 86 85 85 81 74 70 69 69 71 81 86 89 90 86 81 78 73 68 62 56 52 52 51
67 74 82 86 82 81 81 82 87 88 88 87 89 91 91 90 91 85 89 87 86 85 87 86 78 69 66 72 80 79 84 86 87 88 78 72 60 57 55 55 56 57 56
65 70 75 80 83 82 84 84 86 88 88 90 90 89 92 88 89 90 89 87 85 85 83 76 72 62 65 70 73 78 83 82 85 83 70 66 64 59 51 52 52 50 51
60 63 64 68 69 73 79 84 89 88 86 87 88 89 86 85 90 92 92 89 84 88 89 77 70 61 62 66 72 75 86 86 83 82 71 63 59 61 54 51 49 53 55
58 59 57 58 58 56 59 65 70 77 80 82 81 83 85 85 88 93 91 89 86 88 90 83 76 69 67 68 73 82 88 88 90 84 78 65 59 55 54 51 52 55 55
59 60 62 63 66 66 64 66 64 66 75 79 81 81 82 86 86 91 95 92 90 92 87 83 80 78 79 79 84 90 93 92 91 90 74 62 56 57 58 55 58 55 45
52 59 62 63 65 67 68 67 68 69 70 74 77 79 77 81 84 88 92 87 86 87 88 88 91 93 95 94 90 93 94 98 96 89 81 77 64 59 57 60 57 49 45
49 49 51 56 60 62 61 60 63 66 70 73 76 80 82 86 89 89 88 84 83 83 84 89 92 96 95 95 94 91 96 97 97 87 81 80 69 68 67 63 55 51 48
54 51 49 49 54 58 58 58 59 61 66 67 72 77 78 83 89 91 92 92 89 87 92 93 96 93 93 91 94 95 94 91 93 98 90 88 78 74 71 62 57 55 52
53 57 56 50 49 51 53 55 57 58 61 68 73 77 80 83 90 92 93 95 93 95 92 95 94 91 90 94 93 98 93 90 95 99 91 93 83 76 72 68 61 56 56
48 53 52 54 55 51 49 52 55 59 63 66 69 74 80 87 82 91 91 92 92 94 93 97 98 94 95 95 97 95 94 89 92 96 98 97 90 77 74 65 60 61 67
54 52 55 57 55 53 53 56 54 60 64 63 64 69 75 83 88 93 89 88 90 96 98 98 98 98 99 95 95 97 98 98 96 97 95 89 85 76 67 63 68 73 76
58 59 59 58 58 57 56 55 61 62 62 65 67 69 76 78 81 87 92 97 96 98 93 98 97 97 98 98 94 97 97 94 91 93 91 83 75 67 69 75 75 81 82
63 60 63 63 64 67 64 62 66 65 61 62 69 72 76 75 80 86 90 88 91 90 93 86 90 86 86 88 86 88 96 95 93 85 77 73 73 78 79 80 83 82 81
69 68 68 68 72 72 70 68 68 67 71 70 65 66 69 75 77 80 82 83 84 82 81 78 80 77 87 86 84 88 90 85 78 77 77 84 84 86 83 81 81 82 82

GFSMA_prec_cthk_084.txt.gz
RH
89 74 70 65 59 49 42 35 40 46 49 54 59 50 48 49 49 45 41 36 34 31 30 29 30 26 24 23 23 23 22 23 22 22 23 23 24 26 27 27 29 30 33
85 72 73 69 65 60 55 48 50 52 55 62 64 51 50 52 50 48 40 35 35 33 33 31 28 29 28 28 26 26 27 27 27 27 28 29 32 34 37 38 38 39 40
86 78 82 74 69 62 58 58 54 55 55 67 63 53 49 51 51 48 43 40 38 38 35 35 32 32 33 33 32 33 35 34 34 38 39 42 43 45 44 45 44 45 46
92 87 84 71 66 60 57 54 53 54 61 63 63 54 50 51 52 51 47 43 42 40 38 39 36 36 37 36 38 37 41 45 43 46 47 49 50 51 50 51 52 52 52
91 94 88 77 69 58 55 55 56 56 62 64 62 55 53 53 54 54 48 46 46 43 41 42 39 39 39 39 40 41 44 43 46 51 52 57 57 58 56 58 58 55 55
94 95 91 84 73 62 59 61 63 62 60 63 65 59 59 60 59 60 56 54 51 47 44 42 40 39 40 40 43 48 50 51 54 56 58 59 63 60 62 61 64 61 55
97 95 95 85 76 74 68 64 68 73 71 68 70 68 67 68 68 67 67 64 57 56 51 47 42 40 41 43 52 55 55 50 56 61 59 62 63 64 64 65 66 69 65
96 98 98 90 84 84 81 72 72 75 75 73 73 68 71 74 75 79 71 69 65 64 62 61 60 56 54 51 58 61 65 57 62 68 66 64 64 67 69 70 70 69 70
97 97 96 92 87 85 84 80 74 75 74 75 73 70 72 76 83 77 75 72 72 69 69 67 64 65 65 63 63 62 65 65 67 69 70 70 70 70 73 80 80 75 76
92 92 89 89 90 89 86 84 82 79 76 76 77 75 77 81 81 76 76 76 76 73 69 68 66 70 71 66 68 68 66 72 72 73 74 73 71 71 81 88 87 82 76
88 91 93 93 92 91 90 94 92 87 86 79 79 78 80 81 80 78 74 74 77 79 78 76 75 76 78 73 69 70 72 73 76 72 74 72 74 75 83 88 89 85 76
81 88 93 94 96 92 94 97 94 91 89 83 79 80 81 81 81 81 81 83 84 85 86 84 84 84 81 76 77 74 70 70 70 72 72 72 66 77 76 82 88 82 77
77 83 89 89 90 90 95 94 95 91 88 86 82 83 83 84 84 85 86 87 85 86 86 85 84 85 86 84 83 82 79 74 70 70 71 68 72 76 74 72 79 85 79
68 77 77 82 86 88 89 91 92 90 87 83 81 83 84 85 86 87 89 91 89 87 90 85 89 87 88 88 86 84 82 83 80 77 79 81 80 84 86 87 89 90 84
57 64 72 74 74 76 80 85 82 83 82 84 86 84 84 88 89 91 93 92 90 88 87 88 90 91 88 90 87 87 87 87 88 85 83 84 87 92 94 97 96 94 91
57 58 58 62 64 65 66 66 67 75 85 87 89 89 90 92 92 90 94 90 89 90 87 89 89 91 92 92 90 89 88 91 91 91 91 91 93 97 98 99 99 98 94
56 61 64 61 57 59 61 62 66 67 67 70 76 82 85 86 87 89 89 88 86 87 85 82 88 88 89 89 89 91 91 94 92 92 92 93 97 97 97 98 99 99 97
50 53 56 59 61 64 65 66 67 69 69 65 68 68 68 74 78 81 82 84 84 84 84 83 83 84 85 87 90 94 94 91 88 93 97 95 97 95 94 96 98 98 98
52 55 57 60 61 60 57 60 64 68 70 67 66 67 70 71 68 70 74 79 84 86 87 87 86 84 82 83 87 90 87 89 92 95 95 95 98 98 96 96 97 98 98
49 52 54 56 59 64 63 63 62 61 64 66 65 61 60 61 62 67 69 70 73 77 78 78 77 80 85 85 90 86 89 94 93 95 95 96 96 96 96 96 97 97 96
49 51 55 58 60 61 59 61 64 64 63 65 65 63 62 61 62 63 67 67 74 75 77 77 75 82 85 84 89 89 89 94 94 96 96 98 98 99 98 98 97 97 99
58 58 57 56 58 60 60 58 62 65 66 67 66 67 65 65 61 64 65 67 68 70 72 76 73 76 79 81 89 94 95 95 93 94 97 96 96 98 97 89 91 87 95
68 67 67 67 61 61 61 62 63 65 67 66 66 65 65 65 66 65 67 69 70 68 67 70 73 76 81 86 88 89 93 95 95 98 95 89 90 93 93 89 84 94 95
74 73 73 71 71 67 71 72 72 74 71 68 68 69 68 70 71 67 66 68 70 68 66 69 71 75 80 84 86 90 88 95 96 92 92 96 92 88 90 89 83 94 97
80 78 76 78 77 75 74 75 77 77 74 74 73 75 77 77 78 79 78 74 72 75 78 78 77 76 74 78 83 85 85 94 89 87 92 99 98 95 87 91 94 95 93
74 79 82 83 84 84 83 80 81 83 80 77 77 76 76 80 83 84 88 88 88 92 92 93 94 92 93 93 93 94 94 89 99 99 97 98 97 93 94 97 97 97 95

GFSMA_prec_cthk_087.txt.gz
RH
98 98 95 91 80 66 56 52 51 49 48 44 44 45 45 52 50 42 38 37 35 37 33 29 28 28 28 26 24 23 23 24 20 21 21 22 23 24 25 27 29 31 32
97 97 82 76 71 62 60 54 48 48 47 46 46 51 52 59 51 47 43 40 36 36 34 31 31 31 29 27 27 27 26 27 27 26 26 27 28 30 33 36 39 39 40
96 89 78 75 66 61 55 50 50 50 51 48 51 55 60 59 51 48 44 39 39 35 36 35 34 33 31 30 31 32 33 33 33 32 34 37 40 41 42 46 46 45 45
95 88 73 73 71 65 62 62 65 65 61 56 58 60 66 60 54 47 43 41 44 42 40 40 38 38 35 35 36 38 40 39 39 41 48 44 46 48 50 51 52 52 52
96 88 75 78 75 71 64 63 72 73 66 63 64 67 69 61 57 51 45 45 48 47 45 46 43 44 39 40 39 40 42 44 46 52 53 52 54 56 55 56 58 56 57
97 93 86 84 70 70 64 64 73 72 67 63 65 68 70 64 59 53 49 48 51 52 50 50 46 43 42 43 43 42 41 44 50 57 51 56 59 60 60 65 67 61 58
96 94 96 91 77 70 66 64 66 69 66 65 66 75 76 69 63 58 57 55 55 58 56 51 48 43 42 42 44 44 45 48 56 60 59 60 64 62 63 62 65 60 61
98 97 97 95 81 72 70 63 62 65 70 70 69 74 78 74 68 69 71 70 72 64 61 57 53 46 41 42 44 48 54 58 63 67 61 66 70 68 65 68 65 68 70
97 99 98 97 84 74 75 68 67 68 70 71 72 73 76 72 70 72 77 79 75 70 68 67 64 63 61 59 57 55 60 67 69 72 72 68 75 78 75 74 71 73 82
96 97 98 97 87 81 83 83 77 75 74 79 83 83 76 76 71 76 83 83 74 75 75 76 73 70 67 69 74 74 70 71 64 66 73 74 72 74 75 77 71 76 79
93 93 95 98 93 90 87 86 86 87 82 80 76 75 77 75 76 77 79 82 78 76 77 78 76 75 72 71 73 75 71 71 70 74 72 78 78 76 71 72 70 73 81
82 89 90 93 92 88 90 92 90 85 84 82 81 80 76 75 75 80 81 83 82 78 78 86 86 84 82 80 81 82 81 79 78 78 74 76 74 72 74 71 71 74 78
67 78 86 94 93 90 89 86 88 90 91 89 89 86 84 82 82 86 86 87 84 84 87 88 89 89 89 88 86 84 81 83 78 73 73 73 73 74 75 76 77 78 78
62 71 78 85 92 90 90 92 95 91 91 89 93 91 89 85 87 88 88 89 90 89 90 87 87 88 89 90 89 88 86 84 83 85 89 90 86 84 83 85 82 84 90
57 64 70 78 82 88 91 94 94 91 95 94 93 90 90 89 86 87 90 91 92 92 91 91 89 88 90 90 92 92 89 88 88 89 89 89 88 88 86 85 87 90 92
53 58 65 71 73 77 81 83 84 88 91 93 90 93 93 90 86 86 89 90 92 93 90 88 88 88 90 92 92 91 90 88 88 88 88 88 89 88 87 85 89 92 96
55 58 60 62 62 63 65 65 67 69 70 71 78 85 87 89 90 90 91 93 95 94 87 89 89 88 89 87 89 91 92 91 89 89 89 93 90 89 89 91 91 93 95
49 52 55 60 63 68 69 71 70 68 68 70 74 71 68 70 70 76 81 83 88 88 88 87 84 85 87 88 91 90 91 89 88 89 92 93 94 90 93 97 94 95 94
49 52 54 56 58 59 59 58 60 62 64 69 71 70 71 72 69 71 70 73 78 83 83 83 80 82 77 80 84 85 85 84 83 86 90 91 93 92 97 95 96 96 97
47 51 56 57 59 62 63 63 62 59 57 56 61 64 69 67 63 63 64 64 68 73 75 77 74 69 70 69 71 71 74 83 81 85 89 89 91 95 97 97 96 95 97
54 55 56 56 58 59 59 62 67 68 67 65 62 60 60 62 62 62 65 62 66 69 71 71 70 69 69 71 72 73 73 84 79 83 90 93 94 95 95 99 98 97 95
65 65 62 64 63 60 60 62 65 67 67 66 65 66 66 67 66 69 72 71 70 69 67 69 68 70 69 72 77 78 79 78 77 86 86 89 98 93 97 98 99 98 94
82 75 74 76 76 74 72 70 71 75 72 68 67 67 68 67 67 67 67 69 74 74 73 73 71 69 68 69 72 72 73 79 79 81 87 92 96 90 98 98 99 98 96
86 85 83 83 84 81 79 83 86 88 88 83 80 76 73 71 70 71 74 74 73 77 79 78 76 74 71 70 71 70 71 74 70 70 74 91 83 86 85 94 96 93 97
81 85 85 85 87 84 86 88 90 94 92 91 89 87 84 80 78 80 80 80 80 79 84 83 83 80 79 78 78 84 85 88 88 82 92 99 95 92 91 94 93 97 95
61 71 75 80 82 82 84 85 88 89 89 89 90 90 88 82 81 82 85 82 85 87 91 89 92 89 87 90 93 94 92 97 99 97 98 96 98 99 98 97 97 97 98

GFSMA_prec_cthk_093.txt.gz
RH
69 76 79 85 85 91 98 95 76 69 69 54 53 49 45 46 40 36 30 36 41 41 40 39 38 36 37 37 27 27 26 25 23 20 20 20 21 21 21 21 22 23 25
69 76 81 91 89 92 98 95 79 70 58 55 58 57 52 39 28 27 34 45 53 45 42 41 42 40 35 32 30 29 31 29 28 27 25 24 24 24 25 26 27 30 31
80 90 91 93 94 93 91 97 77 63 59 63 64 56 51 48 33 32 37 50 57 50 48 45 46 43 36 32 33 34 33 32 32 31 30 29 29 30 31 33 35 37 37
94 96 98 97 96 96 96 92 74 65 63 70 62 58 53 48 46 45 44 47 59 51 49 48 47 45 39 34 36 37 37 34 34 34 35 35 37 39 38 39 40 42 43
98 99 99 97 98 99 94 88 76 66 67 61 59 60 54 52 51 49 47 44 50 53 50 51 49 46 40 38 40 43 42 40 39 40 41 42 43 45 47 46 48 53 52
96 99 98 97 99 99 95 88 77 73 61 56 58 59 57 60 59 56 53 45 49 50 46 49 50 51 48 46 46 47 47 48 45 46 48 49 50 50 51 57 56 56 57
96 99 99 98 99 99 93 87 77 66 63 62 62 64 66 66 64 65 64 52 54 53 49 49 52 52 53 51 49 50 52 53 49 49 51 53 55 55 56 58 63 59 57
98 99 98 98 96 90 86 78 77 70 69 62 63 70 72 71 71 71 69 63 58 60 56 53 50 50 57 55 54 54 54 52 51 51 53 57 58 61 63 64 64 68 61
96 97 90 88 85 86 89 82 82 78 77 82 80 80 80 81 74 75 72 72 70 57 53 54 53 53 61 63 56 53 53 52 50 54 59 62 63 67 67 70 73 74 65
92 96 93 90 91 90 87 85 84 83 73 71 80 84 82 76 75 74 75 74 71 66 61 59 64 73 74 66 63 61 58 59 59 57 63 66 70 69 71 72 71 77 75
92 96 97 92 93 94 88 87 84 81 77 75 77 77 82 76 74 70 72 76 76 70 69 74 78 76 73 76 75 73 72 72 72 74 76 78 76 76 74 75 75 72 71
87 93 99 95 95 94 91 87 85 85 82 78 78 78 77 78 77 75 76 78 77 75 79 81 80 79 81 81 80 80 81 81 83 84 83 80 78 79 78 76 74 66 67
75 83 92 96 97 95 96 96 92 89 86 82 83 81 80 80 81 78 81 83 83 82 82 82 83 84 84 87 84 85 88 88 85 82 76 76 77 80 84 82 74 69 70
57 65 72 82 89 93 92 96 94 87 86 86 81 81 80 84 84 82 85 84 83 81 81 82 83 85 88 88 85 85 87 86 84 83 82 81 82 83 84 83 81 80 79
51 54 61 69 76 81 83 89 87 83 82 79 77 79 82 86 82 89 89 86 88 86 85 86 83 85 88 90 89 88 88 90 90 88 89 89 88 87 86 86 83 81 84
49 52 60 67 76 80 81 83 89 80 81 81 82 83 84 85 83 86 89 89 88 91 88 89 87 86 89 90 92 93 93 93 91 90 90 89 89 87 90 88 86 85 87
49 51 54 61 67 69 72 75 75 69 70 75 79 84 83 74 71 76 84 94 91 94 92 89 91 92 91 89 88 88 89 90 89 89 87 88 87 86 87 89 89 89 89
50 52 55 56 58 62 64 64 65 62 66 67 69 69 71 75 75 78 82 87 86 89 88 79 82 85 86 86 83 83 83 84 85 85 84 85 87 87 87 88 89 88 89
44 48 51 53 57 60 63 64 65 66 68 71 73 74 76 78 77 78 78 77 76 77 80 79 73 77 77 76 74 74 75 77 78 80 81 79 81 81 81 83 83 84 82
44 45 48 49 51 53 56 59 61 64 65 67 69 70 69 68 68 70 71 69 71 73 73 74 71 67 70 66 70 65 67 69 66 67 65 66 69 70 73 73 74 75 77
53 54 53 50 51 52 53 56 60 62 64 66 67 68 69 70 71 71 72 70 73 73 73 71 70 67 66 67 67 68 67 65 65 67 67 71 69 70 67 72 75 78 80
82 81 75 72 67 61 62 64 64 64 64 64 64 66 66 68 68 71 74 75 78 79 77 77 76 78 76 77 78 79 77 75 70 74 75 74 77 72 72 73 75 74 74
85 83 84 85 83 83 77 76 78 76 77 79 80 80 80 80 81 82 82 82 82 83 84 83 77 75 78 81 82 80 78 77 74 79 85 79 82 83 78 75 75 76 78
85 83 82 85 84 84 87 86 85 86 86 87 86 87 88 91 92 92 93 93 93 95 95 95 95 95 93 87 84 83 83 81 81 81 83 85 87 86 82 83 82 84 87
81 80 80 80 81 80 80 82 82 85 86 90 93 93 89 89 89 93 94 90 91 94 95 98 98 96 96 97 96 98 98 95 89 86 87 93 91 91 90 88 90 88 89
63 61 60 62 65 67 68 68 68 71 74 77 80 75 73 76 80 81 82 83 85 89 88 91 96 94 94 94 99 99 98 99 99 98 95 98 96 98 97 98 97 97 94

GFSMA_prec_cthk_096.txt.gz
RH
52 54 61 75 78 86 90 89 96 96 86 72 57 51 51 50 46 47 43 38 34 38 37 38 35 37 35 29 25 27 30 26 25 24 21 19 19 19 19 19 19 20 22
50 54 63 77 82 88 88 89 92 96 82 65 59 58 54 49 39 44 50 46 36 37 41 40 37 37 34 32 28 28 29 30 29 29 28 25 23 23 23 23 23 25 28
55 61 77 86 83 91 89 88 95 92 82 68 62 63 59 42 46 52 53 39 39 41 49 45 41 38 37 34 30 30 31 32 35 33 31 31 28 28 28 30 31 32 34
54 72 84 90 88 92 92 91 92 93 83 73 72 59 54 52 51 51 48 43 44 50 54 51 49 46 44 39 35 34 33 35 37 36 35 35 35 34 36 37 39 40 38
68 81 92 94 93 95 94 91 90 89 80 74 66 64 62 62 58 58 51 48 47 49 56 56 52 49 47 42 40 39 38 38 40 39 38 39 42 43 43 44 44 45 48
84 92 98 99 97 98 98 96 94 87 83 73 74 72 65 65 65 57 54 53 50 46 48 49 51 50 48 44 43 44 42 44 45 44 43 46 48 50 52 55 53 51 54
89 99 98 98 98 98 99 98 93 89 85 72 70 71 67 67 61 57 56 57 56 54 54 52 58 56 51 48 47 48 48 49 49 48 50 51 52 55 56 57 56 58 61
89 98 98 98 98 98 99 97 89 80 78 70 71 66 65 67 64 61 62 60 58 58 57 60 61 62 61 53 49 51 50 51 52 53 54 53 53 56 59 61 62 63 65
94 97 97 99 99 99 98 95 86 79 76 70 65 62 67 69 65 65 65 67 64 58 61 63 64 65 60 56 50 51 59 58 54 54 56 56 55 57 60 62 65 67 68
88 95 97 98 99 99 97 94 88 79 70 63 67 69 70 70 66 69 69 69 71 68 60 65 63 61 57 55 53 63 70 63 57 53 54 58 62 64 65 70 71 71 72
87 92 95 98 98 98 97 93 89 79 82 79 73 77 81 82 79 83 80 76 76 72 67 64 65 57 62 65 67 65 67 70 67 66 65 64 66 67 73 74 77 77 75
77 87 94 93 92 92 91 95 93 91 90 87 86 86 83 84 86 84 79 76 70 73 72 70 70 74 76 77 75 78 79 80 79 77 77 79 79 81 84 80 81 80 79
71 84 90 98 95 94 95 94 92 92 92 89 91 89 83 82 82 82 81 82 80 81 76 74 77 81 80 79 78 79 81 83 84 85 86 85 84 83 78 76 76 76 78
60 68 84 91 92 94 96 95 94 95 93 93 94 86 85 79 83 83 84 81 82 80 86 82 81 81 80 79 80 80 84 86 86 86 84 82 82 81 79 79 81 82 82
49 59 64 70 80 80 88 90 91 95 92 93 88 84 80 83 82 81 84 87 83 83 85 89 85 81 83 82 81 84 83 86 83 82 84 83 85 86 86 85 87 87 88
47 53 58 66 69 78 88 88 86 90 90 90 85 81 82 86 80 78 84 87 81 86 89 90 89 90 88 85 83 82 81 84 85 83 85 87 89 89 87 89 90 90 88
44 48 52 60 65 68 75 80 83 86 86 84 78 78 78 79 75 81 78 73 70 77 82 88 89 85 86 89 87 87 85 84 84 86 86 88 89 89 89 87 85 84 85
45 48 50 54 62 66 72 74 73 75 78 73 71 69 70 65 65 66 68 68 65 71 75 76 82 85 82 77 76 79 79 80 79 77 77 81 82 84 84 85 84 81 83
46 49 51 52 56 60 62 63 64 66 67 65 63 62 64 66 67 69 69 68 68 70 75 76 71 73 72 76 76 74 72 73 72 71 72 72 74 75 76 78 79 76 75
48 49 52 54 56 57 60 64 66 67 68 67 66 65 68 68 66 69 69 72 76 77 78 75 70 66 68 64 68 64 65 65 63 65 63 61 61 63 64 63 64 66 66
51 52 52 54 56 59 62 61 61 62 62 63 63 64 65 68 71 73 75 74 78 80 80 80 80 74 70 71 69 70 70 69 70 76 74 72 76 73 71 72 71 67 69
55 58 59 60 67 67 66 64 61 61 63 63 63 64 66 68 71 75 77 78 80 82 83 83 83 83 78 78 78 79 79 79 74 76 77 77 82 81 81 76 75 73 75
75 79 84 84 79 78 76 75 74 74 75 76 78 79 79 82 84 84 83 85 86 88 90 90 89 88 89 92 95 94 94 93 87 92 91 87 88 87 82 79 77 82 86
93 93 93 91 89 88 87 89 90 89 91 93 90 86 88 90 91 90 91 92 95 98 97 98 99 99 98 97 98 96 97 96 98 97 99 98 98 96 95 94 90 89 90
97 95 93 93 90 87 86 88 92 93 90 89 88 86 86 85 83 85 93 92 94 93 92 86 90 92 90 90 93 97 97 98 97 94 91 93 95 97 98 98 98 98 97
95 95 91 87 83 82 79 76 76 76 76 77 76 78 75 74 73 70 68 67 68 70 70 69 71 78 77 75 76 71 73 94 91 84 95 98 98 99 98 98 98 98 97

GFSMA_prec_cthk_099.txt.gz
RH
45 51 57 62 64 70 83 84 84 89 92 96 87 79 66 55 54 48 40 37 33 29 25 32 31 34 33 31 28 24 23 24 25 27 26 23 22 18 18 18 18 18 20
37 45 55 60 62 71 82 82 87 89 94 96 92 76 65 51 51 50 44 36 36 31 32 36 36 35 35 34 28 24 24 28 26 28 29 28 26 26 24 23 23 23 25
38 47 56 61 68 77 84 84 87 89 96 97 89 83 58 50 45 46 45 42 37 37 42 36 38 39 39 39 31 28 29 29 30 30 31 31 31 30 31 29 28 29 30
37 49 61 70 79 88 91 83 86 92 95 97 90 72 55 50 50 54 47 45 44 46 38 40 47 44 42 43 36 33 33 34 34 34 35 36 34 34 35 36 37 37 39
37 49 64 74 82 91 89 86 89 89 98 96 86 63 56 55 55 56 55 50 49 44 36 43 51 49 44 47 42 37 36 35 36 36 37 40 40 40 42 44 45 43 45
44 49 70 84 89 93 90 89 91 92 97 94 85 66 67 60 60 55 50 57 57 47 46 45 46 49 49 49 46 41 41 40 39 39 40 43 43 45 47 49 51 53 53
59 64 72 87 90 95 93 94 93 96 97 94 86 77 70 62 58 58 55 54 63 48 47 46 46 46 43 41 42 43 45 47 44 44 45 50 48 49 52 53 57 58 59
64 73 82 94 97 98 98 97 92 92 94 94 85 81 79 72 66 64 62 59 63 58 54 51 52 52 53 47 42 47 48 50 52 51 51 53 53 54 54 55 60 61 62
63 78 87 97 97 98 98 97 94 93 92 94 90 76 77 73 71 70 65 61 63 61 62 60 57 58 60 59 54 51 51 50 53 55 57 57 55 57 57 59 60 63 65
55 79 87 98 98 97 98 98 99 98 94 94 91 85 70 65 65 68 65 64 61 62 61 63 61 60 64 65 65 60 52 52 51 64 72 65 60 59 60 63 66 68 70
51 68 81 95 99 98 99 99 98 96 94 89 82 72 73 68 71 70 66 65 66 68 68 63 62 61 63 66 66 59 56 60 63 62 67 68 65 63 61 65 69 71 72
50 64 78 95 98 99 98 99 96 90 86 86 71 66 75 80 72 78 83 80 78 74 74 70 65 65 65 64 68 67 70 71 72 75 80 81 79 77 74 77 77 75 80
51 64 77 91 98 99 98 96 94 94 93 89 82 81 79 79 80 86 83 86 89 85 83 77 73 66 65 67 72 76 76 76 78 77 79 81 85 84 83 84 82 80 79
50 58 67 84 96 95 97 98 97 96 95 88 88 92 90 91 91 94 89 89 87 86 85 78 73 71 71 72 75 78 77 77 77 77 80 82 83 83 82 82 80 79 78
45 52 57 67 83 91 95 95 95 97 95 94 94 94 92 94 91 90 89 82 85 82 80 81 84 84 80 81 79 79 78 79 79 80 82 81 81 80 79 79 81 84 84
42 46 52 60 68 80 85 88 90 92 91 92 93 96 92 90 86 86 85 92 85 83 80 80 81 83 86 87 82 80 78 78 79 80 79 79 80 79 78 78 80 82 82
42 42 50 56 61 68 78 80 97 96 95 91 90 94 90 88 88 83 81 82 83 84 74 74 77 75 82 92 93 90 87 81 79 78 78 80 79 76 75 78 80 83 82
44 42 49 54 60 65 70 77 81 85 88 87 86 87 83 76 75 75 81 79 71 68 68 67 68 66 69 71 73 73 72 74 72 69 70 72 73 74 74 75 76 75 78
44 46 48 51 57 63 68 76 76 79 80 77 77 79 73 70 68 66 70 68 69 68 65 64 60 66 64 65 68 67 66 67 68 67 66 64 64 65 65 63 63 65 67
46 48 50 51 54 58 62 64 68 69 68 68 67 67 68 68 70 70 70 68 69 69 71 72 70 72 75 74 75 73 73 73 72 72 71 72 72 72 74 77 78 79 77
50 51 53 55 57 57 55 57 60 63 64 66 67 69 70 71 68 68 70 73 73 76 81 83 83 84 81 82 84 87 87 85 84 86 84 87 89 89 85 80 80 82 84
52 53 53 57 57 56 58 59 63 65 66 67 69 72 72 72 73 74 74 74 77 81 84 84 84 85 82 84 86 87 89 91 89 93 94 93 97 96 95 89 87 87 89
52 55 58 58 61 59 60 66 74 77 80 78 74 72 75 73 73 76 79 82 85 86 87 87 86 88 89 91 95 97 98 94 96 94 97 95 94 94 94 96 93 94 93
76 67 60 62 64 70 84 86 84 84 82 83 83 84 85 85 88 92 93 96 98 95 96 97 98 98 98 96 97 99 90 89 98 98 97 92 94 96 96 97 96 94 94
96 92 86 84 80 90 96 96 96 95 94 94 94 95 94 93 93 92 92 93 88 86 83 84 86 84 80 77 73 74 70 73 85 79 85 83 93 72 71 88 88 85 77
99 99 95 97 96 97 99 97 99 96 94 91 94 93 92 90 88 85 83 77 72 71 68 65 63 59 55 53 51 54 52 59 62 57 55 73 64 74 66 67 64 65 70

GFSMA_prec_cthk_102.txt.gz
RH
45 50 54 56 63 71 74 74 79 86 84 88 90 93 84 79 68 58 49 41 37 28 27 29 21 30 32 30 32 30 26 23 23 23 22 23 24 23 21 21 20 19 18
37 46 50 50 55 68 75 72 77 85 86 88 92 96 87 86 84 57 44 40 34 26 26 27 24 31 33 35 32 29 28 26 24 26 26 25 26 26 25 25 26 25 25
30 35 41 45 49 63 67 72 83 85 90 91 92 97 88 81 73 53 43 42 32 28 28 29 29 35 35 36 32 29 31 29 28 29 30 30 31 31 30 29 30 31 31
30 32 39 42 51 67 69 79 83 85 89 92 94 97 93 81 64 47 41 40 30 31 32 32 34 38 36 37 34 31 32 33 34 32 32 32 34 35 34 34 35 37 39
26 29 35 40 55 77 79 83 90 89 86 94 98 98 93 73 54 47 44 39 31 35 39 38 40 36 36 44 40 36 36 36 35 35 35 36 36 38 40 39 41 42 44
24 27 33 45 62 74 83 87 92 88 86 93 96 97 91 77 57 53 46 45 42 39 40 41 43 34 39 47 43 36 41 40 39 38 37 39 41 41 44 45 44 46 55
25 25 46 59 66 77 84 90 94 91 94 92 96 96 88 73 53 50 59 57 50 48 47 46 43 37 37 40 41 36 37 44 43 42 43 44 45 45 51 56 57 58 58
26 29 50 61 69 77 87 93 96 93 95 96 95 94 91 78 63 56 55 60 62 58 54 50 47 40 39 39 38 38 39 40 48 49 50 52 52 53 55 57 58 61 63
29 31 50 59 75 80 94 98 97 94 95 98 98 91 90 82 70 64 58 54 59 66 62 54 49 43 45 46 48 46 48 50 48 52 55 55 56 59 63 63 61 61 62
27 32 48 58 75 89 98 99 97 97 96 98 98 95 88 77 79 77 68 63 63 64 65 58 53 53 55 55 54 55 55 58 61 58 56 52 56 65 69 66 64 62 65
26 34 45 57 75 89 98 96 98 97 97 96 95 96 93 82 78 72 64 64 64 62 60 60 61 61 59 60 62 61 60 63 64 58 57 61 68 68 72 74 73 70 72
27 36 46 62 76 89 98 98 99 97 96 97 98 97 92 89 86 76 66 65 61 56 58 62 63 62 60 59 61 63 64 64 64 66 70 73 74 76 79 80 81 80 78
29 37 49 59 74 93 98 99 98 98 97 96 98 96 92 83 76 77 84 79 77 83 79 75 70 69 66 64 60 60 64 67 71 72 75 76 76 77 78 81 84 83 80
30 37 47 53 69 89 96 98 99 99 98 99 97 96 93 82 73 85 85 86 83 82 89 88 81 72 69 67 65 65 68 72 74 76 76 76 76 77 78 79 81 81 81
31 37 47 51 60 88 92 97 99 99 96 95 94 92 91 88 86 84 83 84 85 87 87 88 83 75 73 74 73 74 75 77 79 77 77 78 78 79 79 80 81 80 81
33 38 45 51 56 64 86 91 95 93 93 94 96 96 93 91 92 89 89 87 91 91 82 83 81 79 77 77 81 86 86 84 81 79 78 77 78 79 80 81 81 78 79
36 37 43 50 57 60 68 83 87 91 89 94 95 94 96 95 89 88 88 87 91 92 85 86 80 72 72 74 76 77 82 89 83 78 76 79 77 76 76 76 77 79 79
38 37 40 48 56 61 66 76 81 94 94 97 97 96 93 92 92 86 83 82 81 81 79 76 73 69 65 68 67 66 68 69 68 69 69 70 70 68 68 70 70 69 69
45 39 41 47 57 61 66 67 73 76 88 90 92 89 96 88 85 83 80 79 75 73 70 69 68 64 61 68 70 71 71 71 68 68 72 72 73 75 78 79 79 80 81
55 43 44 50 56 59 65 72 70 76 78 80 85 78 81 81 85 76 72 69 68 69 67 65 64 68 72 79 80 80 81 83 84 88 92 94 94 93 93 91 91 91 93
62 50 48 51 52 55 58 63 67 70 73 74 75 74 74 70 70 70 70 70 67 66 66 69 70 73 76 84 89 89 89 90 91 94 96 98 98 95 95 93 95 96 97
69 61 52 52 51 52 56 60 63 65 67 71 72 70 71 73 72 72 70 70 71 73 75 79 79 80 83 85 83 86 88 89 89 92 93 95 95 94 97 97 96 98 99
80 77 68 57 56 55 57 60 63 66 67 66 67 70 71 71 71 72 75 74 76 77 77 78 82 85 86 87 89 96 97 96 98 94 96 95 94 84 86 95 93 95 98
84 83 79 73 61 61 62 64 65 66 67 69 74 79 79 78 75 75 76 78 85 90 92 93 92 91 95 94 95 91 95 95 95 86 81 72 71 69 69 63 72 69 64
91 90 85 80 79 70 68 67 67 71 73 77 82 82 83 84 85 90 93 93 93 93 93 96 94 90 86 83 78 74 73 71 62 58 52 50 59 53 49 57 54 53 53
98 99 98 89 86 86 80 82 83 85 86 95 96 93 94 99 98 99 99 97 99 94 95 96 85 73 68 64 57 54 49 45 43 44 46 47 45 45 45 45 48 49 50

GFSMA_prec_cthk_108.txt.gz
RH
29 31 34 37 38 45 52 55 56 61 71 75 76 82 87 88 92 90 92 90 64 47 35 25 21 20 20 25 26 26 24 25 29 26 23 22 22 23 22 20 21 21 22
28 29 31 32 35 37 42 48 51 59 66 75 77 85 83 86 91 92 92 90 72 49 38 26 23 24 23 24 28 26 24 27 29 27 25 24 23 26 26 26 26 25 25
32 30 30 30 30 32 36 40 44 56 65 73 88 89 83 88 92 95 96 93 73 50 40 29 26 24 25 28 33 28 25 27 28 31 30 27 26 28 29 30 30 30 30
32 33 33 32 31 32 34 37 40 48 66 82 91 92 86 88 92 95 96 93 67 48 41 32 30 27 26 28 33 29 27 28 32 35 34 33 33 32 33 34 34 37 38
32 34 34 34 33 34 34 37 45 46 62 81 91 90 88 87 92 95 97 96 72 46 37 35 30 26 26 26 33 31 30 30 30 34 35 36 37 37 35 37 39 41 44
33 35 36 35 35 33 33 37 49 52 66 81 86 90 91 89 96 95 99 91 67 46 38 34 31 29 27 30 34 38 37 34 28 34 35 39 40 42 41 43 45 46 48
33 38 38 38 38 33 33 41 55 57 67 84 87 93 97 91 96 95 97 90 72 47 37 35 33 34 32 36 41 37 42 33 31 32 33 40 41 40 42 45 49 53 54
36 39 42 40 40 36 37 38 54 57 70 82 87 93 98 94 97 97 98 94 76 46 38 35 35 34 35 42 41 39 37 30 33 35 35 37 42 46 47 48 51 55 59
39 42 45 43 41 35 34 37 50 56 69 82 89 92 94 94 94 95 96 95 76 53 47 41 41 39 39 41 40 39 38 33 34 37 41 42 45 52 59 54 57 61 60
38 44 48 47 44 34 32 37 47 54 63 69 88 95 96 90 92 97 98 96 81 58 51 46 49 49 48 46 43 43 40 40 40 45 47 49 53 60 67 69 67 66 68
39 44 50 51 46 36 32 38 50 62 70 80 88 98 97 91 95 91 95 95 86 64 56 51 55 57 55 52 48 46 45 48 48 52 53 56 61 67 67 62 63 67 73
38 44 52 54 46 37 35 42 54 63 69 88 97 99 97 92 92 87 91 91 82 67 61 54 56 60 59 59 59 53 52 52 57 58 59 62 65 66 66 68 70 76 78
39 46 53 57 45 37 40 46 53 57 85 98 98 97 95 95 92 90 89 93 91 78 66 60 60 59 62 63 61 57 55 60 60 63 65 65 64 64 67 70 75 77 79
41 49 55 56 46 40 44 48 50 69 96 99 99 99 97 95 93 93 92 91 92 89 84 79 71 65 66 65 60 66 71 66 64 61 63 63 65 69 72 75 77 78 81
46 50 56 56 49 42 45 46 51 65 88 98 96 96 97 98 96 95 94 93 91 91 88 82 77 74 75 79 85 81 77 74 72 67 64 69 74 77 80 80 80 80 83
51 53 59 56 50 46 45 44 51 59 79 97 99 98 97 98 97 97 95 95 96 93 87 85 85 88 90 91 87 84 81 80 78 75 72 75 84 85 83 82 81 76 78
55 56 62 53 54 49 45 47 52 58 69 86 96 99 98 98 98 97 98 96 96 93 90 87 90 92 93 92 91 88 84 84 81 76 74 77 81 86 86 77 72 71 70
63 60 65 54 59 56 47 50 52 58 68 89 97 98 97 99 99 97 96 95 96 96 92 93 91 92 92 93 94 91 88 81 78 74 74 74 75 77 78 70 68 66 69
67 65 67 58 65 63 51 52 54 58 66 80 95 98 97 98 99 99 96 95 96 97 97 93 90 90 92 94 95 91 86 76 73 72 70 68 69 72 74 75 79 84 89
66 68 69 63 69 69 59 56 56 57 62 72 82 94 96 97 95 96 96 97 97 95 93 90 86 90 91 88 89 85 77 72 70 70 76 80 82 83 85 88 92 95 96
74 71 72 67 72 74 68 61 61 60 67 67 77 84 92 96 98 98 98 97 95 99 94 86 84 86 86 87 80 76 69 72 76 81 81 84 93 92 97 97 96 97 98
83 74 74 68 74 76 73 68 66 62 65 64 74 78 83 88 94 98 99 92 98 98 92 86 78 79 78 78 76 72 70 77 81 81 84 89 89 87 87 90 92 94 92
93 84 77 79 76 77 75 75 71 65 63 62 69 73 80 82 84 87 95 91 86 85 80 82 74 76 74 71 71 73 78 83 84 85 86 91 93 96 94 96 88 90 95
83 87 84 86 86 84 80 78 77 76 73 67 69 66 72 74 80 83 85 82 79 78 77 78 77 75 75 76 81 83 85 82 85 94 99 98 98 98 99 91 72 67 57
99 93 89 92 91 87 86 83 82 84 82 81 73 75 68 72 77 69 82 81 75 77 77 77 79 81 77 81 84 82 88 96 98 98 99 98 93 90 78 70 51 45 44
99 93 99 91 96 93 94 92 91 91 89 86 84 84 78 74 73 77 74 78 81 81 81 83 85 90 93 95 93 92 94 99 98 98 98 86 67 62 55 48 46 44 41

GFSMA_prec_cthk_114.txt.gz
RH
26 28 31 35 41 46 49 52 55 55 55 55 52 51 58 67 72 76 85 91 95 94 86 77 58 47 34 26 24 25 29 31 30 30 27 33 34 30 25 23 23 23 22
28 28 30 32 35 40 46 50 51 53 51 48 46 47 55 65 68 80 87 94 96 97 95 91 66 46 33 27 26 25 28 30 31 30 28 31 32 26 24 23 24 26 27
27 30 30 30 31 35 41 44 45 48 48 46 44 44 49 62 73 83 85 89 97 98 98 95 72 50 34 27 25 25 25 27 30 29 26 27 29 27 27 27 27 27 29
27 30 32 32 32 34 39 40 42 45 46 45 44 47 50 56 77 86 89 89 94 98 97 95 79 58 39 28 26 27 25 29 31 35 27 26 28 29 30 30 31 31 31
28 28 30 33 35 37 39 39 39 41 43 43 45 50 53 56 70 87 86 90 93 98 96 95 81 63 48 33 30 27 26 30 32 36 31 29 32 30 30 32 33 37 38
31 29 29 32 35 39 41 39 40 39 40 43 47 52 54 62 78 87 85 88 93 96 98 95 88 68 53 40 37 31 29 31 31 35 36 29 33 34 32 33 36 39 43
33 32 31 31 34 37 41 43 43 42 41 42 47 52 54 57 73 85 86 88 94 96 98 95 88 70 50 41 40 37 34 30 32 31 36 41 34 31 32 33 35 40 45
38 35 33 34 35 37 40 44 46 45 43 42 46 54 57 56 71 81 85 88 95 95 98 94 91 68 46 44 40 38 34 33 30 35 38 46 42 34 32 33 39 42 48
46 45 40 38 38 39 40 45 48 48 44 43 47 54 56 55 63 76 80 86 92 95 97 97 89 66 49 45 40 38 33 31 34 37 39 43 42 35 34 37 40 44 49
52 49 46 45 43 43 43 47 50 54 49 44 48 49 55 56 65 71 76 86 90 94 97 96 91 73 52 44 37 38 35 36 39 38 39 42 43 39 39 42 44 46 53
55 50 48 48 46 47 45 47 52 57 52 46 43 45 52 60 69 75 79 87 94 96 97 95 90 76 51 40 43 39 40 41 40 38 40 43 45 47 48 47 49 53 61
60 58 55 51 50 48 47 48 55 59 57 50 43 43 45 58 78 89 92 95 91 94 95 95 91 80 61 52 46 41 40 43 44 43 43 41 46 50 53 55 57 60 64
69 64 62 55 53 49 47 50 55 60 60 53 44 43 47 54 75 93 99 96 95 97 94 95 94 90 73 60 51 57 48 47 49 50 49 50 54 54 52 55 60 63 64
68 69 63 59 60 53 49 50 54 59 61 53 46 46 49 53 73 92 98 98 96 96 95 92 95 93 81 69 62 65 58 57 56 53 52 55 58 59 60 62 61 62 63
67 71 71 67 63 62 52 50 53 60 59 55 50 49 50 50 75 90 97 97 97 98 96 91 95 94 83 70 68 75 70 63 60 60 57 59 62 61 62 67 66 64 62
68 69 71 71 68 64 64 54 54 60 59 56 52 48 50 55 65 80 90 97 99 98 96 94 95 91 85 81 78 78 74 66 65 68 64 66 67 69 69 67 67 66 64
66 63 66 68 69 71 72 67 59 61 60 57 54 47 48 56 66 79 91 98 97 97 97 97 94 91 91 88 82 79 74 71 71 72 73 80 80 81 78 76 76 71 67
63 65 66 66 67 72 81 77 63 60 58 58 57 49 47 54 70 83 92 96 99 97 97 95 94 95 94 89 88 81 81 82 81 82 87 88 88 89 89 86 81 74 71
69 68 69 69 71 81 89 84 74 64 59 61 58 53 51 57 68 80 95 98 96 98 97 96 96 96 97 93 90 90 90 87 91 92 89 91 88 88 89 88 80 76 72
68 66 66 74 82 88 92 88 81 72 63 64 61 58 54 59 64 76 91 97 94 98 98 98 97 96 97 96 94 95 96 95 95 94 95 96 93 92 91 87 81 75 69
79 76 74 80 90 93 95 98 87 79 71 70 66 63 61 59 62 70 85 93 95 98 98 97 98 98 96 96 96 95 95 95 97 96 95 95 96 95 93 89 80 77 73
83 81 80 84 86 86 96 93 94 89 73 75 72 67 67 63 64 73 78 85 89 96 98 97 97 98 96 96 94 97 98 98 95 94 97 97 98 96 93 87 78 75 77
77 74 77 75 78 93 93 92 99 93 78 73 76 72 74 71 66 62 83 86 88 92 99 97 96 97 97 97 98 99 97 97 88 90 91 90 92 90 88 80 81 79 83
87 93 95 88 96 98 99 94 99 94 85 80 80 80 77 81 78 66 77 76 85 87 92 98 97 95 93 95 94 96 98 98 97 98 90 83 85 84 81 79 81 82 85
89 96 97 92 93 97 93 96 99 94 90 86 84 82 84 83 88 83 75 67 76 97 90 89 98 99 98 99 98 98 96 90 83 84 83 82 83 84 85 82 80 83 86
86 99 95 96 96 97 96 97 98 99 96 91 93 89 90 86 90 86 89 88 85 83 79 94 82 95 99 88 91 97 94 93 86 82 80 85 85 83 82 87 91 93 94

GFSMA_prec_cthk_117.txt.gz
RH
27 28 32 37 39 42 47 49 48 48 49 50 49 48 48 53 60 69 75 80 87 93 95 85 83 69 56 50 35 24 25 26 29 30 32 31 29 26 24 22 22 22 22
27 28 30 35 39 40 45 47 48 49 48 46 47 46 44 48 57 67 74 84 90 96 95 98 90 79 61 47 38 30 25 25 27 29 31 31 31 29 27 25 24 23 26
27 28 29 32 36 39 43 43 45 46 43 43 45 45 42 44 51 60 70 82 83 88 95 99 98 89 66 47 36 29 26 25 27 29 31 32 30 25 26 28 28 27 27
27 29 29 31 34 37 41 42 43 45 43 44 43 43 44 46 50 56 70 85 90 88 93 99 97 95 78 49 35 28 26 25 25 28 31 33 35 25 28 28 28 29 31
28 30 30 31 33 37 41 42 41 42 43 43 43 43 45 47 52 56 67 84 89 88 91 97 97 94 86 57 42 29 26 25 25 30 32 32 32 28 29 29 28 31 34
28 30 32 32 32 34 38 42 42 43 42 43 44 45 45 45 52 56 72 84 87 87 89 93 98 94 90 63 53 40 28 26 26 29 32 32 32 30 29 32 30 31 34
31 30 33 34 33 33 36 39 43 44 44 43 41 42 43 45 49 51 63 82 85 84 87 94 98 95 88 69 59 45 39 28 27 30 31 32 36 31 34 34 31 31 35
41 36 33 35 36 35 35 38 41 45 46 47 45 44 43 45 47 51 56 75 86 84 87 94 97 95 91 78 61 47 41 36 34 32 31 32 33 36 39 38 34 31 36
43 41 40 39 39 38 37 39 41 44 48 51 50 46 45 46 45 47 49 63 79 80 85 96 96 97 93 84 70 52 43 40 40 36 29 29 34 40 43 44 41 35 37
51 49 47 46 44 43 41 42 44 46 50 54 55 52 46 46 47 45 50 58 71 74 83 87 90 98 95 83 62 51 42 39 39 38 38 33 36 39 39 41 45 42 41
58 57 55 50 48 45 44 44 48 46 50 56 56 54 53 46 49 46 52 61 77 77 84 89 96 96 96 85 66 53 44 41 37 36 37 46 42 38 39 42 43 42 45
64 64 59 55 53 52 51 50 49 48 50 53 58 60 57 50 46 47 49 59 83 88 92 92 96 97 96 91 73 57 44 39 40 40 39 42 45 42 44 44 48 50 53
61 68 66 64 65 60 58 55 50 49 50 53 59 62 61 53 49 46 48 62 84 95 96 92 93 97 96 94 84 65 42 39 50 45 45 43 42 41 46 48 55 55 57
60 63 68 75 77 71 63 64 59 51 51 51 56 64 62 55 46 45 50 64 91 97 93 93 93 93 95 94 80 68 57 53 52 47 50 50 48 46 51 52 57 55 57
61 62 67 79 78 73 67 67 64 59 51 50 55 63 65 54 51 48 52 59 79 95 95 97 93 93 96 93 90 82 72 63 59 59 56 48 54 57 57 56 61 61 63
71 71 71 75 78 78 77 76 72 65 63 59 55 64 61 59 54 51 52 55 66 87 94 95 94 95 93 93 94 89 75 68 69 69 64 56 61 63 63 60 65 67 70
76 77 76 75 77 80 79 81 79 75 70 70 61 64 61 61 58 54 55 58 73 87 93 96 95 97 97 95 98 93 82 79 77 75 72 73 73 69 68 64 67 70 72
76 79 79 80 81 81 78 76 77 75 77 80 72 68 63 63 61 56 55 58 70 92 96 98 96 99 98 98 95 93 91 91 85 84 85 79 72 68 71 75 81 79 77
73 77 78 79 81 80 77 74 74 76 80 85 85 75 65 65 62 59 58 62 70 86 98 97 98 97 99 98 94 93 94 92 87 89 86 78 73 75 80 86 90 90 89
74 75 79 80 81 82 82 79 76 78 88 90 92 82 66 66 64 61 62 62 68 82 94 96 95 97 98 97 97 95 93 92 89 85 82 82 82 89 92 91 92 92 91
71 73 77 73 72 73 73 72 72 85 92 94 93 87 75 69 68 67 65 64 68 81 91 94 93 98 97 97 97 97 95 94 95 91 88 89 92 93 92 95 94 92 91
74 76 77 79 82 80 78 74 79 86 97 98 93 90 84 75 73 70 70 69 68 72 87 92 94 95 96 96 98 98 96 96 96 95 93 95 95 94 94 95 95 94 92
80 86 86 82 85 84 79 80 85 91 85 98 97 96 91 81 79 75 73 75 72 70 78 76 84 94 94 95 96 98 97 97 96 95 96 98 95 92 92 92 92 94 93
86 84 81 81 81 81 80 85 87 85 92 97 98 95 93 86 79 83 78 78 75 74 77 78 80 90 97 96 97 98 97 98 98 98 98 94 96 94 94 95 89 90 91
82 84 85 85 89 86 90 90 91 94 96 97 99 99 94 90 82 86 83 83 82 84 75 76 82 82 96 97 99 99 98 99 99 97 97 99 97 90 90 95 85 85 87
84 86 89 88 90 90 95 95 94 97 97 97 98 98 98 94 92 92 93 93 90 88 89 85 75 91 95 89 92 99 98 99 99 98 98 99 97 94 89 89 85 86 87

GFSMA_prec_cthk_120.txt.gz
RH
31 36 40 41 40 42 46 49 53 51 50 51 51 52 51 47 51 61 70 79 75 88 92 94 91 85 77 67 57 43 31 28 27 29 29 29 30 30 24 22 20 21 23
30 35 37 39 39 42 45 48 53 50 48 49 48 47 47 50 48 56 58 69 80 85 88 94 97 91 85 72 58 52 35 27 26 27 27 28 31 30 26 26 24 24 25
29 33 35 37 38 40 42 47 48 47 47 47 45 46 46 44 43 50 56 63 77 85 83 92 96 97 90 81 60 51 39 31 26 26 27 29 32 31 27 27 26 27 28
28 31 32 32 35 36 40 44 45 47 46 46 44 44 45 45 45 46 54 57 67 80 88 86 94 95 92 88 68 50 39 32 26 25 27 30 30 31 31 27 28 30 30
29 30 32 33 34 35 39 42 43 46 46 46 44 44 44 44 45 47 51 54 60 78 86 86 88 97 96 93 84 56 39 32 27 25 26 27 30 29 33 26 32 29 28
30 31 32 33 35 35 37 40 41 46 46 48 46 43 42 42 43 43 49 57 64 71 82 84 84 85 93 94 92 69 44 36 28 25 26 26 29 25 30 34 30 30 29
32 32 32 33 34 35 35 36 39 42 46 49 49 45 41 40 38 39 42 45 51 67 80 85 85 84 92 94 93 74 51 40 36 26 27 26 29 24 27 33 32 30 28
37 35 33 33 34 35 37 36 37 40 42 46 47 49 46 41 38 36 39 46 47 56 77 81 80 87 95 98 93 78 63 49 39 27 30 27 29 30 27 30 35 36 33
43 44 42 39 37 37 37 37 37 39 42 43 46 49 50 44 45 40 39 43 47 51 64 77 77 82 94 96 93 82 72 60 45 37 35 30 30 32 32 30 35 36 35
51 47 44 42 42 43 42 41 41 42 44 44 49 49 51 51 49 47 40 37 42 49 58 70 74 78 88 90 94 90 77 62 47 50 44 35 31 33 30 32 39 39 40
59 56 54 52 50 47 47 47 45 45 45 48 48 47 52 56 55 52 49 42 39 45 56 76 77 78 84 91 92 96 83 66 56 53 47 40 36 32 33 36 42 41 42
64 65 67 64 61 56 51 51 51 51 52 51 49 50 53 57 59 58 52 45 42 38 47 65 85 84 88 93 97 95 82 71 57 48 44 40 45 39 36 40 42 41 44
62 62 65 64 68 63 58 59 59 58 57 54 51 49 52 55 62 63 59 54 51 47 44 68 85 91 90 91 98 95 89 76 58 52 44 37 43 44 43 46 43 42 45
59 58 62 68 78 78 72 74 73 65 63 62 56 52 53 51 59 65 63 59 55 45 49 73 90 90 91 91 94 95 94 85 71 53 45 40 39 44 43 42 46 50 51
60 64 64 65 72 82 82 82 83 77 71 70 67 59 52 51 53 65 68 60 54 53 50 51 80 93 92 94 93 96 97 92 79 61 47 44 47 53 45 43 46 53 54
70 69 68 71 73 70 76 85 89 85 79 78 72 68 65 61 59 63 67 58 58 54 55 55 62 87 96 96 93 95 98 93 81 70 59 54 54 60 51 51 53 59 65
74 71 72 73 75 76 77 85 91 89 84 84 82 77 70 70 68 65 68 63 56 55 57 54 71 87 95 98 98 98 97 92 88 80 74 66 68 60 59 57 59 64 73
75 76 80 81 81 79 81 83 84 86 84 84 85 85 79 79 78 75 74 64 60 57 58 61 68 86 94 98 97 98 99 94 94 93 85 80 79 71 67 67 67 69 73
72 79 78 83 84 80 81 83 84 83 84 85 83 80 75 79 82 80 79 74 66 59 59 63 65 79 96 97 98 98 99 97 97 95 91 88 82 79 78 78 73 79 68
76 75 76 80 81 83 81 81 81 81 82 82 81 79 76 78 85 89 83 78 70 63 63 66 70 78 94 97 99 98 98 98 98 96 95 93 90 91 90 85 84 76 73
86 88 84 79 80 80 79 80 84 83 84 84 84 84 80 85 97 93 86 77 74 70 70 68 68 83 92 94 96 98 99 98 97 95 95 95 93 91 94 86 82 84 90
86 87 85 83 85 83 82 79 84 75 77 79 80 81 90 89 93 98 94 83 78 77 74 71 71 77 83 92 94 97 99 98 98 96 98 98 96 92 90 88 87 91 93
85 86 87 85 85 81 79 80 78 81 86 86 84 84 90 84 95 95 97 90 85 82 78 76 73 69 77 85 86 97 98 96 96 98 98 98 97 96 95 93 93 96 95
83 83 82 82 82 81 81 89 84 85 89 88 88 89 94 94 95 95 96 95 91 85 85 82 79 75 79 78 81 94 96 97 97 98 98 98 97 97 96 97 97 95 94
80 79 80 82 89 86 83 82 83 87 89 88 90 92 95 96 93 98 99 97 96 89 90 86 81 81 79 75 80 89 98 99 99 97 96 97 98 98 98 97 95 96 95
66 76 81 79 81 80 81 84 89 94 96 95 96 93 96 98 99 98 97 99 96 93 96 94 88 85 85 83 81 81 95 99 98 98 98 98 99 99 98 97 97 99 98

GFSMA_prec_cthk_123.txt.gz
RH
37 42 40 41 38 41 46 44 48 54 56 54 56 52 51 57 54 48 60 69 68 76 81 86 88 92 89 82 72 65 53 34 29 29 29 30 28 27 24 24 23 20 22
36 40 40 40 39 42 43 47 48 53 53 52 51 50 48 49 51 51 51 63 64 65 78 88 89 88 89 85 78 68 61 38 29 29 28 29 29 30 25 24 27 23 24
38 40 37 37 38 41 42 47 49 56 51 51 50 47 46 44 50 48 49 55 63 63 69 80 83 88 92 87 81 74 63 49 31 28 27 27 28 30 31 21 24 26 26
34 35 39 40 37 41 40 44 47 49 47 49 51 49 47 44 45 45 47 47 58 64 70 76 81 81 91 88 86 80 66 52 38 31 26 25 26 29 31 25 23 25 28
36 34 40 35 38 36 37 40 44 48 45 46 47 47 47 46 46 43 42 50 58 65 70 77 82 83 82 86 91 90 79 54 43 35 29 25 25 28 31 28 25 23 28
38 36 34 31 32 33 32 39 42 43 47 46 47 46 46 46 47 45 42 43 46 58 68 76 81 83 81 82 85 92 92 74 49 37 32 25 26 27 29 29 26 24 27
35 35 35 33 32 34 31 34 37 41 42 45 47 46 47 44 41 41 41 40 41 46 55 61 72 84 82 82 79 91 94 89 65 40 34 31 28 27 27 29 26 26 28
32 35 34 33 32 36 33 34 36 38 43 43 43 46 49 45 45 39 37 37 37 42 45 48 60 79 82 77 77 86 95 91 79 48 34 32 30 27 28 28 29 27 28
35 35 35 34 35 35 35 37 36 37 42 45 44 44 46 46 49 52 43 40 39 39 43 46 57 67 74 71 73 86 92 89 77 57 41 35 32 29 34 27 31 30 33
38 34 38 38 39 40 39 39 39 38 41 43 46 44 46 48 51 55 55 48 41 41 40 41 46 59 69 71 72 76 84 88 74 65 55 44 36 31 37 27 31 30 34
47 40 42 44 44 42 42 44 45 46 46 49 47 47 48 51 50 51 56 57 53 45 40 41 48 53 60 74 79 76 80 85 82 76 69 57 42 37 38 29 30 30 33
49 54 50 50 48 48 48 51 52 51 50 51 55 56 54 55 52 51 54 60 59 58 48 45 39 45 56 73 83 82 86 92 91 85 77 60 49 49 41 33 31 30 31
61 70 69 65 63 60 59 61 62 63 57 55 60 61 60 58 55 55 54 55 60 60 57 52 45 41 54 81 86 86 89 93 93 87 77 64 54 55 47 40 38 37 33
68 76 73 69 69 65 69 73 71 69 68 66 70 69 67 63 60 58 59 56 54 59 62 54 50 42 50 70 85 92 94 94 98 90 81 72 58 60 50 44 41 46 40
76 73 67 71 72 67 69 75 80 80 84 80 80 83 76 73 72 67 60 58 55 63 65 58 52 49 49 56 70 91 93 92 95 94 86 86 68 57 48 42 40 48 48
79 75 72 66 64 65 72 68 76 82 81 91 91 92 89 85 81 78 72 68 64 64 68 63 56 54 50 55 70 82 93 94 94 96 95 90 80 62 52 46 43 46 51
76 76 74 74 71 68 69 71 74 79 84 84 89 94 87 89 87 82 76 74 74 73 75 62 61 52 52 54 70 82 92 98 93 94 98 94 85 75 57 55 50 48 49
78 79 77 77 77 77 72 73 78 78 77 80 85 86 86 86 88 87 89 84 82 83 83 76 71 66 53 55 63 79 92 97 98 98 99 95 88 81 70 63 61 59 61
78 73 75 78 76 73 73 76 80 79 84 87 88 91 88 88 86 90 93 87 80 82 84 83 75 78 61 58 64 70 91 97 98 99 99 97 93 88 87 80 73 65 65
78 74 77 78 76 75 77 81 81 81 83 83 84 88 88 88 88 90 90 89 86 84 88 80 78 80 65 63 67 76 85 96 97 98 99 98 96 96 96 94 86 78 72
72 79 82 75 70 71 76 80 83 83 82 83 84 85 86 87 88 90 90 90 88 99 96 90 83 83 72 68 65 80 88 93 93 97 98 98 97 96 97 97 95 90 81
81 81 79 78 79 80 83 82 84 82 80 79 77 81 83 84 90 89 89 85 89 88 94 94 90 85 81 76 71 79 86 91 91 92 98 99 98 97 96 97 97 95 95
79 78 82 84 86 83 87 87 89 88 89 89 88 86 86 78 83 89 88 86 86 87 87 92 91 87 89 83 78 73 71 83 87 91 99 99 98 98 96 97 98 97 94
78 76 76 78 81 83 86 86 86 88 86 83 87 90 80 80 86 89 89 99 89 92 92 91 94 93 88 88 82 78 78 81 80 85 94 98 97 98 97 96 98 96 94
73 77 77 75 77 79 80 79 81 84 83 83 85 82 83 81 89 91 89 89 89 93 92 98 98 94 93 91 96 84 84 82 77 82 93 98 97 98 98 97 97 97 98
47 49 51 60 68 72 74 73 74 77 82 85 85 83 84 87 88 87 87 97 90 94 96 98 98 97 98 96 98 96 92 85 82 83 87 96 99 99 98 98 96 97 98

GFSMA_prec_cthk_126.txt.gz
RH
35 46 43 49 42 36 38 39 40 42 47 52 54 53 49 50 50 49 60 51 64 63 68 78 84 85 90 91 82 76 65 55 42 30 28 29 30 29 28 26 21 20 20
35 43 44 47 42 36 39 41 41 44 49 50 49 48 48 47 48 46 47 45 52 63 63 70 80 83 84 86 86 82 72 61 52 34 28 29 29 30 31 30 24 19 23
36 38 42 43 43 39 39 42 42 45 50 57 48 49 46 46 45 45 43 45 45 55 62 65 70 77 81 84 85 84 81 73 58 43 31 27 28 29 30 30 23 20 24
38 38 41 42 40 38 38 40 42 43 48 51 51 49 48 44 42 43 40 41 47 51 57 61 68 76 79 83 85 83 81 79 70 51 36 28 27 27 28 26 23 22 23
37 38 37 43 37 37 37 38 40 44 49 47 46 50 50 47 44 43 41 40 40 51 55 66 67 72 80 79 78 81 81 80 78 62 45 32 27 26 26 25 23 23 24
35 36 38 43 37 39 37 39 40 42 44 43 45 43 50 50 48 45 44 44 42 39 48 47 61 69 74 79 78 78 77 84 84 75 51 42 34 27 26 27 24 22 23
32 36 38 40 40 41 39 39 41 41 44 43 44 41 49 48 49 51 46 44 42 40 39 41 51 53 56 73 78 78 76 76 83 85 68 49 38 33 30 28 28 26 24
32 34 39 37 35 37 37 37 40 42 43 42 41 44 46 43 44 45 47 47 43 43 43 44 40 43 50 61 73 75 73 74 81 91 91 72 44 34 34 32 27 28 30
39 35 36 39 34 33 36 37 38 41 41 43 44 42 45 40 41 42 44 49 46 41 41 43 43 45 45 51 65 69 66 69 79 94 93 81 54 37 36 35 29 30 28
41 39 37 41 38 36 36 38 40 41 43 42 46 44 42 43 47 47 49 46 52 52 48 41 40 43 42 45 54 62 70 75 71 77 87 74 58 44 40 36 31 28 30
45 43 41 45 44 38 35 38 43 44 45 46 42 45 47 47 46 49 51 52 50 51 55 52 45 44 44 47 54 58 76 80 78 76 73 78 67 54 48 43 36 27 30
49 45 45 47 47 46 42 43 46 49 50 52 51 50 49 52 52 54 54 52 52 52 54 55 56 51 47 44 47 50 73 83 83 77 83 79 75 66 51 48 43 32 33
54 49 54 54 50 52 52 52 54 52 57 59 59 57 58 58 61 60 58 55 55 56 55 53 56 58 56 48 46 48 60 82 91 87 88 92 90 81 74 57 52 40 40
70 61 68 59 53 60 61 66 63 68 66 69 70 68 64 66 69 69 67 62 63 60 59 55 52 63 65 55 49 53 54 62 80 92 94 91 95 91 81 71 57 49 49
72 84 85 69 69 76 76 77 77 80 82 78 80 76 73 71 78 82 84 79 73 71 66 62 63 61 70 67 55 56 61 58 65 88 95 95 94 86 85 76 63 57 57
69 97 85 85 90 86 83 83 81 79 78 78 83 82 85 77 85 97 90 94 85 78 79 71 68 70 69 68 64 59 61 64 67 82 92 94 94 87 87 84 72 62 63
86 87 88 92 85 96 80 85 81 81 79 80 86 85 80 82 87 82 88 89 89 96 85 71 75 78 79 75 75 68 66 63 68 73 87 95 96 94 89 89 87 73 68
90 92 87 91 91 84 85 81 78 84 85 85 84 88 86 91 90 82 78 80 81 83 84 84 83 81 82 84 81 70 76 69 63 67 83 94 97 99 94 92 91 85 69
94 96 90 88 88 85 86 84 84 86 86 84 87 88 90 93 93 85 82 80 80 79 80 87 92 87 84 81 85 76 75 74 68 66 77 94 98 98 99 96 94 89 79
93 92 94 93 90 88 86 90 90 89 86 84 86 83 86 88 87 86 83 82 81 79 82 85 96 88 84 92 87 80 78 76 67 64 78 88 97 98 99 98 96 94 90
96 98 92 91 92 98 97 98 96 91 87 88 89 89 87 88 86 81 77 77 78 81 81 82 97 91 94 86 94 88 81 81 72 68 83 87 95 95 97 99 97 96 95
90 93 96 94 96 96 93 87 83 81 83 86 87 86 85 84 83 81 79 80 81 78 98 96 84 87 78 87 90 92 89 85 79 70 76 88 93 92 94 96 96 97 96
90 88 87 84 84 85 81 85 85 84 87 87 86 84 88 85 81 80 84 84 84 84 80 77 82 80 81 84 85 89 93 90 83 79 84 77 85 89 90 94 98 98 98
82 79 75 78 76 76 78 80 80 87 91 93 90 89 91 90 87 84 82 87 94 88 75 77 83 89 88 88 88 90 94 95 92 94 82 79 82 86 89 94 99 99 99
48 49 53 61 67 72 74 74 74 77 79 81 84 85 85 85 79 77 85 83 86 80 81 80 81 84 88 89 93 93 98 97 89 91 95 83 84 83 84 87 92 99 99
37 37 37 37 38 39 44 50 55 59 65 70 73 74 77 81 82 86 87 87 84 84 80 86 82 94 95 93 97 98 97 99 95 96 99 94 86 82 88 90 92 97 98

GFSMA_prec_cthk_132.txt.gz
RH
32 30 30 31 32 34 35 39 41 40 40 42 45 51 50 49 50 50 47 42 44 51 56 61 60 81 85 87 89 91 89 82 67 56 46 39 33 31 31 32 33 34 28
36 32 31 30 30 35 39 42 42 39 40 42 45 54 53 51 50 46 43 41 40 43 50 60 57 66 78 79 83 87 90 84 77 68 53 48 36 30 29 30 31 32 29
43 37 33 32 29 38 45 47 43 42 42 41 45 53 57 54 50 45 43 40 38 38 44 54 54 59 63 69 78 80 88 84 84 78 68 53 46 33 29 29 30 31 28
53 41 36 34 30 40 47 48 46 42 41 41 43 49 54 55 52 48 43 39 37 35 39 46 54 62 62 67 73 76 80 83 88 82 78 71 56 46 32 29 28 29 28
72 50 39 37 36 39 46 48 48 42 41 44 47 50 58 54 51 49 43 39 36 36 35 39 43 48 56 63 69 76 78 78 82 78 86 84 79 65 47 33 28 27 24
86 72 52 43 42 41 50 49 48 45 41 45 46 49 58 59 56 49 47 45 40 36 35 35 36 41 45 52 56 65 72 75 76 76 78 80 82 82 78 49 34 28 27
87 91 73 53 49 42 45 48 49 49 46 46 49 50 56 51 57 49 49 49 44 40 39 36 34 35 37 42 45 50 61 71 72 72 73 72 72 74 79 78 47 33 28
86 94 93 65 52 50 47 48 49 49 48 46 46 49 50 51 50 51 49 47 44 46 44 43 40 39 37 37 41 43 47 63 72 73 72 69 69 70 68 73 62 49 34
77 91 95 87 61 56 48 47 51 49 47 45 47 47 49 47 46 44 43 43 43 44 46 48 47 45 43 40 38 41 44 46 55 62 67 70 72 69 71 84 84 61 49
65 89 93 90 75 60 51 48 50 48 46 44 48 50 48 43 45 44 45 45 46 46 46 46 49 51 49 47 46 44 43 44 49 55 61 75 84 81 77 76 78 81 69
46 77 90 98 90 71 55 53 51 51 47 44 44 49 53 49 46 42 40 42 47 49 50 48 46 47 52 53 53 50 44 41 46 53 55 59 80 88 83 80 62 63 82
24 58 88 91 96 84 61 54 52 53 48 47 46 49 49 49 45 46 45 47 46 52 57 55 53 52 50 51 53 56 51 48 49 50 50 53 60 76 86 83 66 57 59
19 41 69 95 95 98 68 62 60 57 50 49 46 46 51 51 51 54 53 54 55 58 62 63 65 63 61 56 52 53 57 55 51 51 51 55 59 61 69 80 81 71 65
22 29 57 79 94 88 85 65 69 61 58 52 50 47 46 51 56 58 61 63 63 63 67 70 75 73 71 71 64 58 58 61 59 56 55 56 58 61 64 70 80 88 81
27 30 44 56 87 82 98 72 68 72 62 57 51 50 53 56 60 64 68 68 72 72 72 74 82 79 80 83 80 76 70 66 64 67 62 58 65 61 64 66 79 86 93
37 31 32 59 83 97 91 79 75 73 63 62 58 57 57 62 62 69 74 78 83 84 83 81 78 73 80 86 90 89 86 80 76 72 71 67 68 72 76 70 65 77 90
45 41 39 57 81 92 91 90 80 82 78 77 71 69 70 74 74 74 82 89 92 90 94 87 77 75 79 89 91 87 90 92 89 83 81 83 78 74 77 80 76 67 80
52 34 47 69 88 92 99 96 92 85 86 77 74 73 76 82 83 84 96 91 91 93 92 88 85 75 79 86 89 89 88 88 91 89 88 84 84 84 77 81 83 71 70
65 49 49 67 80 84 90 97 87 96 94 81 80 81 93 94 90 85 85 87 97 98 97 96 91 85 81 83 82 84 80 81 83 90 93 91 90 87 81 79 82 80 67
80 63 64 76 97 98 98 99 97 97 98 98 93 92 99 92 91 90 88 92 91 94 94 94 91 87 85 84 86 83 81 81 81 85 88 90 92 92 86 78 79 81 75
89 72 69 81 91 93 96 98 97 96 98 99 98 97 99 98 92 96 93 97 92 91 89 94 93 86 85 87 82 80 79 80 80 88 91 93 89 88 88 81 85 86 81
88 76 78 77 80 96 98 99 98 98 98 99 99 99 98 93 93 94 92 95 96 94 90 90 88 85 85 85 82 79 81 80 80 90 93 89 87 80 80 85 83 84 83
81 82 81 87 97 99 98 96 98 98 98 97 97 97 95 92 93 90 97 91 89 84 81 78 76 76 76 81 75 82 77 81 85 86 91 89 79 71 74 78 81 86 86
47 52 57 64 69 72 77 86 89 86 85 86 86 86 89 89 86 84 79 77 79 81 78 79 74 73 72 73 79 80 82 76 78 84 88 79 70 71 72 80 83 82 87
29 31 30 37 42 45 48 49 51 53 56 58 60 60 60 61 63 66 63 65 69 69 67 70 72 71 71 76 76 71 74 76 80 81 88 87 74 72 74 77 83 87 87
14 15 17 17 19 23 27 28 29 28 27 27 29 31 33 36 40 44 47 48 50 52 55 61 66 70 72 73 73 76 77 77 80 76 83 95 87 79 73 80 85 86 88

GFSMA_prec_cthk_135.txt.gz
RH
56 46 40 37 36 36 36 36 35 37 43 45 45 42 44 44 44 47 46 41 39 43 51 60 66 75 88 93 92 92 90 87 85 71 58 51 43 37 32 31 32 32 34
83 60 47 40 38 38 36 36 37 39 44 46 45 44 46 51 49 48 47 43 37 36 40 53 61 66 72 81 85 88 87 90 89 80 68 57 49 41 33 30 30 31 33
82 90 65 47 39 39 39 39 40 44 45 46 45 46 52 55 54 50 45 43 38 34 34 42 57 54 59 72 77 78 80 87 85 85 81 72 61 49 41 31 30 30 30
79 88 93 62 45 42 40 41 43 45 48 44 44 45 49 59 64 52 47 42 40 35 32 36 45 52 56 60 73 79 75 80 82 83 85 77 70 61 49 41 29 29 30
59 86 93 85 56 49 43 43 47 48 49 45 45 47 51 54 57 54 50 45 41 39 35 36 40 44 53 57 62 76 74 76 77 80 82 81 81 82 64 55 43 31 28
25 65 92 90 83 56 51 47 52 54 50 48 47 48 50 56 61 54 49 45 41 36 38 36 36 38 41 50 68 64 72 81 79 77 77 76 81 87 85 78 70 50 36
15 35 74 92 86 76 46 50 56 59 55 53 52 51 59 62 63 61 50 46 45 40 36 35 36 35 36 40 45 51 57 63 78 75 72 69 70 71 69 70 79 85 64
15 20 52 91 96 80 54 53 56 61 58 57 51 57 59 58 54 56 56 47 47 44 40 38 37 35 34 35 36 40 45 48 57 72 72 68 67 67 66 65 65 67 73
18 18 26 61 80 94 80 58 55 62 60 61 55 54 54 49 52 48 48 46 47 45 44 44 43 41 40 37 36 35 38 41 43 54 65 65 64 66 71 73 66 64 73
20 19 22 38 80 89 96 74 58 63 66 63 63 60 49 46 50 48 44 42 43 42 42 43 44 47 48 44 42 41 39 38 39 43 48 58 64 65 77 84 80 76 81
23 21 21 27 66 91 99 94 69 70 66 67 59 57 52 49 49 45 41 40 41 41 45 46 46 47 48 50 49 46 47 45 41 43 47 49 56 59 63 78 84 78 78
26 25 22 24 38 78 89 96 89 72 70 68 65 58 53 51 46 47 43 42 40 42 46 48 50 51 51 50 50 51 50 49 46 46 47 49 52 54 57 60 69 79 85
30 27 27 23 28 57 81 91 97 80 75 72 63 57 53 54 52 52 49 46 42 44 48 49 53 58 60 58 57 55 52 50 50 49 50 51 52 55 57 59 65 69 78
39 32 31 26 23 39 59 87 95 97 79 73 67 66 56 57 57 57 53 50 51 53 55 53 55 57 62 66 66 65 63 63 55 53 54 53 54 57 60 62 63 65 72
49 42 39 32 24 27 46 75 92 88 94 79 67 71 66 65 60 62 59 57 57 58 58 56 60 61 66 73 76 78 77 75 72 68 64 62 64 60 61 67 72 76 70
53 45 41 38 31 19 41 66 80 88 98 86 77 69 67 70 63 62 61 64 63 63 63 62 66 71 77 77 77 78 84 82 82 79 75 77 72 66 63 66 71 77 80
62 50 44 36 32 23 24 44 86 91 94 88 88 74 72 74 72 64 62 62 67 67 68 65 76 84 85 83 81 80 91 92 91 88 86 88 85 81 79 78 76 76 79
67 56 49 47 36 42 45 37 64 84 87 95 96 88 92 85 66 70 69 67 70 67 72 79 86 89 89 87 85 84 87 92 89 89 87 89 89 86 85 83 79 84 80
84 73 64 55 48 48 49 54 66 75 90 97 97 92 86 77 75 75 77 77 78 81 80 84 96 86 88 90 89 85 82 85 83 84 86 88 86 87 88 88 87 87 84
85 84 70 60 57 54 71 64 65 76 95 95 97 99 88 90 85 83 83 82 87 83 90 87 96 95 98 94 91 89 84 85 83 83 82 83 84 85 86 88 87 88 86
91 85 96 81 71 79 84 77 74 77 89 98 97 95 99 97 99 94 95 92 97 90 98 95 99 96 94 95 94 88 86 82 82 79 80 79 82 84 84 90 90 91 87
98 99 98 91 77 83 80 72 85 91 93 98 98 98 99 98 98 98 98 98 97 98 98 100 94 99 93 96 95 94 87 82 89 80 76 73 81 80 81 85 91 84 81
76 88 95 98 93 80 74 68 80 82 89 98 97 97 95 95 96 96 98 95 99 98 98 99 96 98 98 90 89 90 84 82 80 83 77 72 79 79 79 82 83 86 79
38 42 50 58 59 57 60 56 61 69 82 90 92 94 94 95 95 97 94 97 95 93 95 96 97 97 97 90 82 77 74 69 70 72 75 71 79 78 74 78 78 78 77
19 21 25 27 30 37 39 37 38 38 40 44 45 50 55 59 63 67 70 68 69 72 76 80 78 74 75 76 73 69 68 70 67 69 70 67 68 74 74 74 77 76 79
11 13 16 15 22 22 22 22 19 20 24 31 31 30 32 34 35 35 37 43 46 46 48 50 49 47 49 53 59 61 63 66 68 67 68 69 64 72 66 68 68 69 76

GFSMA_prec_cthk_141.txt.gz
RH
11 24 44 64 74 70 65 59 48 47 47 43 39 39 41 44 43 42 42 41 43 42 44 48 61 66 75 83 85 91 93 91 88 78 72 65 56 50 43 39 34 34 38
14 12 14 38 58 71 72 68 59 46 44 46 41 41 42 44 45 42 44 43 43 44 41 40 49 60 72 76 85 86 89 95 91 83 81 76 72 58 48 43 38 37 33
13 13 13 13 26 51 67 75 73 57 47 46 46 43 44 45 47 45 45 46 46 45 42 38 37 47 64 69 78 81 86 89 88 87 90 85 79 73 55 45 43 38 34
13 13 12 12 12 32 54 68 77 80 55 47 50 45 44 45 47 46 44 49 49 47 44 38 35 37 51 61 66 72 80 80 84 82 86 85 83 77 68 59 48 44 39
14 13 11 11 12 13 32 59 72 86 83 51 49 50 46 45 48 47 45 49 52 52 47 41 35 34 42 53 57 68 68 74 79 77 76 77 77 80 72 63 60 54 46
17 16 13 11 11 13 18 40 69 78 91 71 51 52 54 48 51 47 47 51 56 56 48 43 37 34 37 46 49 58 65 68 74 75 72 74 74 75 72 63 68 70 71
23 21 19 15 12 15 20 25 49 64 95 89 62 60 61 56 55 49 51 52 55 57 50 45 40 34 34 39 42 52 58 61 71 72 69 76 73 70 69 65 73 67 66
29 26 24 21 18 19 19 28 30 55 75 85 87 66 67 64 59 54 51 53 57 58 50 45 41 36 34 35 37 39 48 57 63 69 67 71 73 73 67 62 64 65 58
36 34 29 26 24 28 23 27 31 37 64 95 96 79 65 65 58 62 49 53 56 61 58 47 40 37 36 34 34 38 40 44 49 56 65 60 65 71 69 64 63 61 61
40 42 39 31 27 31 28 31 32 27 29 40 87 96 66 64 67 65 55 49 57 63 64 51 41 37 36 35 34 34 35 37 39 40 45 56 54 60 64 62 61 60 59
46 46 46 42 35 32 29 33 39 31 38 33 52 98 90 70 70 70 58 50 55 58 60 53 44 39 36 36 38 38 41 39 38 39 39 41 44 49 50 55 58 58 55
47 52 51 48 42 36 31 35 38 36 32 42 42 63 93 82 70 74 65 53 46 53 53 52 47 42 42 41 41 42 45 46 45 47 47 45 42 41 45 50 53 56 55
46 48 55 53 47 43 35 39 39 40 30 31 56 72 94 90 77 77 78 64 57 56 52 49 47 46 43 41 43 46 48 50 52 51 52 52 50 47 48 50 52 53 58
56 57 55 58 55 50 45 45 41 35 31 27 31 49 58 87 80 83 84 71 62 57 55 48 45 43 41 43 44 48 51 52 53 55 57 55 54 52 50 49 51 54 55
58 59 64 61 64 59 54 51 46 36 36 28 23 32 64 92 97 94 93 85 72 61 55 47 42 39 42 44 47 50 53 55 60 61 61 63 63 62 60 54 52 55 57
71 73 71 78 68 67 62 55 47 39 36 24 23 33 36 69 93 96 97 93 82 70 59 50 45 43 45 45 48 52 55 57 60 64 67 71 74 75 76 72 67 64 62
78 94 93 90 84 74 70 59 51 43 39 32 27 31 41 60 77 94 97 96 92 78 67 59 54 53 52 51 52 57 59 60 61 65 68 72 78 81 83 83 82 77 74
89 90 93 92 88 76 74 63 55 46 39 35 32 32 39 43 64 81 93 96 96 90 79 65 64 62 59 57 58 61 62 63 66 68 71 74 76 80 86 91 91 86 81
87 92 92 84 81 73 72 64 55 48 45 46 47 47 44 51 68 78 87 98 94 94 89 82 78 73 70 69 66 65 66 70 73 73 75 76 82 84 87 91 89 89 88
93 97 97 94 86 69 60 57 51 48 48 50 53 53 60 59 60 83 98 93 97 97 95 91 94 92 89 81 78 76 73 73 78 80 82 81 86 93 91 91 89 87 84
96 97 97 97 96 87 81 79 74 71 69 67 62 58 64 68 72 79 82 90 95 92 95 97 96 98 94 90 83 79 81 80 80 85 86 92 94 92 92 93 90 85 83
62 73 85 94 92 97 93 88 83 81 90 88 98 95 82 74 78 76 75 82 91 94 94 96 97 95 97 93 88 89 88 88 87 89 91 92 95 98 95 92 89 89 87
35 44 52 55 59 65 70 84 92 97 97 97 96 98 89 90 88 81 80 79 85 89 94 95 98 98 98 98 94 93 96 97 97 98 98 95 96 98 98 96 94 88 87
17 23 30 35 44 46 44 42 43 47 51 61 72 80 89 92 87 84 83 85 82 91 93 97 97 98 98 98 97 98 99 97 94 96 97 96 99 98 99 97 94 92 89
11 14 18 21 29 32 28 30 26 28 32 34 39 42 44 47 50 57 63 63 66 71 75 82 87 90 92 93 96 97 96 97 97 98 98 98 97 96 96 94 95 93 88
11 10 10 14 17 16 15 20 19 25 22 23 22 23 23 22 21 24 28 33 40 45 50 54 57 60 63 68 74 76 76 77 83 86 90 89 85 89 88 88 89 88 86

GFSMA_prec_cthk_144.txt.gz
RH
13 13 11 13 22 38 62 76 66 64 69 70 56 55 47 46 49 53 53 47 43 44 47 48 60 68 71 74 81 85 90 91 91 86 74 65 60 55 52 49 46 46 40
15 14 14 12 11 19 32 52 71 67 67 71 65 52 51 47 47 52 52 49 45 43 46 45 50 55 62 73 82 86 88 93 91 91 78 72 69 62 56 51 44 40 38
14 13 13 14 13 12 22 35 45 68 70 72 71 59 55 51 47 51 51 51 49 45 44 45 44 43 52 66 74 82 85 88 93 96 85 79 78 73 68 56 46 42 41
16 15 14 13 14 13 13 20 34 48 65 73 69 67 56 57 51 52 51 53 54 53 47 45 44 41 39 49 66 71 80 86 90 87 83 85 83 81 78 73 56 46 47
18 17 17 17 15 14 15 16 17 30 47 68 71 67 68 62 60 55 51 52 55 56 57 50 45 41 36 37 52 60 68 76 86 82 88 82 80 78 79 78 65 56 51
24 23 22 21 20 17 16 17 17 20 32 60 71 72 59 63 63 59 55 54 54 56 57 61 53 46 37 34 39 53 58 69 73 78 83 77 78 76 78 81 69 56 51
27 26 25 22 22 25 23 19 19 21 26 35 65 69 75 69 60 61 59 56 54 54 62 64 61 54 43 35 35 45 49 62 68 71 77 75 75 77 75 74 70 61 68
31 31 30 29 29 29 27 25 23 23 25 31 36 70 92 92 82 63 60 56 55 54 62 68 64 56 54 40 32 37 41 53 62 67 73 73 70 74 74 72 68 65 70
40 39 38 35 35 33 31 29 28 27 31 32 37 52 85 95 87 68 63 59 59 58 62 66 65 59 52 49 37 33 38 42 55 62 68 68 66 69 71 74 69 62 63
43 42 42 39 38 37 35 33 31 35 36 37 43 45 56 64 89 85 72 62 56 61 63 66 67 60 53 46 45 35 33 37 40 50 59 68 66 63 62 68 68 63 61
48 46 46 45 44 42 39 40 37 38 38 41 45 46 44 62 71 95 84 72 64 59 64 64 63 65 56 44 44 39 31 34 35 37 42 48 54 58 58 58 61 59 58
53 52 49 47 45 46 45 44 43 39 36 39 50 48 35 38 50 78 91 81 71 63 59 66 68 70 62 47 39 38 32 33 34 33 34 35 36 40 47 50 52 56 56
57 57 53 52 52 49 47 48 46 44 43 40 41 45 36 25 27 37 62 77 84 75 69 65 65 71 69 51 40 36 33 37 39 40 39 40 41 41 43 44 47 51 53
60 59 56 53 54 55 51 51 53 49 51 52 58 53 50 44 36 43 63 86 92 89 83 67 62 68 67 57 47 41 41 41 44 45 45 44 45 48 49 47 47 49 52
61 63 62 57 58 58 58 56 58 58 55 55 58 57 56 52 51 59 64 78 86 92 95 75 67 62 58 58 53 47 43 42 48 49 49 49 50 51 53 52 53 54 53
67 69 73 74 74 70 63 63 64 66 65 67 61 53 52 50 47 65 73 86 96 97 97 85 77 61 56 57 54 48 46 48 51 53 53 55 59 61 61 64 66 68 67
72 73 78 82 89 90 74 71 72 76 73 66 63 58 47 46 48 45 65 80 76 90 96 90 85 72 64 60 52 46 48 49 51 56 58 59 62 65 68 72 74 77 79
80 78 81 86 96 98 92 87 81 80 73 64 58 52 49 49 45 47 49 71 77 93 98 95 92 83 71 68 56 50 51 53 54 56 63 65 65 70 70 74 78 80 82
85 84 87 91 97 98 99 90 87 80 73 63 57 52 45 44 50 46 54 56 72 83 92 91 98 94 88 84 76 67 65 62 63 64 64 70 71 68 67 69 73 80 86
95 95 95 93 79 85 84 91 89 83 74 67 61 54 48 46 51 57 57 53 61 83 86 82 96 98 94 88 84 80 80 76 68 64 64 68 70 71 73 74 75 78 85
61 81 95 97 96 85 79 79 75 72 67 61 59 56 59 59 57 62 58 71 75 65 97 94 93 98 98 91 95 92 88 87 79 77 73 73 75 78 78 80 81 82 85
38 52 52 58 78 94 93 93 91 82 87 82 73 77 67 67 69 72 82 71 81 89 97 89 98 96 97 99 95 98 98 98 96 89 86 81 82 83 83 83 92 92 94
21 32 41 45 51 51 51 59 67 76 85 90 96 97 96 91 76 81 92 84 91 91 83 94 98 97 97 96 96 96 96 95 97 97 92 93 86 86 84 85 87 91 93
14 16 29 34 33 34 34 33 36 41 46 51 59 64 67 74 88 95 97 93 93 90 81 90 89 92 97 99 95 95 97 98 98 98 95 96 92 95 91 92 97 99 93
21 17 14 21 22 22 26 26 30 29 32 33 33 36 39 43 46 50 56 62 66 79 82 90 87 85 86 90 96 96 97 97 98 99 99 97 94 95 98 97 98 96 98
23 23 20 13 15 19 18 12 14 18 16 18 19 23 29 33 32 29 27 31 37 41 41 44 51 52 58 65 74 85 87 90 95 94 95 98 98 98 97 98 98 98 98

GFSMA_prec_cthk_147.txt.gz
RH
15 14 14 14 12 12 19 32 45 72 77 78 70 69 71 68 54 54 49 62 52 44 42 42 47 55 63 75 78 75 80 84 89 89 86 80 66 64 66 62 58 58 55
16 16 15 15 16 16 16 18 32 40 62 80 84 69 70 73 67 52 49 65 61 48 43 42 46 49 60 66 73 79 85 87 90 90 91 86 71 67 61 58 55 52 52
22 19 18 17 16 16 17 16 19 24 31 52 77 83 72 71 73 63 52 50 62 49 44 43 43 48 54 57 64 73 81 86 87 94 91 90 78 70 66 61 55 52 47
26 25 24 23 22 20 20 20 19 26 28 30 47 73 79 71 69 72 60 52 58 53 48 44 43 44 49 51 51 64 74 81 84 91 94 91 84 80 78 73 68 60 51
27 27 26 25 25 24 23 22 20 21 26 30 26 48 71 81 69 72 68 58 57 55 51 47 44 45 45 49 43 46 65 73 79 84 89 89 85 81 80 81 79 74 63
31 30 28 27 28 26 26 25 24 23 23 27 34 28 45 74 78 66 72 75 62 62 54 51 48 47 46 44 41 37 47 66 70 78 88 84 88 82 78 76 77 77 68
33 33 32 30 31 30 29 28 29 27 23 23 31 33 32 38 75 74 68 81 70 61 56 57 50 49 48 45 41 36 37 52 59 70 77 80 84 78 76 73 75 73 62
33 33 34 33 33 32 31 30 29 31 32 26 30 34 38 38 59 86 77 61 95 71 66 59 58 51 55 49 45 37 34 39 55 63 74 75 77 75 74 73 72 71 63
39 39 40 40 39 39 37 34 33 32 36 35 31 35 41 39 45 68 85 77 75 82 79 62 60 56 61 58 51 43 35 34 43 51 66 67 73 76 72 72 73 72 67
46 46 46 46 45 45 43 41 39 37 37 39 40 38 42 48 51 42 55 93 90 93 88 74 70 60 63 68 58 48 39 33 37 41 51 64 69 72 70 68 71 72 72
51 52 51 50 49 48 46 45 44 43 41 41 43 43 46 48 55 51 52 51 55 80 96 85 75 70 70 66 64 52 44 36 34 38 42 49 59 67 69 66 61 64 69
54 52 52 55 53 50 48 48 47 46 44 42 44 44 53 53 50 52 53 56 70 75 87 90 82 77 75 72 65 56 46 40 35 35 37 40 44 54 59 59 58 55 57
56 56 54 54 54 52 53 55 50 49 48 46 47 47 55 61 59 60 57 54 57 65 79 98 88 78 75 76 70 64 52 40 36 35 34 35 37 40 44 44 43 48 50
59 60 60 60 58 58 57 55 55 53 52 49 51 47 54 62 62 61 57 52 56 53 47 98 87 86 75 74 71 67 58 43 35 34 33 33 35 35 38 40 40 43 44
66 66 65 64 64 64 64 62 59 56 57 58 58 57 56 54 57 58 60 44 37 37 41 76 89 83 80 70 68 68 65 51 35 32 36 39 41 40 42 45 47 47 48
68 68 69 68 68 68 69 72 70 63 65 65 65 69 72 72 75 66 61 52 51 44 39 49 71 82 82 74 68 68 70 59 49 41 42 43 47 49 47 47 49 53 54
73 72 73 73 74 76 81 84 85 77 72 78 75 77 75 74 83 80 69 59 67 69 68 72 77 91 95 86 75 73 74 69 58 54 46 44 48 50 51 53 56 60 63
78 81 78 81 84 83 84 95 93 86 82 84 90 83 83 82 74 71 69 67 72 82 90 83 97 89 90 93 89 79 73 71 68 56 53 51 52 53 57 60 63 67 68
71 85 86 86 88 86 94 97 98 90 91 94 96 95 82 84 75 71 63 68 62 59 74 79 95 97 96 94 98 98 85 76 77 69 66 62 63 64 66 68 69 73 75
44 60 87 93 94 92 93 98 98 98 97 95 88 83 80 75 67 61 56 49 53 61 69 93 99 98 91 95 92 98 89 87 78 74 70 65 64 71 74 78 75 73 72
24 44 50 61 83 93 91 91 97 96 93 84 84 79 72 66 64 57 53 49 48 56 57 71 82 83 84 92 91 97 97 95 91 82 77 73 74 72 73 75 75 75 73
13 21 40 45 54 59 72 81 83 85 88 84 79 77 74 69 62 58 56 54 53 60 69 63 66 74 86 95 95 96 98 98 98 96 97 86 83 84 82 78 74 74 74
21 14 21 32 34 45 49 50 47 58 55 61 72 78 78 76 75 70 67 64 61 68 64 83 72 70 91 92 90 95 97 98 97 96 98 98 95 91 92 86 84 79 78
32 21 17 21 29 27 31 37 38 43 45 43 48 51 50 56 64 68 75 81 74 93 89 94 99 92 94 98 99 97 97 98 98 98 98 98 97 97 96 91 93 85 85
27 26 22 14 19 21 22 24 26 27 29 33 32 37 44 47 45 47 49 54 58 78 88 95 92 97 96 98 97 98 98 98 98 98 97 96 98 98 98 97 98 95 94
28 31 26 23 16 16 17 18 20 20 19 21 26 25 25 30 34 40 45 40 40 46 47 46 54 60 69 74 78 83 90 93 95 98 97 95 95 97 98 98 97 99 97